<?xml version="1.0" encoding="UTF-8" standalone="no" ?><gpx xmlns="http://www.topografix.com/GPX/1/1" xmlns:gpxx="http://www.garmin.com/xmlschemas/GpxExtensions/v3" xmlns:wptx1="http://www.garmin.com/xmlschemas/WaypointExtension/v1" xmlns:gpxtpx="http://www.garmin.com/xmlschemas/TrackPointExtension/v1" creator="GuideVTT.com" version="1.1" xmlns:xsi="http://www.w3.org/2001/XMLSchema-instance" xsi:schemaLocation="http://www.topografix.com/GPX/1/1 http://www.topografix.com/GPX/1/1/gpx.xsd http://www.garmin.com/xmlschemas/GpxExtensions/v3 http://www8.garmin.com/xmlschemas/GpxExtensionsv3.xsd http://www.garmin.com/xmlschemas/WaypointExtension/v1 http://www8.garmin.com/xmlschemas/WaypointExtensionv1.xsd http://www.garmin.com/xmlschemas/TrackPointExtension/v1 http://www.garmin.com/xmlschemas/TrackPointExtensionv1.xsd">
<metadata><link href="http://www.garmin.com"><text>Garmin International</text></link><time>2013-06-22T15:13:50Z</time></metadata>
<trk><name>bassecourt_-_loge_de_soulce.gpx</name><extensions><gpxx:TrackExtension><gpxx:DisplayColor>Cyan</gpxx:DisplayColor></gpxx:TrackExtension></extensions><trkseg>
<trkpt lat="47.33444795943796634674072265625" lon="7.207173742353916168212890625"><ele></ele><time>2017-5-3T5:54:58Z</time></trkpt>
<trkpt lat="47.3344467021524906158447265625" lon="7.20717449672520160675048828125"><ele></ele><time>2017-5-3T5:55:1Z</time></trkpt>
<trkpt lat="47.33447109349071979522705078125" lon="7.20716678537428379058837890625"><ele></ele><time>2017-5-3T5:55:4Z</time></trkpt>
<trkpt lat="47.3336098529398441314697265625" lon="7.21001026220619678497314453125"><ele></ele><time>2017-5-3T5:55:7Z</time></trkpt>
<trkpt lat="47.33358093537390232086181640625" lon="7.2100083343684673309326171875"><ele></ele><time>2017-5-3T5:55:10Z</time></trkpt>
<trkpt lat="47.333541624248027801513671875" lon="7.2099935822188854217529296875"><ele></ele><time>2017-5-3T5:55:13Z</time></trkpt>
<trkpt lat="47.3335370980203151702880859375" lon="7.20998897217214107513427734375"><ele></ele><time>2017-5-3T5:55:16Z</time></trkpt>
<trkpt lat="47.33346794731914997100830078125" lon="7.20999064855277538299560546875"><ele></ele><time>2017-5-3T5:55:19Z</time></trkpt>
<trkpt lat="47.33344179578125476837158203125" lon="7.20998293720185756683349609375"><ele></ele><time>2017-5-3T5:55:22Z</time></trkpt>
<trkpt lat="47.33336200006306171417236328125" lon="7.2098571248352527618408203125"><ele></ele><time>2017-5-3T5:55:25Z</time></trkpt>
<trkpt lat="47.33313736505806446075439453125" lon="7.210187204182147979736328125"><ele></ele><time>2017-5-3T5:55:28Z</time></trkpt>
<trkpt lat="47.33309268951416015625" lon="7.2110800445079803466796875"><ele></ele><time>2017-5-3T5:55:31Z</time></trkpt>
<trkpt lat="47.33303108252584934234619140625" lon="7.2119733877480030059814453125"><ele></ele><time>2017-5-3T5:55:34Z</time></trkpt>
<trkpt lat="47.33298338949680328369140625" lon="7.2123157046735286712646484375"><ele></ele><time>2017-5-3T5:55:37Z</time></trkpt>
<trkpt lat="47.332942485809326171875" lon="7.21279540099203586578369140625"><ele></ele><time>2017-5-3T5:55:40Z</time></trkpt>
<trkpt lat="47.332991771399974822998046875" lon="7.21330803819000720977783203125"><ele></ele><time>2017-5-3T5:55:43Z</time></trkpt>
<trkpt lat="47.3330190964043140411376953125" lon="7.213559411466121673583984375"><ele></ele><time>2017-5-3T5:55:46Z</time></trkpt>
<trkpt lat="47.33303879387676715850830078125" lon="7.21404296346008777618408203125"><ele></ele><time>2017-5-3T5:55:49Z</time></trkpt>
<trkpt lat="47.33302303589880466461181640625" lon="7.21416148357093334197998046875"><ele></ele><time>2017-5-3T5:55:52Z</time></trkpt>
<trkpt lat="47.3329993151128292083740234375" lon="7.2142770700156688690185546875"><ele></ele><time>2017-5-3T5:55:55Z</time></trkpt>
<trkpt lat="47.3329279012978076934814453125" lon="7.214602790772914886474609375"><ele></ele><time>2017-5-3T5:55:58Z</time></trkpt>
<trkpt lat="47.33291205950081348419189453125" lon="7.21470840275287628173828125"><ele></ele><time>2017-5-3T5:56:1Z</time></trkpt>
<trkpt lat="47.33289621770381927490234375" lon="7.2149231471121311187744140625"><ele></ele><time>2017-5-3T5:56:4Z</time></trkpt>
<trkpt lat="47.33290032483637332916259765625" lon="7.215131856501102447509765625"><ele></ele><time>2017-5-3T5:56:7Z</time></trkpt>
<trkpt lat="47.33290401287376880645751953125" lon="7.21532908268272876739501953125"><ele></ele><time>2017-5-3T5:56:10Z</time></trkpt>
<trkpt lat="47.33289395458996295928955078125" lon="7.2155276499688625335693359375"><ele></ele><time>2017-5-3T5:56:13Z</time></trkpt>
<trkpt lat="47.33283930458128452301025390625" lon="7.2158029116690158843994140625"><ele></ele><time>2017-5-3T5:56:16Z</time></trkpt>
<trkpt lat="47.33278683386743068695068359375" lon="7.21599049866199493408203125"><ele></ele><time>2017-5-3T5:56:19Z</time></trkpt>
<trkpt lat="47.3325386457145214080810546875" lon="7.21681125462055206298828125"><ele></ele><time>2017-5-3T5:56:22Z</time></trkpt>
<trkpt lat="47.33242255635559558868408203125" lon="7.2172586806118488311767578125"><ele></ele><time>2017-5-3T5:56:25Z</time></trkpt>
<trkpt lat="47.3321829177439212799072265625" lon="7.2180479206144809722900390625"><ele></ele><time>2017-5-3T5:56:28Z</time></trkpt>
<trkpt lat="47.3320481367409229278564453125" lon="7.21851873211562633514404296875"><ele></ele><time>2017-5-3T5:56:31Z</time></trkpt>
<trkpt lat="47.33202944509685039520263671875" lon="7.21864026971161365509033203125"><ele></ele><time>2017-5-3T5:56:34Z</time></trkpt>
<trkpt lat="47.3320233263075351715087890625" lon="7.21876583062112331390380859375"><ele></ele><time>2017-5-3T5:56:37Z</time></trkpt>
<trkpt lat="47.332052998244762420654296875" lon="7.21912600100040435791015625"><ele></ele><time>2017-5-3T5:56:40Z</time></trkpt>
<trkpt lat="47.33209415338933467864990234375" lon="7.21948399208486080169677734375"><ele></ele><time>2017-5-3T5:56:43Z</time></trkpt>
<trkpt lat="47.33210152946412563323974609375" lon="7.2198356129229068756103515625"><ele></ele><time>2017-5-3T5:56:46Z</time></trkpt>
<trkpt lat="47.3320732824504375457763671875" lon="7.22041790373623371124267578125"><ele></ele><time>2017-5-3T5:56:49Z</time></trkpt>
<trkpt lat="47.332051657140254974365234375" lon="7.22121653147041797637939453125"><ele></ele><time>2017-5-3T5:56:52Z</time></trkpt>
<trkpt lat="47.331998348236083984375" lon="7.22166881896555423736572265625"><ele></ele><time>2017-5-3T5:56:55Z</time></trkpt>
<trkpt lat="47.33195015229284763336181640625" lon="7.22234171815216541290283203125"><ele></ele><time>2017-5-3T5:56:58Z</time></trkpt>
<trkpt lat="47.33193472959101200103759765625" lon="7.22263659350574016571044921875"><ele></ele><time>2017-5-3T5:57:1Z</time></trkpt>
<trkpt lat="47.3317743837833404541015625" lon="7.2227525152266025543212890625"><ele></ele><time>2017-5-3T5:57:4Z</time></trkpt>
<trkpt lat="47.33172065578401088714599609375" lon="7.22276014275848865509033203125"><ele></ele><time>2017-5-3T5:57:7Z</time></trkpt>
<trkpt lat="47.33153139241039752960205078125" lon="7.22272418439388275146484375"><ele></ele><time>2017-5-3T5:57:10Z</time></trkpt>
<trkpt lat="47.33131446875631809234619140625" lon="7.22271689213812351226806640625"><ele></ele><time>2017-5-3T5:57:13Z</time></trkpt>
<trkpt lat="47.33102126978337764739990234375" lon="7.2227181494235992431640625"><ele></ele><time>2017-5-3T5:57:16Z</time></trkpt>
<trkpt lat="47.3304579220712184906005859375" lon="7.22273281775414943695068359375"><ele></ele><time>2017-5-3T5:57:19Z</time></trkpt>
<trkpt lat="47.330038659274578094482421875" lon="7.22273214720189571380615234375"><ele></ele><time>2017-5-3T5:57:22Z</time></trkpt>
<trkpt lat="47.3294722102582454681396484375" lon="7.2227330692112445831298828125"><ele></ele><time>2017-5-3T5:57:25Z</time></trkpt>
<trkpt lat="47.3289240337908267974853515625" lon="7.22273969091475009918212890625"><ele></ele><time>2017-5-3T5:57:28Z</time></trkpt>
<trkpt lat="47.32850770466029644012451171875" lon="7.22272376529872417449951171875"><ele></ele><time>2017-5-3T5:57:31Z</time></trkpt>
<trkpt lat="47.32823763974010944366455078125" lon="7.22268671728670597076416015625"><ele></ele><time>2017-5-3T5:57:34Z</time></trkpt>
<trkpt lat="47.3279200494289398193359375" lon="7.2226304747164249420166015625"><ele></ele><time>2017-5-3T5:57:37Z</time></trkpt>
<trkpt lat="47.32768745161592960357666015625" lon="7.222993411123752593994140625"><ele></ele><time>2017-5-3T5:57:40Z</time></trkpt>
<trkpt lat="47.32757966034114360809326171875" lon="7.22354066558182239532470703125"><ele></ele><time>2017-5-3T5:57:43Z</time></trkpt>
<trkpt lat="47.32740766368806362152099609375" lon="7.22414818592369556427001953125"><ele></ele><time>2017-5-3T5:57:46Z</time></trkpt>
<trkpt lat="47.327473461627960205078125" lon="7.22432755865156650543212890625"><ele></ele><time>2017-5-3T5:57:49Z</time></trkpt>
<trkpt lat="47.32774813659489154815673828125" lon="7.22493700683116912841796875"><ele></ele><time>2017-5-3T5:57:52Z</time></trkpt>
<trkpt lat="47.3279001004993915557861328125" lon="7.22513339482247829437255859375"><ele></ele><time>2017-5-3T5:57:55Z</time></trkpt>
<trkpt lat="47.32836152426898479461669921875" lon="7.22562876529991626739501953125"><ele></ele><time>2017-5-3T5:57:58Z</time></trkpt>
<trkpt lat="47.32882772572338581085205078125" lon="7.22608122043311595916748046875"><ele></ele><time>2017-5-3T5:58:1Z</time></trkpt>
<trkpt lat="47.32932351529598236083984375" lon="7.2264056839048862457275390625"><ele></ele><time>2017-5-3T5:58:4Z</time></trkpt>
<trkpt lat="47.32950297184288501739501953125" lon="7.22653434611856937408447265625"><ele></ele><time>2017-5-3T5:58:7Z</time></trkpt>
<trkpt lat="47.32968033291399478912353515625" lon="7.22679753787815570831298828125"><ele></ele><time>2017-5-3T5:58:10Z</time></trkpt>
<trkpt lat="47.32974135316908359527587890625" lon="7.2274493984878063201904296875"><ele></ele><time>2017-5-3T5:58:13Z</time></trkpt>
<trkpt lat="47.32972408644855022430419921875" lon="7.22754411399364471435546875"><ele></ele><time>2017-5-3T5:58:16Z</time></trkpt>
<trkpt lat="47.32970514334738254547119140625" lon="7.22764478065073490142822265625"><ele></ele><time>2017-5-3T5:58:19Z</time></trkpt>
<trkpt lat="47.32969005592167377471923828125" lon="7.22774921916425228118896484375"><ele></ele><time>2017-5-3T5:58:22Z</time></trkpt>
<trkpt lat="47.3297246731817722320556640625" lon="7.2282403148710727691650390625"><ele></ele><time>2017-5-3T5:58:25Z</time></trkpt>
<trkpt lat="47.32994503341615200042724609375" lon="7.22903969697654247283935546875"><ele></ele><time>2017-5-3T5:58:28Z</time></trkpt>
<trkpt lat="47.33000119216740131378173828125" lon="7.229167185723781585693359375"><ele></ele><time>2017-5-3T5:58:31Z</time></trkpt>
<trkpt lat="47.330058105289936065673828125" lon="7.22929157316684722900390625"><ele></ele><time>2017-5-3T5:58:34Z</time></trkpt>
<trkpt lat="47.3301702551543712615966796875" lon="7.22953489981591701507568359375"><ele></ele><time>2017-5-3T5:58:37Z</time></trkpt>
<trkpt lat="47.33034602366387844085693359375" lon="7.2298796474933624267578125"><ele></ele><time>2017-5-3T5:58:40Z</time></trkpt>
<trkpt lat="47.33040905557572841644287109375" lon="7.22998559474945068359375"><ele></ele><time>2017-5-3T5:58:43Z</time></trkpt>
<trkpt lat="47.33053612522780895233154296875" lon="7.23018944263458251953125"><ele></ele><time>2017-5-3T5:58:46Z</time></trkpt>
<trkpt lat="47.33086251653730869293212890625" lon="7.2307981364428997039794921875"><ele></ele><time>2017-5-3T5:58:49Z</time></trkpt>
<trkpt lat="47.33109268359839916229248046875" lon="7.23163473419845104217529296875"><ele></ele><time>2017-5-3T5:58:52Z</time></trkpt>
<trkpt lat="47.3312964476644992828369140625" lon="7.23205131478607654571533203125"><ele></ele><time>2017-5-3T5:58:55Z</time></trkpt>
<trkpt lat="47.33163231052458286285400390625" lon="7.23279160447418689727783203125"><ele></ele><time>2017-5-3T5:58:58Z</time></trkpt>
<trkpt lat="47.33166734687983989715576171875" lon="7.232904173433780670166015625"><ele></ele><time>2017-5-3T5:59:1Z</time></trkpt>
<trkpt lat="47.33178905211389064788818359375" lon="7.23337213508784770965576171875"><ele></ele><time>2017-5-3T5:59:4Z</time></trkpt>
<trkpt lat="47.3318184725940227508544921875" lon="7.2334872186183929443359375"><ele></ele><time>2017-5-3T5:59:7Z</time></trkpt>
<trkpt lat="47.332017458975315093994140625" lon="7.23425089381635189056396484375"><ele></ele><time>2017-5-3T5:59:10Z</time></trkpt>
<trkpt lat="47.33216053806245326995849609375" lon="7.23489361815154552459716796875"><ele></ele><time>2017-5-3T5:59:13Z</time></trkpt>
<trkpt lat="47.33224309980869293212890625" lon="7.2357857041060924530029296875"><ele></ele><time>2017-5-3T5:59:16Z</time></trkpt>
<trkpt lat="47.33226899988949298858642578125" lon="7.23588938824832439422607421875"><ele></ele><time>2017-5-3T5:59:19Z</time></trkpt>
<trkpt lat="47.33246144838631153106689453125" lon="7.23641954362392425537109375"><ele></ele><time>2017-5-3T5:59:22Z</time></trkpt>
<trkpt lat="47.33265188522636890411376953125" lon="7.236749790608882904052734375"><ele></ele><time>2017-5-3T5:59:25Z</time></trkpt>
<trkpt lat="47.33277861960232257843017578125" lon="7.236947603523731231689453125"><ele></ele><time>2017-5-3T5:59:28Z</time></trkpt>
<trkpt lat="47.3329089581966400146484375" lon="7.23736460320651531219482421875"><ele></ele><time>2017-5-3T5:59:31Z</time></trkpt>
<trkpt lat="47.33296821825206279754638671875" lon="7.23762997426092624664306640625"><ele></ele><time>2017-5-3T5:59:34Z</time></trkpt>
<trkpt lat="47.33318933285772800445556640625" lon="7.23840035498142242431640625"><ele></ele><time>2017-5-3T5:59:37Z</time></trkpt>
<trkpt lat="47.3332926817238330841064453125" lon="7.238740660250186920166015625"><ele></ele><time>2017-5-3T5:59:40Z</time></trkpt>
<trkpt lat="47.3334918357431888580322265625" lon="7.23936351947486400604248046875"><ele></ele><time>2017-5-3T5:59:43Z</time></trkpt>
<trkpt lat="47.3336906544864177703857421875" lon="7.24000054411590099334716796875"><ele></ele><time>2017-5-3T5:59:46Z</time></trkpt>
<trkpt lat="47.33392559923231601715087890625" lon="7.24071912467479705810546875"><ele></ele><time>2017-5-3T5:59:49Z</time></trkpt>
<trkpt lat="47.3341751284897327423095703125" lon="7.241524793207645416259765625"><ele></ele><time>2017-5-3T5:59:52Z</time></trkpt>
<trkpt lat="47.3342612944543361663818359375" lon="7.2417998872697353363037109375"><ele></ele><time>2017-5-3T5:59:55Z</time></trkpt>
<trkpt lat="47.334295324981212615966796875" lon="7.2418900765478610992431640625"><ele></ele><time>2017-5-3T5:59:58Z</time></trkpt>
<trkpt lat="47.3345482908189296722412109375" lon="7.24227011203765869140625"><ele></ele><time>2017-5-3T6:0:1Z</time></trkpt>
<trkpt lat="47.33477770350873470306396484375" lon="7.24254881031811237335205078125"><ele></ele><time>2017-5-3T6:0:4Z</time></trkpt>
<trkpt lat="47.33504877425730228424072265625" lon="7.2429388202726840972900390625"><ele></ele><time>2017-5-3T6:0:7Z</time></trkpt>
<trkpt lat="47.335142903029918670654296875" lon="7.24313713610172271728515625"><ele></ele><time>2017-5-3T6:0:10Z</time></trkpt>
<trkpt lat="47.3352466709911823272705078125" lon="7.24333821795880794525146484375"><ele></ele><time>2017-5-3T6:0:13Z</time></trkpt>
<trkpt lat="47.33564279973506927490234375" lon="7.24403291009366512298583984375"><ele></ele><time>2017-5-3T6:0:16Z</time></trkpt>
<trkpt lat="47.335728965699672698974609375" lon="7.24425117485225200653076171875"><ele></ele><time>2017-5-3T6:0:19Z</time></trkpt>
<trkpt lat="47.3357730545103549957275390625" lon="7.2443543560802936553955078125"><ele></ele><time>2017-5-3T6:0:22Z</time></trkpt>
<trkpt lat="47.33581739477813243865966796875" lon="7.24444228224456310272216796875"><ele></ele><time>2017-5-3T6:0:25Z</time></trkpt>
<trkpt lat="47.3358689434826374053955078125" lon="7.2445038892328739166259765625"><ele></ele><time>2017-5-3T6:0:28Z</time></trkpt>
<trkpt lat="47.33602744527161121368408203125" lon="7.24452794529497623443603515625"><ele></ele><time>2017-5-3T6:0:31Z</time></trkpt>
<trkpt lat="47.33607119880616664886474609375" lon="7.24451755173504352569580078125"><ele></ele><time>2017-5-3T6:0:34Z</time></trkpt>
<trkpt lat="47.33612283132970333099365234375" lon="7.24454655312001705169677734375"><ele></ele><time>2017-5-3T6:0:37Z</time></trkpt>
<trkpt lat="47.3361220769584178924560546875" lon="7.24454789422452449798583984375"><ele></ele><time>2017-5-3T6:0:40Z</time></trkpt>
<trkpt lat="47.336122579872608184814453125" lon="7.24454873241484165191650390625"><ele></ele><time>2017-5-3T6:0:43Z</time></trkpt>
<trkpt lat="47.33612291514873504638671875" lon="7.24454873241484165191650390625"><ele></ele><time>2017-5-3T6:0:46Z</time></trkpt>
<trkpt lat="47.33612316660583019256591796875" lon="7.2445474751293659210205078125"><ele></ele><time>2017-5-3T6:0:49Z</time></trkpt>
<trkpt lat="47.3361230827867984771728515625" lon="7.24454739131033420562744140625"><ele></ele><time>2017-5-3T6:0:52Z</time></trkpt>
<trkpt lat="47.3361227475106716156005859375" lon="7.244547307491302490234375"><ele></ele><time>2017-5-3T6:0:55Z</time></trkpt>
<trkpt lat="47.3361227475106716156005859375" lon="7.244547307491302490234375"><ele></ele><time>2017-5-3T6:0:58Z</time></trkpt>
<trkpt lat="47.33612023293972015380859375" lon="7.24454806186258792877197265625"><ele></ele><time>2017-5-3T6:1:1Z</time></trkpt>
<trkpt lat="47.33611947856843471527099609375" lon="7.24454605020582675933837890625"><ele></ele><time>2017-5-3T6:1:4Z</time></trkpt>
<trkpt lat="47.33611947856843471527099609375" lon="7.2445459663867950439453125"><ele></ele><time>2017-5-3T6:1:7Z</time></trkpt>
<trkpt lat="47.3361193947494029998779296875" lon="7.24454219453036785125732421875"><ele></ele><time>2017-5-3T6:1:10Z</time></trkpt>
<trkpt lat="47.336119897663593292236328125" lon="7.2445407696068286895751953125"><ele></ele><time>2017-5-3T6:1:13Z</time></trkpt>
<trkpt lat="47.33612014912068843841552734375" lon="7.24453984759747982025146484375"><ele></ele><time>2017-5-3T6:1:16Z</time></trkpt>
<trkpt lat="47.33611981384456157684326171875" lon="7.244544290006160736083984375"><ele></ele><time>2017-5-3T6:1:19Z</time></trkpt>
<trkpt lat="47.336119897663593292236328125" lon="7.2445444576442241668701171875"><ele></ele><time>2017-5-3T6:1:22Z</time></trkpt>
<trkpt lat="47.3361197300255298614501953125" lon="7.24454454146325588226318359375"><ele></ele><time>2017-5-3T6:1:25Z</time></trkpt>
<trkpt lat="47.3360178060829639434814453125" lon="7.24459357559680938720703125"><ele></ele><time>2017-5-3T6:1:28Z</time></trkpt>
<trkpt lat="47.3360178060829639434814453125" lon="7.2445934079587459564208984375"><ele></ele><time>2017-5-3T6:1:31Z</time></trkpt>
<trkpt lat="47.33601772226393222808837890625" lon="7.24459315650165081024169921875"><ele></ele><time>2017-5-3T6:1:34Z</time></trkpt>
<trkpt lat="47.3360178060829639434814453125" lon="7.24459265358746051788330078125"><ele></ele><time>2017-5-3T6:1:37Z</time></trkpt>
<trkpt lat="47.33601788990199565887451171875" lon="7.2445924021303653717041015625"><ele></ele><time>2017-5-3T6:1:40Z</time></trkpt>
<trkpt lat="47.33601738698780536651611328125" lon="7.2445927374064922332763671875"><ele></ele><time>2017-5-3T6:1:43Z</time></trkpt>
<trkpt lat="47.3360176384449005126953125" lon="7.24459265358746051788330078125"><ele></ele><time>2017-5-3T6:1:46Z</time></trkpt>
<trkpt lat="47.33601788990199565887451171875" lon="7.244592569768428802490234375"><ele></ele><time>2017-5-3T6:1:49Z</time></trkpt>
<trkpt lat="47.33600129373371601104736328125" lon="7.2445679269731044769287109375"><ele></ele><time>2017-5-3T6:1:52Z</time></trkpt>
<trkpt lat="47.3360013775527477264404296875" lon="7.2445679269731044769287109375"><ele></ele><time>2017-5-3T6:1:55Z</time></trkpt>
<trkpt lat="47.33600146137177944183349609375" lon="7.2445679269731044769287109375"><ele></ele><time>2017-5-3T6:1:58Z</time></trkpt>
<trkpt lat="47.3360015451908111572265625" lon="7.2445679269731044769287109375"><ele></ele><time>2017-5-3T6:2:1Z</time></trkpt>
<trkpt lat="47.33599559403955936431884765625" lon="7.24457236938178539276123046875"><ele></ele><time>2017-5-3T6:2:4Z</time></trkpt>
<trkpt lat="47.33596793375909328460693359375" lon="7.2445887140929698944091796875"><ele></ele><time>2017-5-3T6:2:7Z</time></trkpt>
<trkpt lat="47.33591680414974689483642578125" lon="7.244606316089630126953125"><ele></ele><time>2017-5-3T6:2:10Z</time></trkpt>
<trkpt lat="47.3358541913330554962158203125" lon="7.2446091659367084503173828125"><ele></ele><time>2017-5-3T6:2:13Z</time></trkpt>
<trkpt lat="47.33581152744591236114501953125" lon="7.2446235828101634979248046875"><ele></ele><time>2017-5-3T6:2:16Z</time></trkpt>
<trkpt lat="47.33577582053840160369873046875" lon="7.24464830942451953887939453125"><ele></ele><time>2017-5-3T6:2:19Z</time></trkpt>
<trkpt lat="47.33573005534708499908447265625" lon="7.2446621395647525787353515625"><ele></ele><time>2017-5-3T6:2:22Z</time></trkpt>
<trkpt lat="47.3356904089450836181640625" lon="7.24467596970498561859130859375"><ele></ele><time>2017-5-3T6:2:25Z</time></trkpt>
<trkpt lat="47.33551279641687870025634765625" lon="7.244737409055233001708984375"><ele></ele><time>2017-5-3T6:2:28Z</time></trkpt>
<trkpt lat="47.33541548252105712890625" lon="7.2446772269904613494873046875"><ele></ele><time>2017-5-3T6:2:31Z</time></trkpt>
<trkpt lat="47.33539829961955547332763671875" lon="7.244660295546054840087890625"><ele></ele><time>2017-5-3T6:2:34Z</time></trkpt>
<trkpt lat="47.335272990167140960693359375" lon="7.2444279491901397705078125"><ele></ele><time>2017-5-3T6:2:37Z</time></trkpt>
<trkpt lat="47.33515463769435882568359375" lon="7.244242541491985321044921875"><ele></ele><time>2017-5-3T6:2:40Z</time></trkpt>
<trkpt lat="47.3351088725030422210693359375" lon="7.244168780744075775146484375"><ele></ele><time>2017-5-3T6:2:43Z</time></trkpt>
<trkpt lat="47.335026226937770843505859375" lon="7.2440687008202075958251953125"><ele></ele><time>2017-5-3T6:2:46Z</time></trkpt>
<trkpt lat="47.334963865578174591064453125" lon="7.24398546852171421051025390625"><ele></ele><time>2017-5-3T6:2:49Z</time></trkpt>
<trkpt lat="47.33491164632141590118408203125" lon="7.24392746575176715850830078125"><ele></ele><time>2017-5-3T6:2:52Z</time></trkpt>
<trkpt lat="47.33485816977918148040771484375" lon="7.24387130700051784515380859375"><ele></ele><time>2017-5-3T6:2:55Z</time></trkpt>
<trkpt lat="47.3347524739801883697509765625" lon="7.24380492232739925384521484375"><ele></ele><time>2017-5-3T6:2:58Z</time></trkpt>
<trkpt lat="47.334650047123432159423828125" lon="7.2437260486185550689697265625"><ele></ele><time>2017-5-3T6:3:1Z</time></trkpt>
<trkpt lat="47.33454485423862934112548828125" lon="7.2436724044382572174072265625"><ele></ele><time>2017-5-3T6:3:4Z</time></trkpt>
<trkpt lat="47.3345207981765270233154296875" lon="7.24365622736513614654541015625"><ele></ele><time>2017-5-3T6:3:7Z</time></trkpt>
<trkpt lat="47.334344275295734405517578125" lon="7.2435775212943553924560546875"><ele></ele><time>2017-5-3T6:3:10Z</time></trkpt>
<trkpt lat="47.3341831751167774200439453125" lon="7.243514992296695709228515625"><ele></ele><time>2017-5-3T6:3:13Z</time></trkpt>
<trkpt lat="47.3340561054646968841552734375" lon="7.243463695049285888671875"><ele></ele><time>2017-5-3T6:3:16Z</time></trkpt>
<trkpt lat="47.33397848904132843017578125" lon="7.2434289939701557159423828125"><ele></ele><time>2017-5-3T6:3:19Z</time></trkpt>
<trkpt lat="47.3337191529572010040283203125" lon="7.243279628455638885498046875"><ele></ele><time>2017-5-3T6:3:22Z</time></trkpt>
<trkpt lat="47.333558388054370880126953125" lon="7.24316773004829883575439453125"><ele></ele><time>2017-5-3T6:3:25Z</time></trkpt>
<trkpt lat="47.33343827538192272186279296875" lon="7.2430779598653316497802734375"><ele></ele><time>2017-5-3T6:3:28Z</time></trkpt>
<trkpt lat="47.3333657719194889068603515625" lon="7.24300595931708812713623046875"><ele></ele><time>2017-5-3T6:3:31Z</time></trkpt>
<trkpt lat="47.33335143886506557464599609375" lon="7.2429931350052356719970703125"><ele></ele><time>2017-5-3T6:3:34Z</time></trkpt>
<trkpt lat="47.33318564482033252716064453125" lon="7.24287603981792926788330078125"><ele></ele><time>2017-5-3T6:3:37Z</time></trkpt>
<trkpt lat="47.33305103145539760589599609375" lon="7.242741174995899200439453125"><ele></ele><time>2017-5-3T6:3:40Z</time></trkpt>
<trkpt lat="47.33295313082635402679443359375" lon="7.24260295741260051727294921875"><ele></ele><time>2017-5-3T6:3:43Z</time></trkpt>
<trkpt lat="47.3328551463782787322998046875" lon="7.242501787841320037841796875"><ele></ele><time>2017-5-3T6:3:46Z</time></trkpt>
<trkpt lat="47.33271039091050624847412109375" lon="7.24245778284966945648193359375"><ele></ele><time>2017-5-3T6:3:49Z</time></trkpt>
<trkpt lat="47.3325993306934833526611328125" lon="7.2424476407468318939208984375"><ele></ele><time>2017-5-3T6:3:52Z</time></trkpt>
<trkpt lat="47.332496233284473419189453125" lon="7.24244688637554645538330078125"><ele></ele><time>2017-5-3T6:3:55Z</time></trkpt>
<trkpt lat="47.3324395716190338134765625" lon="7.24247060716152191162109375"><ele></ele><time>2017-5-3T6:3:58Z</time></trkpt>
<trkpt lat="47.332423143088817596435546875" lon="7.2424623928964138031005859375"><ele></ele><time>2017-5-3T6:4:1Z</time></trkpt>
<trkpt lat="47.33235441148281097412109375" lon="7.24243297241628170013427734375"><ele></ele><time>2017-5-3T6:4:4Z</time></trkpt>
<trkpt lat="47.3323388211429119110107421875" lon="7.24242978729307651519775390625"><ele></ele><time>2017-5-3T6:4:7Z</time></trkpt>
<trkpt lat="47.33223664574325084686279296875" lon="7.242422662675380706787109375"><ele></ele><time>2017-5-3T6:4:10Z</time></trkpt>
<trkpt lat="47.332091219723224639892578125" lon="7.2423836030066013336181640625"><ele></ele><time>2017-5-3T6:4:13Z</time></trkpt>
<trkpt lat="47.331890724599361419677734375" lon="7.24226131103932857513427734375"><ele></ele><time>2017-5-3T6:4:16Z</time></trkpt>
<trkpt lat="47.33178921975195407867431640625" lon="7.242194004356861114501953125"><ele></ele><time>2017-5-3T6:4:19Z</time></trkpt>
<trkpt lat="47.3316910676658153533935546875" lon="7.2421190701425075531005859375"><ele></ele><time>2017-5-3T6:4:22Z</time></trkpt>
<trkpt lat="47.3315941728651523590087890625" lon="7.2420461475849151611328125"><ele></ele><time>2017-5-3T6:4:25Z</time></trkpt>
<trkpt lat="47.3314969427883625030517578125" lon="7.2419601492583751678466796875"><ele></ele><time>2017-5-3T6:4:28Z</time></trkpt>
<trkpt lat="47.33140490949153900146484375" lon="7.24187507294118404388427734375"><ele></ele><time>2017-5-3T6:4:31Z</time></trkpt>
<trkpt lat="47.33134053647518157958984375" lon="7.241815812885761260986328125"><ele></ele><time>2017-5-3T6:4:34Z</time></trkpt>
<trkpt lat="47.3312746547162532806396484375" lon="7.24175043404102325439453125"><ele></ele><time>2017-5-3T6:4:37Z</time></trkpt>
<trkpt lat="47.3311869800090789794921875" lon="7.24166267551481723785400390625"><ele></ele><time>2017-5-3T6:4:40Z</time></trkpt>
<trkpt lat="47.33102110214531421661376953125" lon="7.2415038384497165679931640625"><ele></ele><time>2017-5-3T6:4:43Z</time></trkpt>
<trkpt lat="47.330831587314605712890625" lon="7.2413378767669200897216796875"><ele></ele><time>2017-5-3T6:4:46Z</time></trkpt>
<trkpt lat="47.33068532310426235198974609375" lon="7.241216003894805908203125"><ele></ele><time>2017-5-3T6:4:49Z</time></trkpt>
<trkpt lat="47.33058147132396697998046875" lon="7.24110846407711505889892578125"><ele></ele><time>2017-5-3T6:4:52Z</time></trkpt>
<trkpt lat="47.330504022538661956787109375" lon="7.24102682434022426605224609375"><ele></ele><time>2017-5-3T6:4:55Z</time></trkpt>
<trkpt lat="47.330305539071559906005859375" lon="7.24087896756827831268310546875"><ele></ele><time>2017-5-3T6:4:58Z</time></trkpt>
<trkpt lat="47.33017285354435443878173828125" lon="7.2408778779208660125732421875"><ele></ele><time>2017-5-3T6:5:1Z</time></trkpt>
<trkpt lat="47.33014955185353755950927734375" lon="7.2408845834434032440185546875"><ele></ele><time>2017-5-3T6:5:4Z</time></trkpt>
<trkpt lat="47.33003430068492889404296875" lon="7.24093026481568813323974609375"><ele></ele><time>2017-5-3T6:5:7Z</time></trkpt>
<trkpt lat="47.32996649108827114105224609375" lon="7.24095943383872509002685546875"><ele></ele><time>2017-5-3T6:5:10Z</time></trkpt>
<trkpt lat="47.32992894016206264495849609375" lon="7.2409861721098423004150390625"><ele></ele><time>2017-5-3T6:5:13Z</time></trkpt>
<trkpt lat="47.32989759184420108795166015625" lon="7.24102112464606761932373046875"><ele></ele><time>2017-5-3T6:5:16Z</time></trkpt>
<trkpt lat="47.32978996820747852325439453125" lon="7.24104492925107479095458984375"><ele></ele><time>2017-5-3T6:5:19Z</time></trkpt>
<trkpt lat="47.32977370731532573699951171875" lon="7.241044007241725921630859375"><ele></ele><time>2017-5-3T6:5:22Z</time></trkpt>
<trkpt lat="47.32957740314304828643798828125" lon="7.24111567251384258270263671875"><ele></ele><time>2017-5-3T6:5:25Z</time></trkpt>
<trkpt lat="47.32932913117110729217529296875" lon="7.241192869842052459716796875"><ele></ele><time>2017-5-3T6:5:28Z</time></trkpt>
<trkpt lat="47.3293069191277027130126953125" lon="7.2412034310400485992431640625"><ele></ele><time>2017-5-3T6:5:31Z</time></trkpt>
<trkpt lat="47.329220585525035858154296875" lon="7.2412468492984771728515625"><ele></ele><time>2017-5-3T6:5:34Z</time></trkpt>
<trkpt lat="47.32913148589432239532470703125" lon="7.24128113128244876861572265625"><ele></ele><time>2017-5-3T6:5:37Z</time></trkpt>
<trkpt lat="47.329022772610187530517578125" lon="7.2413264773786067962646484375"><ele></ele><time>2017-5-3T6:5:40Z</time></trkpt>
<trkpt lat="47.328847087919712066650390625" lon="7.24138959310948848724365234375"><ele></ele><time>2017-5-3T6:5:43Z</time></trkpt>
<trkpt lat="47.328699566423892974853515625" lon="7.24144960753619670867919921875"><ele></ele><time>2017-5-3T6:5:46Z</time></trkpt>
<trkpt lat="47.32859102077782154083251953125" lon="7.24149227142333984375"><ele></ele><time>2017-5-3T6:5:49Z</time></trkpt>
<trkpt lat="47.3284885101020336151123046875" lon="7.24153644405305385589599609375"><ele></ele><time>2017-5-3T6:5:52Z</time></trkpt>
<trkpt lat="47.32838281430304050445556640625" lon="7.24158220924437046051025390625"><ele></ele><time>2017-5-3T6:5:55Z</time></trkpt>
<trkpt lat="47.328177876770496368408203125" lon="7.24166602827608585357666015625"><ele></ele><time>2017-5-3T6:5:58Z</time></trkpt>
<trkpt lat="47.3281066305935382843017578125" lon="7.24169268272817134857177734375"><ele></ele><time>2017-5-3T6:6:1Z</time></trkpt>
<trkpt lat="47.32793253846466541290283203125" lon="7.24175537936389446258544921875"><ele></ele><time>2017-5-3T6:6:4Z</time></trkpt>
<trkpt lat="47.327654846012592315673828125" lon="7.241827212274074554443359375"><ele></ele><time>2017-5-3T6:6:7Z</time></trkpt>
<trkpt lat="47.3275973461568355560302734375" lon="7.2418283857405185699462890625"><ele></ele><time>2017-5-3T6:6:10Z</time></trkpt>
<trkpt lat="47.3273525945842266082763671875" lon="7.24179058335721492767333984375"><ele></ele><time>2017-5-3T6:6:13Z</time></trkpt>
<trkpt lat="47.3272064141929149627685546875" lon="7.2417583130300045013427734375"><ele></ele><time>2017-5-3T6:6:16Z</time></trkpt>
<trkpt lat="47.3271167278289794921875" lon="7.24174615927040576934814453125"><ele></ele><time>2017-5-3T6:6:19Z</time></trkpt>
<trkpt lat="47.32698328793048858642578125" lon="7.24172495305538177490234375"><ele></ele><time>2017-5-3T6:6:22Z</time></trkpt>
<trkpt lat="47.326901145279407501220703125" lon="7.241728305816650390625"><ele></ele><time>2017-5-3T6:6:25Z</time></trkpt>
<trkpt lat="47.3268158175051212310791015625" lon="7.24172721616923809051513671875"><ele></ele><time>2017-5-3T6:6:28Z</time></trkpt>
<trkpt lat="47.3267237842082977294921875" lon="7.24170827306807041168212890625"><ele></ele><time>2017-5-3T6:6:31Z</time></trkpt>
<trkpt lat="47.3266213573515415191650390625" lon="7.2416969574987888336181640625"><ele></ele><time>2017-5-3T6:6:34Z</time></trkpt>
<trkpt lat="47.32651180587708950042724609375" lon="7.24167742766439914703369140625"><ele></ele><time>2017-5-3T6:6:37Z</time></trkpt>
<trkpt lat="47.32647358439862728118896484375" lon="7.2416754998266696929931640625"><ele></ele><time>2017-5-3T6:6:40Z</time></trkpt>
<trkpt lat="47.326378114521503448486328125" lon="7.24166451953351497650146484375"><ele></ele><time>2017-5-3T6:6:43Z</time></trkpt>
<trkpt lat="47.32626370154321193695068359375" lon="7.241650857031345367431640625"><ele></ele><time>2017-5-3T6:6:46Z</time></trkpt>
<trkpt lat="47.32617267407476902008056640625" lon="7.24163685925304889678955078125"><ele></ele><time>2017-5-3T6:6:49Z</time></trkpt>
<trkpt lat="47.326061613857746124267578125" lon="7.2416228614747524261474609375"><ele></ele><time>2017-5-3T6:6:52Z</time></trkpt>
<trkpt lat="47.32596580870449542999267578125" lon="7.2416208498179912567138671875"><ele></ele><time>2017-5-3T6:6:55Z</time></trkpt>
<trkpt lat="47.32585382647812366485595703125" lon="7.241609282791614532470703125"><ele></ele><time>2017-5-3T6:6:58Z</time></trkpt>
<trkpt lat="47.3257459513843059539794921875" lon="7.2415977157652378082275390625"><ele></ele><time>2017-5-3T6:7:1Z</time></trkpt>
<trkpt lat="47.32563958503305912017822265625" lon="7.2415759228169918060302734375"><ele></ele><time>2017-5-3T6:7:4Z</time></trkpt>
<trkpt lat="47.3255125992000102996826171875" lon="7.24155865609645843505859375"><ele></ele><time>2017-5-3T6:7:7Z</time></trkpt>
<trkpt lat="47.32542517594993114471435546875" lon="7.24154935218393802642822265625"><ele></ele><time>2017-5-3T6:7:10Z</time></trkpt>
<trkpt lat="47.32535242103040218353271484375" lon="7.24153962917625904083251953125"><ele></ele><time>2017-5-3T6:7:13Z</time></trkpt>
<trkpt lat="47.32528142631053924560546875" lon="7.24157433025538921356201171875"><ele></ele><time>2017-5-3T6:7:16Z</time></trkpt>
<trkpt lat="47.32517573051154613494873046875" lon="7.2416651062667369842529296875"><ele></ele><time>2017-5-3T6:7:19Z</time></trkpt>
<trkpt lat="47.32510699890553951263427734375" lon="7.2417512722313404083251953125"><ele></ele><time>2017-5-3T6:7:22Z</time></trkpt>
<trkpt lat="47.3250956833362579345703125" lon="7.241764850914478302001953125"><ele></ele><time>2017-5-3T6:7:25Z</time></trkpt>
<trkpt lat="47.32506073080003261566162109375" lon="7.24180315621197223663330078125"><ele></ele><time>2017-5-3T6:7:28Z</time></trkpt>
<trkpt lat="47.324993424117565155029296875" lon="7.241872809827327728271484375"><ele></ele><time>2017-5-3T6:7:31Z</time></trkpt>
<trkpt lat="47.32491320930421352386474609375" lon="7.2419484145939350128173828125"><ele></ele><time>2017-5-3T6:7:34Z</time></trkpt>
<trkpt lat="47.32480223290622234344482421875" lon="7.24204455502331256866455078125"><ele></ele><time>2017-5-3T6:7:37Z</time></trkpt>
<trkpt lat="47.32468304224312305450439453125" lon="7.24207053892314434051513671875"><ele></ele><time>2017-5-3T6:7:40Z</time></trkpt>
<trkpt lat="47.32458413578569889068603515625" lon="7.24207908846437931060791015625"><ele></ele><time>2017-5-3T6:7:43Z</time></trkpt>
<trkpt lat="47.32449344359338283538818359375" lon="7.242074310779571533203125"><ele></ele><time>2017-5-3T6:7:46Z</time></trkpt>
<trkpt lat="47.32441213913261890411376953125" lon="7.24209107458591461181640625"><ele></ele><time>2017-5-3T6:7:49Z</time></trkpt>
<trkpt lat="47.32432127930223941802978515625" lon="7.24209643900394439697265625"><ele></ele><time>2017-5-3T6:7:52Z</time></trkpt>
<trkpt lat="47.3242066986858844757080078125" lon="7.24217363633215427398681640625"><ele></ele><time>2017-5-3T6:7:55Z</time></trkpt>
<trkpt lat="47.324101924896240234375" lon="7.2422499954700469970703125"><ele></ele><time>2017-5-3T6:7:58Z</time></trkpt>
<trkpt lat="47.32399203814566135406494140625" lon="7.24230070598423480987548828125"><ele></ele><time>2017-5-3T6:8:1Z</time></trkpt>
<trkpt lat="47.32389564625918865203857421875" lon="7.24234261550009250640869140625"><ele></ele><time>2017-5-3T6:8:4Z</time></trkpt>
<trkpt lat="47.32382440008223056793212890625" lon="7.2423779033124446868896484375"><ele></ele><time>2017-5-3T6:8:7Z</time></trkpt>
<trkpt lat="47.323744855821132659912109375" lon="7.24241671152412891387939453125"><ele></ele><time>2017-5-3T6:8:10Z</time></trkpt>
<trkpt lat="47.32364955358207225799560546875" lon="7.24247354082763195037841796875"><ele></ele><time>2017-5-3T6:8:13Z</time></trkpt>
<trkpt lat="47.323545701801776885986328125" lon="7.24248527549207210540771484375"><ele></ele><time>2017-5-3T6:8:16Z</time></trkpt>
<trkpt lat="47.323423326015472412109375" lon="7.2425012849271297454833984375"><ele></ele><time>2017-5-3T6:8:19Z</time></trkpt>
<trkpt lat="47.32335283420979976654052734375" lon="7.2425012849271297454833984375"><ele></ele><time>2017-5-3T6:8:22Z</time></trkpt>
<trkpt lat="47.32328259386122226715087890625" lon="7.242500782012939453125"><ele></ele><time>2017-5-3T6:8:25Z</time></trkpt>
<trkpt lat="47.32325158081948757171630859375" lon="7.2424945794045925140380859375"><ele></ele><time>2017-5-3T6:8:28Z</time></trkpt>
<trkpt lat="47.32318385504186153411865234375" lon="7.24248242564499378204345703125"><ele></ele><time>2017-5-3T6:8:31Z</time></trkpt>
<trkpt lat="47.323092408478260040283203125" lon="7.242460213601589202880859375"><ele></ele><time>2017-5-3T6:8:34Z</time></trkpt>
<trkpt lat="47.32305594719946384429931640625" lon="7.24245325662195682525634765625"><ele></ele><time>2017-5-3T6:8:37Z</time></trkpt>
<trkpt lat="47.32298947870731353759765625" lon="7.2424416057765483856201171875"><ele></ele><time>2017-5-3T6:8:40Z</time></trkpt>
<trkpt lat="47.322878502309322357177734375" lon="7.24241285584867000579833984375"><ele></ele><time>2017-5-3T6:8:43Z</time></trkpt>
<trkpt lat="47.32281471602618694305419921875" lon="7.242387793958187103271484375"><ele></ele><time>2017-5-3T6:8:46Z</time></trkpt>
<trkpt lat="47.32274414040148258209228515625" lon="7.24238720722496509552001953125"><ele></ele><time>2017-5-3T6:8:49Z</time></trkpt>
<trkpt lat="47.322732992470264434814453125" lon="7.24239491857588291168212890625"><ele></ele><time>2017-5-3T6:8:52Z</time></trkpt>
<trkpt lat="47.322714217007160186767578125" lon="7.242420651018619537353515625"><ele></ele><time>2017-5-3T6:8:55Z</time></trkpt>
<trkpt lat="47.32269586063921451568603515625" lon="7.24245141260325908660888671875"><ele></ele><time>2017-5-3T6:8:58Z</time></trkpt>
<trkpt lat="47.32265411876142024993896484375" lon="7.2425643168389797210693359375"><ele></ele><time>2017-5-3T6:9:1Z</time></trkpt>
<trkpt lat="47.3226433061063289642333984375" lon="7.24274109117686748504638671875"><ele></ele><time>2017-5-3T6:9:4Z</time></trkpt>
<trkpt lat="47.32264020480215549468994140625" lon="7.24276908673346042633056640625"><ele></ele><time>2017-5-3T6:9:7Z</time></trkpt>
<trkpt lat="47.32266048900783061981201171875" lon="7.2429441846907138824462890625"><ele></ele><time>2017-5-3T6:9:10Z</time></trkpt>
<trkpt lat="47.3226882331073284149169921875" lon="7.2430565021932125091552734375"><ele></ele><time>2017-5-3T6:9:13Z</time></trkpt>
<trkpt lat="47.32271832413971424102783203125" lon="7.2431755252182483673095703125"><ele></ele><time>2017-5-3T6:9:16Z</time></trkpt>
<trkpt lat="47.32274699024856090545654296875" lon="7.2433067858219146728515625"><ele></ele><time>2017-5-3T6:9:19Z</time></trkpt>
<trkpt lat="47.32278755865991115570068359375" lon="7.24339722655713558197021484375"><ele></ele><time>2017-5-3T6:9:22Z</time></trkpt>
<trkpt lat="47.3228002153337001800537109375" lon="7.243462689220905303955078125"><ele></ele><time>2017-5-3T6:9:25Z</time></trkpt>
<trkpt lat="47.32280482538044452667236328125" lon="7.2435094602406024932861328125"><ele></ele><time>2017-5-3T6:9:28Z</time></trkpt>
<trkpt lat="47.322821505367755889892578125" lon="7.243581376969814300537109375"><ele></ele><time>2017-5-3T6:9:31Z</time></trkpt>
<trkpt lat="47.32285293750464916229248046875" lon="7.24361591041088104248046875"><ele></ele><time>2017-5-3T6:9:34Z</time></trkpt>
<trkpt lat="47.3229085095226764678955078125" lon="7.243747673928737640380859375"><ele></ele><time>2017-5-3T6:9:37Z</time></trkpt>
<trkpt lat="47.32290976680815219879150390625" lon="7.24376016296446323394775390625"><ele></ele><time>2017-5-3T6:9:40Z</time></trkpt>
<trkpt lat="47.32294279150664806365966796875" lon="7.24384448491036891937255859375"><ele></ele><time>2017-5-3T6:9:43Z</time></trkpt>
<trkpt lat="47.3229748941957950592041015625" lon="7.24392436444759368896484375"><ele></ele><time>2017-5-3T6:9:46Z</time></trkpt>
<trkpt lat="47.3229842819273471832275390625" lon="7.24396384321153163909912109375"><ele></ele><time>2017-5-3T6:9:49Z</time></trkpt>
<trkpt lat="47.32298436574637889862060546875" lon="7.24397926591336727142333984375"><ele></ele><time>2017-5-3T6:9:52Z</time></trkpt>
<trkpt lat="47.32298101298511028289794921875" lon="7.24404581822454929351806640625"><ele></ele><time>2017-5-3T6:9:55Z</time></trkpt>
<trkpt lat="47.32298302464187145233154296875" lon="7.244058810174465179443359375"><ele></ele><time>2017-5-3T6:9:58Z</time></trkpt>
<trkpt lat="47.32299241237342357635498046875" lon="7.2441065870225429534912109375"><ele></ele><time>2017-5-3T6:10:1Z</time></trkpt>
<trkpt lat="47.32300247065722942352294921875" lon="7.2441515140235424041748046875"><ele></ele><time>2017-5-3T6:10:4Z</time></trkpt>
<trkpt lat="47.32301018200814723968505859375" lon="7.24417238496243953704833984375"><ele></ele><time>2017-5-3T6:10:7Z</time></trkpt>
<trkpt lat="47.32303650118410587310791015625" lon="7.2442645020782947540283203125"><ele></ele><time>2017-5-3T6:10:10Z</time></trkpt>
<trkpt lat="47.32310079038143157958984375" lon="7.2444113530218601226806640625"><ele></ele><time>2017-5-3T6:10:13Z</time></trkpt>
<trkpt lat="47.32312635518610477447509765625" lon="7.24451369605958461761474609375"><ele></ele><time>2017-5-3T6:10:16Z</time></trkpt>
<trkpt lat="47.3231532610952854156494140625" lon="7.24461729638278484344482421875"><ele></ele><time>2017-5-3T6:10:19Z</time></trkpt>
<trkpt lat="47.323181591928005218505859375" lon="7.24472626112401485443115234375"><ele></ele><time>2017-5-3T6:10:22Z</time></trkpt>
<trkpt lat="47.3232012055814266204833984375" lon="7.24479046650230884552001953125"><ele></ele><time>2017-5-3T6:10:25Z</time></trkpt>
<trkpt lat="47.32321838848292827606201171875" lon="7.24484930746257305145263671875"><ele></ele><time>2017-5-3T6:10:28Z</time></trkpt>
<trkpt lat="47.32325962744653224945068359375" lon="7.24494016729295253753662109375"><ele></ele><time>2017-5-3T6:10:31Z</time></trkpt>
<trkpt lat="47.32335249893367290496826171875" lon="7.2450433485209941864013671875"><ele></ele><time>2017-5-3T6:10:34Z</time></trkpt>
<trkpt lat="47.323431037366390228271484375" lon="7.245126999914646148681640625"><ele></ele><time>2017-5-3T6:10:37Z</time></trkpt>
<trkpt lat="47.32350588776171207427978515625" lon="7.2452099807560443878173828125"><ele></ele><time>2017-5-3T6:10:40Z</time></trkpt>
<trkpt lat="47.323579229414463043212890625" lon="7.24529069848358631134033203125"><ele></ele><time>2017-5-3T6:10:43Z</time></trkpt>
<trkpt lat="47.323658354580402374267578125" lon="7.2453652136027812957763671875"><ele></ele><time>2017-5-3T6:10:46Z</time></trkpt>
<trkpt lat="47.32374242506921291351318359375" lon="7.2454362921416759490966796875"><ele></ele><time>2017-5-3T6:10:49Z</time></trkpt>
<trkpt lat="47.323813922703266143798828125" lon="7.2454758547246456146240234375"><ele></ele><time>2017-5-3T6:10:52Z</time></trkpt>
<trkpt lat="47.3238318599760532379150390625" lon="7.24548415280878543853759765625"><ele></ele><time>2017-5-3T6:10:55Z</time></trkpt>
<trkpt lat="47.3239304311573505401611328125" lon="7.24551449529826641082763671875"><ele></ele><time>2017-5-3T6:10:58Z</time></trkpt>
<trkpt lat="47.3240031860768795013427734375" lon="7.2455398924648761749267578125"><ele></ele><time>2017-5-3T6:11:1Z</time></trkpt>
<trkpt lat="47.3240970633924007415771484375" lon="7.2455586679279804229736328125"><ele></ele><time>2017-5-3T6:11:4Z</time></trkpt>
<trkpt lat="47.32418431900441646575927734375" lon="7.24560904316604137420654296875"><ele></ele><time>2017-5-3T6:11:7Z</time></trkpt>
<trkpt lat="47.3242372088134288787841796875" lon="7.24567961879074573516845703125"><ele></ele><time>2017-5-3T6:11:10Z</time></trkpt>
<trkpt lat="47.3242814652621746063232421875" lon="7.245800904929637908935546875"><ele></ele><time>2017-5-3T6:11:13Z</time></trkpt>
<trkpt lat="47.32427962124347686767578125" lon="7.24601523019373416900634765625"><ele></ele><time>2017-5-3T6:11:16Z</time></trkpt>
<trkpt lat="47.324237711727619171142578125" lon="7.2461604885756969451904296875"><ele></ele><time>2017-5-3T6:11:19Z</time></trkpt>
<trkpt lat="47.3241956345736980438232421875" lon="7.2462734766304492950439453125"><ele></ele><time>2017-5-3T6:11:22Z</time></trkpt>
<trkpt lat="47.324122376739978790283203125" lon="7.246453352272510528564453125"><ele></ele><time>2017-5-3T6:11:25Z</time></trkpt>
<trkpt lat="47.32406412251293659210205078125" lon="7.24661235697567462921142578125"><ele></ele><time>2017-5-3T6:11:28Z</time></trkpt>
<trkpt lat="47.3240038566291332244873046875" lon="7.246779911220073699951171875"><ele></ele><time>2017-5-3T6:11:31Z</time></trkpt>
<trkpt lat="47.3239528946578502655029296875" lon="7.24694989621639251708984375"><ele></ele><time>2017-5-3T6:11:34Z</time></trkpt>
<trkpt lat="47.32395616360008716583251953125" lon="7.24713522009551525115966796875"><ele></ele><time>2017-5-3T6:11:37Z</time></trkpt>
<trkpt lat="47.3239569179713726043701171875" lon="7.24724669940769672393798828125"><ele></ele><time>2017-5-3T6:11:40Z</time></trkpt>
<trkpt lat="47.3239589296281337738037109375" lon="7.24726949818432331085205078125"><ele></ele><time>2017-5-3T6:11:43Z</time></trkpt>
<trkpt lat="47.32396421022713184356689453125" lon="7.247388102114200592041015625"><ele></ele><time>2017-5-3T6:11:46Z</time></trkpt>
<trkpt lat="47.32398231513798236846923828125" lon="7.24748105742037296295166015625"><ele></ele><time>2017-5-3T6:11:49Z</time></trkpt>
<trkpt lat="47.32399321161210536956787109375" lon="7.24752782844007015228271484375"><ele></ele><time>2017-5-3T6:11:52Z</time></trkpt>
<trkpt lat="47.3240362107753753662109375" lon="7.247688509523868560791015625"><ele></ele><time>2017-5-3T6:11:55Z</time></trkpt>
<trkpt lat="47.32407954521477222442626953125" lon="7.24784441292285919189453125"><ele></ele><time>2017-5-3T6:11:58Z</time></trkpt>
<trkpt lat="47.32410661876201629638671875" lon="7.247952707111835479736328125"><ele></ele><time>2017-5-3T6:12:1Z</time></trkpt>
<trkpt lat="47.3241077922284603118896484375" lon="7.24797424860298633575439453125"><ele></ele><time>2017-5-3T6:12:4Z</time></trkpt>
<trkpt lat="47.3241386376321315765380859375" lon="7.24813275039196014404296875"><ele></ele><time>2017-5-3T6:12:7Z</time></trkpt>
<trkpt lat="47.3241694830358028411865234375" lon="7.24821598269045352935791015625"><ele></ele><time>2017-5-3T6:12:10Z</time></trkpt>
<trkpt lat="47.3241890966892242431640625" lon="7.2482616640627384185791015625"><ele></ele><time>2017-5-3T6:12:13Z</time></trkpt>
<trkpt lat="47.32419907115399837493896484375" lon="7.24831203930079936981201171875"><ele></ele><time>2017-5-3T6:12:16Z</time></trkpt>
<trkpt lat="47.3242311738431453704833984375" lon="7.24841211922466754913330078125"><ele></ele><time>2017-5-3T6:12:19Z</time></trkpt>
<trkpt lat="47.324243076145648956298828125" lon="7.2484588064253330230712890625"><ele></ele><time>2017-5-3T6:12:22Z</time></trkpt>
<trkpt lat="47.324262522161006927490234375" lon="7.2485513426363468170166015625"><ele></ele><time>2017-5-3T6:12:25Z</time></trkpt>
<trkpt lat="47.3242891766130924224853515625" lon="7.2486582957208156585693359375"><ele></ele><time>2017-5-3T6:12:28Z</time></trkpt>
<trkpt lat="47.324292026460170745849609375" lon="7.24868520162999629974365234375"><ele></ele><time>2017-5-3T6:12:31Z</time></trkpt>
<trkpt lat="47.32429646886885166168212890625" lon="7.2487127780914306640625"><ele></ele><time>2017-5-3T6:12:34Z</time></trkpt>
<trkpt lat="47.32430954463779926300048828125" lon="7.2488229162991046905517578125"><ele></ele><time>2017-5-3T6:12:37Z</time></trkpt>
<trkpt lat="47.3243044316768646240234375" lon="7.2489241696894168853759765625"><ele></ele><time>2017-5-3T6:12:40Z</time></trkpt>
<trkpt lat="47.32431574724614620208740234375" lon="7.2490059770643711090087890625"><ele></ele><time>2017-5-3T6:12:43Z</time></trkpt>
<trkpt lat="47.32433469034731388092041015625" lon="7.2491571865975856781005859375"><ele></ele><time>2017-5-3T6:12:46Z</time></trkpt>
<trkpt lat="47.32434533536434173583984375" lon="7.24932239390909671783447265625"><ele></ele><time>2017-5-3T6:12:49Z</time></trkpt>
<trkpt lat="47.3243421502411365509033203125" lon="7.2494599409401416778564453125"><ele></ele><time>2017-5-3T6:12:52Z</time></trkpt>
<trkpt lat="47.324345670640468597412109375" lon="7.249627411365509033203125"><ele></ele><time>2017-5-3T6:12:55Z</time></trkpt>
<trkpt lat="47.324349693953990936279296875" lon="7.2497787885367870330810546875"><ele></ele><time>2017-5-3T6:12:58Z</time></trkpt>
<trkpt lat="47.324355728924274444580078125" lon="7.24994030781090259552001953125"><ele></ele><time>2017-5-3T6:13:1Z</time></trkpt>
<trkpt lat="47.32435966841876506805419921875" lon="7.25009721703827381134033203125"><ele></ele><time>2017-5-3T6:13:4Z</time></trkpt>
<trkpt lat="47.3243848979473114013671875" lon="7.250264100730419158935546875"><ele></ele><time>2017-5-3T6:13:7Z</time></trkpt>
<trkpt lat="47.3243983089923858642578125" lon="7.2504079341888427734375"><ele></ele><time>2017-5-3T6:13:10Z</time></trkpt>
<trkpt lat="47.324407361447811126708984375" lon="7.25058403797447681427001953125"><ele></ele><time>2017-5-3T6:13:13Z</time></trkpt>
<trkpt lat="47.32442789711058139801025390625" lon="7.25074119865894317626953125"><ele></ele><time>2017-5-3T6:13:16Z</time></trkpt>
<trkpt lat="47.32444684021174907684326171875" lon="7.25086885504424571990966796875"><ele></ele><time>2017-5-3T6:13:19Z</time></trkpt>
<trkpt lat="47.32447667978703975677490234375" lon="7.25100296549499034881591796875"><ele></ele><time>2017-5-3T6:13:22Z</time></trkpt>
<trkpt lat="47.32450769282877445220947265625" lon="7.25115937180817127227783203125"><ele></ele><time>2017-5-3T6:13:25Z</time></trkpt>
<trkpt lat="47.32452495954930782318115234375" lon="7.25129130296409130096435546875"><ele></ele><time>2017-5-3T6:13:28Z</time></trkpt>
<trkpt lat="47.324528396129608154296875" lon="7.25145793519914150238037109375"><ele></ele><time>2017-5-3T6:13:31Z</time></trkpt>
<trkpt lat="47.32453283853828907012939453125" lon="7.25164870731532573699951171875"><ele></ele><time>2017-5-3T6:13:34Z</time></trkpt>
<trkpt lat="47.32452772557735443115234375" lon="7.25170545279979705810546875"><ele></ele><time>2017-5-3T6:13:37Z</time></trkpt>
<trkpt lat="47.3245024122297763824462890625" lon="7.2517476975917816162109375"><ele></ele><time>2017-5-3T6:13:40Z</time></trkpt>
<trkpt lat="47.32448522932827472686767578125" lon="7.25177074782550334930419921875"><ele></ele><time>2017-5-3T6:13:43Z</time></trkpt>
<trkpt lat="47.3244734108448028564453125" lon="7.2517812252044677734375"><ele></ele><time>2017-5-3T6:13:46Z</time></trkpt>
<trkpt lat="47.324438877403736114501953125" lon="7.25179388187825679779052734375"><ele></ele><time>2017-5-3T6:13:49Z</time></trkpt>
<trkpt lat="47.3243364505469799041748046875" lon="7.251770161092281341552734375"><ele></ele><time>2017-5-3T6:13:52Z</time></trkpt>
<trkpt lat="47.32431658543646335601806640625" lon="7.251752726733684539794921875"><ele></ele><time>2017-5-3T6:13:55Z</time></trkpt>
<trkpt lat="47.32426126487553119659423828125" lon="7.251699082553386688232421875"><ele></ele><time>2017-5-3T6:13:58Z</time></trkpt>
<trkpt lat="47.3241862468421459197998046875" lon="7.25161023437976837158203125"><ele></ele><time>2017-5-3T6:14:1Z</time></trkpt>
<trkpt lat="47.32410217635333538055419921875" lon="7.2514642216265201568603515625"><ele></ele><time>2017-5-3T6:14:4Z</time></trkpt>
<trkpt lat="47.3240088857710361480712890625" lon="7.2512917220592498779296875"><ele></ele><time>2017-5-3T6:14:7Z</time></trkpt>
<trkpt lat="47.3239036090672016143798828125" lon="7.2511041350662708282470703125"><ele></ele><time>2017-5-3T6:14:10Z</time></trkpt>
<trkpt lat="47.323875613510608673095703125" lon="7.2510530054569244384765625"><ele></ele><time>2017-5-3T6:14:13Z</time></trkpt>
<trkpt lat="47.32378383167088031768798828125" lon="7.250856198370456695556640625"><ele></ele><time>2017-5-3T6:14:16Z</time></trkpt>
<trkpt lat="47.323773689568042755126953125" lon="7.25083465687930583953857421875"><ele></ele><time>2017-5-3T6:14:19Z</time></trkpt>
<trkpt lat="47.323716022074222564697265625" lon="7.25071932189166545867919921875"><ele></ele><time>2017-5-3T6:14:22Z</time></trkpt>
<trkpt lat="47.3236873559653759002685546875" lon="7.25067037157714366912841796875"><ele></ele><time>2017-5-3T6:14:25Z</time></trkpt>
<trkpt lat="47.32361434958875179290771484375" lon="7.25057347677648067474365234375"><ele></ele><time>2017-5-3T6:14:28Z</time></trkpt>
<trkpt lat="47.32350404374301433563232421875" lon="7.25044841878116130828857421875"><ele></ele><time>2017-5-3T6:14:31Z</time></trkpt>
<trkpt lat="47.323395498096942901611328125" lon="7.25027776323258876800537109375"><ele></ele><time>2017-5-3T6:14:34Z</time></trkpt>
<trkpt lat="47.32331360690295696258544921875" lon="7.250123955309391021728515625"><ele></ele><time>2017-5-3T6:14:37Z</time></trkpt>
<trkpt lat="47.32324738986790180206298828125" lon="7.2499506175518035888671875"><ele></ele><time>2017-5-3T6:14:40Z</time></trkpt>
<trkpt lat="47.32318704016506671905517578125" lon="7.2497834824025630950927734375"><ele></ele><time>2017-5-3T6:14:43Z</time></trkpt>
<trkpt lat="47.32314026914536952972412109375" lon="7.24964124150574207305908203125"><ele></ele><time>2017-5-3T6:14:46Z</time></trkpt>
<trkpt lat="47.3230711184442043304443359375" lon="7.2494515590369701385498046875"><ele></ele><time>2017-5-3T6:14:49Z</time></trkpt>
<trkpt lat="47.3229903168976306915283203125" lon="7.24926891736686229705810546875"><ele></ele><time>2017-5-3T6:14:52Z</time></trkpt>
<trkpt lat="47.3229581303894519805908203125" lon="7.2491967491805553436279296875"><ele></ele><time>2017-5-3T6:14:55Z</time></trkpt>
<trkpt lat="47.322922758758068084716796875" lon="7.24912382662296295166015625"><ele></ele><time>2017-5-3T6:14:58Z</time></trkpt>
<trkpt lat="47.32290809042751789093017578125" lon="7.249098010361194610595703125"><ele></ele><time>2017-5-3T6:15:1Z</time></trkpt>
<trkpt lat="47.32282008044421672821044921875" lon="7.248898185789585113525390625"><ele></ele><time>2017-5-3T6:15:4Z</time></trkpt>
<trkpt lat="47.3227402009069919586181640625" lon="7.24870230071246623992919921875"><ele></ele><time>2017-5-3T6:15:7Z</time></trkpt>
<trkpt lat="47.322678677737712860107421875" lon="7.248552851378917694091796875"><ele></ele><time>2017-5-3T6:15:10Z</time></trkpt>
<trkpt lat="47.3226630873978137969970703125" lon="7.248496524989604949951171875"><ele></ele><time>2017-5-3T6:15:13Z</time></trkpt>
<trkpt lat="47.32261254452168941497802734375" lon="7.248388566076755523681640625"><ele></ele><time>2017-5-3T6:15:16Z</time></trkpt>
<trkpt lat="47.32256426475942134857177734375" lon="7.24828605540096759796142578125"><ele></ele><time>2017-5-3T6:15:19Z</time></trkpt>
<trkpt lat="47.322469465434551239013671875" lon="7.24807181395590305328369140625"><ele></ele><time>2017-5-3T6:15:22Z</time></trkpt>
<trkpt lat="47.322400398552417755126953125" lon="7.2478807903826236724853515625"><ele></ele><time>2017-5-3T6:15:25Z</time></trkpt>
<trkpt lat="47.32231750153005123138427734375" lon="7.2476789541542530059814453125"><ele></ele><time>2017-5-3T6:15:28Z</time></trkpt>
<trkpt lat="47.3222101293504238128662109375" lon="7.24745624698698520660400390625"><ele></ele><time>2017-5-3T6:15:31Z</time></trkpt>
<trkpt lat="47.32214181683957576751708984375" lon="7.2473128326237201690673828125"><ele></ele><time>2017-5-3T6:15:34Z</time></trkpt>
<trkpt lat="47.32200519181787967681884765625" lon="7.24703882820904254913330078125"><ele></ele><time>2017-5-3T6:15:37Z</time></trkpt>
<trkpt lat="47.32188231311738491058349609375" lon="7.24682249128818511962890625"><ele></ele><time>2017-5-3T6:15:40Z</time></trkpt>
<trkpt lat="47.32178206555545330047607421875" lon="7.2466235049068927764892578125"><ele></ele><time>2017-5-3T6:15:43Z</time></trkpt>
<trkpt lat="47.32166237197816371917724609375" lon="7.24641747772693634033203125"><ele></ele><time>2017-5-3T6:15:46Z</time></trkpt>
<trkpt lat="47.32145433314144611358642578125" lon="7.24629015661776065826416015625"><ele></ele><time>2017-5-3T6:15:49Z</time></trkpt>
<trkpt lat="47.321261130273342132568359375" lon="7.24640716798603534698486328125"><ele></ele><time>2017-5-3T6:15:52Z</time></trkpt>
<trkpt lat="47.3212183825671672821044921875" lon="7.24653415381908416748046875"><ele></ele><time>2017-5-3T6:15:55Z</time></trkpt>
<trkpt lat="47.32119181193411350250244140625" lon="7.24666734226047992706298828125"><ele></ele><time>2017-5-3T6:15:58Z</time></trkpt>
<trkpt lat="47.3211984336376190185546875" lon="7.24739891476929187774658203125"><ele></ele><time>2017-5-3T6:16:1Z</time></trkpt>
<trkpt lat="47.3212520778179168701171875" lon="7.24803308956325054168701171875"><ele></ele><time>2017-5-3T6:16:4Z</time></trkpt>
<trkpt lat="47.3212327994406223297119140625" lon="7.24849660880863666534423828125"><ele></ele><time>2017-5-3T6:16:7Z</time></trkpt>
<trkpt lat="47.3211608827114105224609375" lon="7.24879047833383083343505859375"><ele></ele><time>2017-5-3T6:16:10Z</time></trkpt>
<trkpt lat="47.32093784026801586151123046875" lon="7.249171100556850433349609375"><ele></ele><time>2017-5-3T6:16:13Z</time></trkpt>
<trkpt lat="47.320815213024616241455078125" lon="7.2494042851030826568603515625"><ele></ele><time>2017-5-3T6:16:16Z</time></trkpt>
<trkpt lat="47.3207090981304645538330078125" lon="7.24971684627234935760498046875"><ele></ele><time>2017-5-3T6:16:19Z</time></trkpt>
<trkpt lat="47.32055663131177425384521484375" lon="7.249778620898723602294921875"><ele></ele><time>2017-5-3T6:16:22Z</time></trkpt>
<trkpt lat="47.3204066790640354156494140625" lon="7.2497147507965564727783203125"><ele></ele><time>2017-5-3T6:16:25Z</time></trkpt>
<trkpt lat="47.3203490115702152252197265625" lon="7.24967896007001399993896484375"><ele></ele><time>2017-5-3T6:16:28Z</time></trkpt>
<trkpt lat="47.32027449645102024078369140625" lon="7.24960922263562679290771484375"><ele></ele><time>2017-5-3T6:16:31Z</time></trkpt>
<trkpt lat="47.32016519643366336822509765625" lon="7.24948324263095855712890625"><ele></ele><time>2017-5-3T6:16:34Z</time></trkpt>
<trkpt lat="47.3200968839228153228759765625" lon="7.249374948441982269287109375"><ele></ele><time>2017-5-3T6:16:37Z</time></trkpt>
<trkpt lat="47.32006612233817577362060546875" lon="7.24931116215884685516357421875"><ele></ele><time>2017-5-3T6:16:40Z</time></trkpt>
<trkpt lat="47.320048101246356964111328125" lon="7.24925667978823184967041015625"><ele></ele><time>2017-5-3T6:16:43Z</time></trkpt>
<trkpt lat="47.32000392861664295196533203125" lon="7.24912692792713642120361328125"><ele></ele><time>2017-5-3T6:16:46Z</time></trkpt>
<trkpt lat="47.3199959658086299896240234375" lon="7.24910748191177845001220703125"><ele></ele><time>2017-5-3T6:16:49Z</time></trkpt>
<trkpt lat="47.31995447538793087005615234375" lon="7.24901117384433746337890625"><ele></ele><time>2017-5-3T6:16:52Z</time></trkpt>
<trkpt lat="47.31993704102933406829833984375" lon="7.248962558805942535400390625"><ele></ele><time>2017-5-3T6:16:55Z</time></trkpt>
<trkpt lat="47.31991893611848354339599609375" lon="7.24891855381429195404052734375"><ele></ele><time>2017-5-3T6:16:58Z</time></trkpt>
<trkpt lat="47.3198546469211578369140625" lon="7.2487940825521945953369140625"><ele></ele><time>2017-5-3T6:17:1Z</time></trkpt>
<trkpt lat="47.31979035772383213043212890625" lon="7.24863692186772823333740234375"><ele></ele><time>2017-5-3T6:17:4Z</time></trkpt>
<trkpt lat="47.31975699774920940399169921875" lon="7.24846995435655117034912109375"><ele></ele><time>2017-5-3T6:17:7Z</time></trkpt>
<trkpt lat="47.3197146691381931304931640625" lon="7.2483501769602298736572265625"><ele></ele><time>2017-5-3T6:17:10Z</time></trkpt>
<trkpt lat="47.3196677304804325103759765625" lon="7.24820491857826709747314453125"><ele></ele><time>2017-5-3T6:17:13Z</time></trkpt>
<trkpt lat="47.31962339021265506744384765625" lon="7.24805924110114574432373046875"><ele></ele><time>2017-5-3T6:17:16Z</time></trkpt>
<trkpt lat="47.31958583928644657135009765625" lon="7.24792144261300563812255859375"><ele></ele><time>2017-5-3T6:17:19Z</time></trkpt>
<trkpt lat="47.319544851779937744140625" lon="7.247768975794315338134765625"><ele></ele><time>2017-5-3T6:17:22Z</time></trkpt>
<trkpt lat="47.319500930607318878173828125" lon="7.24760728888213634490966796875"><ele></ele><time>2017-5-3T6:17:25Z</time></trkpt>
<trkpt lat="47.3194625414907932281494140625" lon="7.247416935861110687255859375"><ele></ele><time>2017-5-3T6:17:28Z</time></trkpt>
<trkpt lat="47.31945156119763851165771484375" lon="7.24726505577564239501953125"><ele></ele><time>2017-5-3T6:17:31Z</time></trkpt>
<trkpt lat="47.3194420896470546722412109375" lon="7.2471307776868343353271484375"><ele></ele><time>2017-5-3T6:17:34Z</time></trkpt>
<trkpt lat="47.31942708604037761688232421875" lon="7.24703036248683929443359375"><ele></ele><time>2017-5-3T6:17:37Z</time></trkpt>
<trkpt lat="47.31939473189413547515869140625" lon="7.2468987666070461273193359375"><ele></ele><time>2017-5-3T6:17:40Z</time></trkpt>
<trkpt lat="47.3193445242941379547119140625" lon="7.2467854432761669158935546875"><ele></ele><time>2017-5-3T6:17:43Z</time></trkpt>
<trkpt lat="47.31925223954021930694580078125" lon="7.24662593565881252288818359375"><ele></ele><time>2017-5-3T6:17:46Z</time></trkpt>
<trkpt lat="47.3191369883716106414794921875" lon="7.24650305695831775665283203125"><ele></ele><time>2017-5-3T6:17:49Z</time></trkpt>
<trkpt lat="47.31906113214790821075439453125" lon="7.24642376415431499481201171875"><ele></ele><time>2017-5-3T6:17:52Z</time></trkpt>
<trkpt lat="47.318949401378631591796875" lon="7.2463197447359561920166015625"><ele></ele><time>2017-5-3T6:17:55Z</time></trkpt>
<trkpt lat="47.31884890235960483551025390625" lon="7.2462734766304492950439453125"><ele></ele><time>2017-5-3T6:17:58Z</time></trkpt>
<trkpt lat="47.3187547735869884490966796875" lon="7.2462520189583301544189453125"><ele></ele><time>2017-5-3T6:18:1Z</time></trkpt>
<trkpt lat="47.31858369894325733184814453125" lon="7.24621622823178768157958984375"><ele></ele><time>2017-5-3T6:18:4Z</time></trkpt>
<trkpt lat="47.31843668036162853240966796875" lon="7.24613425321877002716064453125"><ele></ele><time>2017-5-3T6:18:7Z</time></trkpt>
<trkpt lat="47.3181593231856822967529296875" lon="7.2457896731793880462646484375"><ele></ele><time>2017-5-3T6:18:10Z</time></trkpt>
<trkpt lat="47.3177677206695079803466796875" lon="7.24524443037807941436767578125"><ele></ele><time>2017-5-3T6:18:13Z</time></trkpt>
<trkpt lat="47.317688763141632080078125" lon="7.2451583482325077056884765625"><ele></ele><time>2017-5-3T6:18:16Z</time></trkpt>
<trkpt lat="47.31771432794630527496337890625" lon="7.24478342570364475250244140625"><ele></ele><time>2017-5-3T6:18:19Z</time></trkpt>
<trkpt lat="47.3177308402955532073974609375" lon="7.244536913931369781494140625"><ele></ele><time>2017-5-3T6:18:22Z</time></trkpt>
<trkpt lat="47.3177261464297771453857421875" lon="7.2443245165050029754638671875"><ele></ele><time>2017-5-3T6:18:25Z</time></trkpt>
<trkpt lat="47.31772639788687229156494140625" lon="7.244250588119029998779296875"><ele></ele><time>2017-5-3T6:18:28Z</time></trkpt>
<trkpt lat="47.31776327826082706451416015625" lon="7.2438038326799869537353515625"><ele></ele><time>2017-5-3T6:18:31Z</time></trkpt>
<trkpt lat="47.317897975444793701171875" lon="7.2434873320162296295166015625"><ele></ele><time>2017-5-3T6:18:34Z</time></trkpt>
<trkpt lat="47.31805094517767429351806640625" lon="7.24306312389671802520751953125"><ele></ele><time>2017-5-3T6:18:37Z</time></trkpt>
<trkpt lat="47.31807022355496883392333984375" lon="7.24264369346201419830322265625"><ele></ele><time>2017-5-3T6:18:40Z</time></trkpt>
<trkpt lat="47.318067289888858795166015625" lon="7.24244110286235809326171875"><ele></ele><time>2017-5-3T6:18:43Z</time></trkpt>
<trkpt lat="47.31807726435363292694091796875" lon="7.24214362911880016326904296875"><ele></ele><time>2017-5-3T6:18:46Z</time></trkpt>
<trkpt lat="47.31805262155830860137939453125" lon="7.24187918007373809814453125"><ele></ele><time>2017-5-3T6:18:49Z</time></trkpt>
<trkpt lat="47.31801666319370269775390625" lon="7.24173157475888729095458984375"><ele></ele><time>2017-5-3T6:18:52Z</time></trkpt>
<trkpt lat="47.31801054440438747406005859375" lon="7.24169804714620113372802734375"><ele></ele><time>2017-5-3T6:18:55Z</time></trkpt>
<trkpt lat="47.31798070482909679412841796875" lon="7.241564355790615081787109375"><ele></ele><time>2017-5-3T6:18:58Z</time></trkpt>
<trkpt lat="47.31795270927250385284423828125" lon="7.24147240631282329559326171875"><ele></ele><time>2017-5-3T6:19:1Z</time></trkpt>
<trkpt lat="47.31790275312960147857666015625" lon="7.24128666333854198455810546875"><ele></ele><time>2017-5-3T6:19:4Z</time></trkpt>
<trkpt lat="47.31786184944212436676025390625" lon="7.24110863171517848968505859375"><ele></ele><time>2017-5-3T6:19:7Z</time></trkpt>
<trkpt lat="47.31781792826950550079345703125" lon="7.24092322401702404022216796875"><ele></ele><time>2017-5-3T6:19:10Z</time></trkpt>
<trkpt lat="47.31779227964580059051513671875" lon="7.24077771417796611785888671875"><ele></ele><time>2017-5-3T6:19:13Z</time></trkpt>
<trkpt lat="47.31772438623011112213134765625" lon="7.24064913578331470489501953125"><ele></ele><time>2017-5-3T6:19:16Z</time></trkpt>
<trkpt lat="47.3177006654441356658935546875" lon="7.24060990847647190093994140625"><ele></ele><time>2017-5-3T6:19:19Z</time></trkpt>
<trkpt lat="47.31768448837101459503173828125" lon="7.24058979190886020660400390625"><ele></ele><time>2017-5-3T6:19:22Z</time></trkpt>
<trkpt lat="47.31758482754230499267578125" lon="7.24046104587614536285400390625"><ele></ele><time>2017-5-3T6:19:25Z</time></trkpt>
<trkpt lat="47.31753294356167316436767578125" lon="7.24038292653858661651611328125"><ele></ele><time>2017-5-3T6:19:28Z</time></trkpt>
<trkpt lat="47.317472510039806365966796875" lon="7.24025703035295009613037109375"><ele></ele><time>2017-5-3T6:19:31Z</time></trkpt>
<trkpt lat="47.3174609430134296417236328125" lon="7.24015577696263790130615234375"><ele></ele><time>2017-5-3T6:19:34Z</time></trkpt>
<trkpt lat="47.31745884753763675689697265625" lon="7.2400564514100551605224609375"><ele></ele><time>2017-5-3T6:19:37Z</time></trkpt>
<trkpt lat="47.3174607753753662109375" lon="7.240025103092193603515625"><ele></ele><time>2017-5-3T6:19:40Z</time></trkpt>
<trkpt lat="47.31747611425817012786865234375" lon="7.2399216704070568084716796875"><ele></ele><time>2017-5-3T6:19:43Z</time></trkpt>
<trkpt lat="47.31749631464481353759765625" lon="7.23979870788753032684326171875"><ele></ele><time>2017-5-3T6:19:46Z</time></trkpt>
<trkpt lat="47.31749120168387889862060546875" lon="7.23967038094997406005859375"><ele></ele><time>2017-5-3T6:19:49Z</time></trkpt>
<trkpt lat="47.31746773235499858856201171875" lon="7.23955211229622364044189453125"><ele></ele><time>2017-5-3T6:19:52Z</time></trkpt>
<trkpt lat="47.31741710565984249114990234375" lon="7.23940995521843433380126953125"><ele></ele><time>2017-5-3T6:19:55Z</time></trkpt>
<trkpt lat="47.3173767887055873870849609375" lon="7.239329405128955841064453125"><ele></ele><time>2017-5-3T6:19:58Z</time></trkpt>
<trkpt lat="47.317313589155673980712890625" lon="7.2391968034207820892333984375"><ele></ele><time>2017-5-3T6:20:1Z</time></trkpt>
<trkpt lat="47.3172748647630214691162109375" lon="7.239084653556346893310546875"><ele></ele><time>2017-5-3T6:20:4Z</time></trkpt>
<trkpt lat="47.31723655946552753448486328125" lon="7.23894744180142879486083984375"><ele></ele><time>2017-5-3T6:20:7Z</time></trkpt>
<trkpt lat="47.31720286421477794647216796875" lon="7.2388263233006000518798828125"><ele></ele><time>2017-5-3T6:20:10Z</time></trkpt>
<trkpt lat="47.31716631911695003509521484375" lon="7.2386952303349971771240234375"><ele></ele><time>2017-5-3T6:20:13Z</time></trkpt>
<trkpt lat="47.31713832356035709381103515625" lon="7.23855500109493732452392578125"><ele></ele><time>2017-5-3T6:20:16Z</time></trkpt>
<trkpt lat="47.31711552478373050689697265625" lon="7.2384146042168140411376953125"><ele></ele><time>2017-5-3T6:20:19Z</time></trkpt>
<trkpt lat="47.317091636359691619873046875" lon="7.238300777971744537353515625"><ele></ele><time>2017-5-3T6:20:22Z</time></trkpt>
<trkpt lat="47.3170428536832332611083984375" lon="7.23813506774604320526123046875"><ele></ele><time>2017-5-3T6:20:25Z</time></trkpt>
<trkpt lat="47.316989712417125701904296875" lon="7.238070778548717498779296875"><ele></ele><time>2017-5-3T6:20:28Z</time></trkpt>
<trkpt lat="47.31692072935402393341064453125" lon="7.23809315823018550872802734375"><ele></ele><time>2017-5-3T6:20:31Z</time></trkpt>
<trkpt lat="47.31688720174133777618408203125" lon="7.23811444826424121856689453125"><ele></ele><time>2017-5-3T6:20:34Z</time></trkpt>
<trkpt lat="47.31680539436638355255126953125" lon="7.2382238321006298065185546875"><ele></ele><time>2017-5-3T6:20:37Z</time></trkpt>
<trkpt lat="47.316736914217472076416015625" lon="7.23834126256406307220458984375"><ele></ele><time>2017-5-3T6:20:40Z</time></trkpt>
<trkpt lat="47.316703386604785919189453125" lon="7.238455004990100860595703125"><ele></ele><time>2017-5-3T6:20:43Z</time></trkpt>
<trkpt lat="47.3166592977941036224365234375" lon="7.2385869361460208892822265625"><ele></ele><time>2017-5-3T6:20:46Z</time></trkpt>
<trkpt lat="47.3166118562221527099609375" lon="7.238710485398769378662109375"><ele></ele><time>2017-5-3T6:20:49Z</time></trkpt>
<trkpt lat="47.31657941825687885284423828125" lon="7.23882271908223628997802734375"><ele></ele><time>2017-5-3T6:20:52Z</time></trkpt>
<trkpt lat="47.31655963696539402008056640625" lon="7.238861359655857086181640625"><ele></ele><time>2017-5-3T6:20:55Z</time></trkpt>
<trkpt lat="47.3165285401046276092529296875" lon="7.23896336741745471954345703125"><ele></ele><time>2017-5-3T6:20:58Z</time></trkpt>
<trkpt lat="47.31649392284452915191650390625" lon="7.2390797920525074005126953125"><ele></ele><time>2017-5-3T6:21:1Z</time></trkpt>
<trkpt lat="47.31647732667624950408935546875" lon="7.23914793692529201507568359375"><ele></ele><time>2017-5-3T6:21:4Z</time></trkpt>
<trkpt lat="47.3164591379463672637939453125" lon="7.23929143510758876800537109375"><ele></ele><time>2017-5-3T6:21:7Z</time></trkpt>
<trkpt lat="47.3164514265954494476318359375" lon="7.23944331519305706024169921875"><ele></ele><time>2017-5-3T6:21:10Z</time></trkpt>
<trkpt lat="47.31644078157842159271240234375" lon="7.23964297212660312652587890625"><ele></ele><time>2017-5-3T6:21:13Z</time></trkpt>
<trkpt lat="47.31642954982817173004150390625" lon="7.23976568318903446197509765625"><ele></ele><time>2017-5-3T6:21:16Z</time></trkpt>
<trkpt lat="47.31641731224954128265380859375" lon="7.23982192575931549072265625"><ele></ele><time>2017-5-3T6:21:19Z</time></trkpt>
<trkpt lat="47.31639099307358264923095703125" lon="7.24000188522040843963623046875"><ele></ele><time>2017-5-3T6:21:22Z</time></trkpt>
<trkpt lat="47.3163635842502117156982421875" lon="7.24016583524644374847412109375"><ele></ele><time>2017-5-3T6:21:25Z</time></trkpt>
<trkpt lat="47.31633625924587249755859375" lon="7.2403276897966861724853515625"><ele></ele><time>2017-5-3T6:21:28Z</time></trkpt>
<trkpt lat="47.316299714148044586181640625" lon="7.240486443042755126953125"><ele></ele><time>2017-5-3T6:21:31Z</time></trkpt>
<trkpt lat="47.316282279789447784423828125" lon="7.240604124963283538818359375"><ele></ele><time>2017-5-3T6:21:34Z</time></trkpt>
<trkpt lat="47.31626451015472412109375" lon="7.240725494921207427978515625"><ele></ele><time>2017-5-3T6:21:37Z</time></trkpt>
<trkpt lat="47.316261827945709228515625" lon="7.24085231311619281768798828125"><ele></ele><time>2017-5-3T6:21:40Z</time></trkpt>
<trkpt lat="47.31624313630163669586181640625" lon="7.241001762449741363525390625"><ele></ele><time>2017-5-3T6:21:43Z</time></trkpt>
<trkpt lat="47.3162234388291835784912109375" lon="7.2411561571061611175537109375"><ele></ele><time>2017-5-3T6:21:46Z</time></trkpt>
<trkpt lat="47.316201142966747283935546875" lon="7.24133796058595180511474609375"><ele></ele><time>2017-5-3T6:21:49Z</time></trkpt>
<trkpt lat="47.31619141995906829833984375" lon="7.24145681597292423248291015625"><ele></ele><time>2017-5-3T6:21:52Z</time></trkpt>
<trkpt lat="47.3161907494068145751953125" lon="7.24159218370914459228515625"><ele></ele><time>2017-5-3T6:21:55Z</time></trkpt>
<trkpt lat="47.31617591343820095062255859375" lon="7.241751439869403839111328125"><ele></ele><time>2017-5-3T6:21:58Z</time></trkpt>
<trkpt lat="47.316167615354061126708984375" lon="7.24190390668809413909912109375"><ele></ele><time>2017-5-3T6:22:1Z</time></trkpt>
<trkpt lat="47.31615386903285980224609375" lon="7.24206718616187572479248046875"><ele></ele><time>2017-5-3T6:22:4Z</time></trkpt>
<trkpt lat="47.31615965254604816436767578125" lon="7.2422256879508495330810546875"><ele></ele><time>2017-5-3T6:22:7Z</time></trkpt>
<trkpt lat="47.316155545413494110107421875" lon="7.24235795438289642333984375"><ele></ele><time>2017-5-3T6:22:10Z</time></trkpt>
<trkpt lat="47.31614649295806884765625" lon="7.2425163723528385162353515625"><ele></ele><time>2017-5-3T6:22:13Z</time></trkpt>
<trkpt lat="47.31615009717643260955810546875" lon="7.24272030405700206756591796875"><ele></ele><time>2017-5-3T6:22:16Z</time></trkpt>
<trkpt lat="47.31617189012467861175537109375" lon="7.242869921028614044189453125"><ele></ele><time>2017-5-3T6:22:19Z</time></trkpt>
<trkpt lat="47.3161506839096546173095703125" lon="7.24322204478085041046142578125"><ele></ele><time>2017-5-3T6:22:22Z</time></trkpt>
<trkpt lat="47.31614339165389537811279296875" lon="7.24339638836681842803955078125"><ele></ele><time>2017-5-3T6:22:25Z</time></trkpt>
<trkpt lat="47.31610952876508235931396484375" lon="7.2439144738018512725830078125"><ele></ele><time>2017-5-3T6:22:28Z</time></trkpt>
<trkpt lat="47.31614925898611545562744140625" lon="7.24422100000083446502685546875"><ele></ele><time>2017-5-3T6:22:31Z</time></trkpt>
<trkpt lat="47.316221930086612701416015625" lon="7.24453062750399112701416015625"><ele></ele><time>2017-5-3T6:22:34Z</time></trkpt>
<trkpt lat="47.31634153984487056732177734375" lon="7.24485986866056919097900390625"><ele></ele><time>2017-5-3T6:22:37Z</time></trkpt>
<trkpt lat="47.31638747267425060272216796875" lon="7.24542950280010700225830078125"><ele></ele><time>2017-5-3T6:22:40Z</time></trkpt>
<trkpt lat="47.31637892313301563262939453125" lon="7.24588380195200443267822265625"><ele></ele><time>2017-5-3T6:22:43Z</time></trkpt>
<trkpt lat="47.31642485596239566802978515625" lon="7.24656893871724605560302734375"><ele></ele><time>2017-5-3T6:22:46Z</time></trkpt>
<trkpt lat="47.31652325950562953948974609375" lon="7.2466023825109004974365234375"><ele></ele><time>2017-5-3T6:22:49Z</time></trkpt>
<trkpt lat="47.31663976795971393585205078125" lon="7.246620990335941314697265625"><ele></ele><time>2017-5-3T6:22:52Z</time></trkpt>
<trkpt lat="47.316744960844516754150390625" lon="7.24663046188652515411376953125"><ele></ele><time>2017-5-3T6:22:55Z</time></trkpt>
<trkpt lat="47.3168410174548625946044921875" lon="7.24663230590522289276123046875"><ele></ele><time>2017-5-3T6:22:58Z</time></trkpt>
<trkpt lat="47.31688904576003551483154296875" lon="7.24665091373026371002197265625"><ele></ele><time>2017-5-3T6:23:1Z</time></trkpt>
<trkpt lat="47.3169471323490142822265625" lon="7.24671612493693828582763671875"><ele></ele><time>2017-5-3T6:23:4Z</time></trkpt>
<trkpt lat="47.3170383274555206298828125" lon="7.24694411270320415496826171875"><ele></ele><time>2017-5-3T6:23:7Z</time></trkpt>
<trkpt lat="47.317137904465198516845703125" lon="7.24719054065644741058349609375"><ele></ele><time>2017-5-3T6:23:10Z</time></trkpt>
<trkpt lat="47.31721158139407634735107421875" lon="7.24753151647746562957763671875"><ele></ele><time>2017-5-3T6:23:13Z</time></trkpt>
<trkpt lat="47.3172232322394847869873046875" lon="7.2476075403392314910888671875"><ele></ele><time>2017-5-3T6:23:16Z</time></trkpt>
<trkpt lat="47.317292131483554840087890625" lon="7.24787651561200618743896484375"><ele></ele><time>2017-5-3T6:23:19Z</time></trkpt>
<trkpt lat="47.317395396530628204345703125" lon="7.248267196118831634521484375"><ele></ele><time>2017-5-3T6:23:22Z</time></trkpt>
<trkpt lat="47.31741626746952533721923828125" lon="7.24836015142500400543212890625"><ele></ele><time>2017-5-3T6:23:25Z</time></trkpt>
<trkpt lat="47.3174862563610076904296875" lon="7.248649410903453826904296875"><ele></ele><time>2017-5-3T6:23:28Z</time></trkpt>
<trkpt lat="47.31759832240641117095947265625" lon="7.2491447813808917999267578125"><ele></ele><time>2017-5-3T6:23:31Z</time></trkpt>
<trkpt lat="47.317686416208744049072265625" lon="7.24966051988303661346435546875"><ele></ele><time>2017-5-3T6:23:34Z</time></trkpt>
<trkpt lat="47.31773369014263153076171875" lon="7.25016293115913867950439453125"><ele></ele><time>2017-5-3T6:23:37Z</time></trkpt>
<trkpt lat="47.31781021691858768463134765625" lon="7.25069534964859485626220703125"><ele></ele><time>2017-5-3T6:23:40Z</time></trkpt>
<trkpt lat="47.317832596600055694580078125" lon="7.25093825720250606536865234375"><ele></ele><time>2017-5-3T6:23:43Z</time></trkpt>
<trkpt lat="47.31792588718235492706298828125" lon="7.25118585862219333648681640625"><ele></ele><time>2017-5-3T6:23:46Z</time></trkpt>
<trkpt lat="47.318141721189022064208984375" lon="7.2517810575664043426513671875"><ele></ele><time>2017-5-3T6:23:49Z</time></trkpt>
<trkpt lat="47.31828429736196994781494140625" lon="7.25212412886321544647216796875"><ele></ele><time>2017-5-3T6:23:52Z</time></trkpt>
<trkpt lat="47.3183926753699779510498046875" lon="7.2526118718087673187255859375"><ele></ele><time>2017-5-3T6:23:55Z</time></trkpt>
<trkpt lat="47.3185355030000209808349609375" lon="7.25323028862476348876953125"><ele></ele><time>2017-5-3T6:23:58Z</time></trkpt>
<trkpt lat="47.3186220042407512664794921875" lon="7.2533665783703327178955078125"><ele></ele><time>2017-5-3T6:24:1Z</time></trkpt>
<trkpt lat="47.3187108524143695831298828125" lon="7.2534916363656520843505859375"><ele></ele><time>2017-5-3T6:24:4Z</time></trkpt>
<trkpt lat="47.3187715373933315277099609375" lon="7.25365131162106990814208984375"><ele></ele><time>2017-5-3T6:24:7Z</time></trkpt>
<trkpt lat="47.31877950020134449005126953125" lon="7.25380302406847476959228515625"><ele></ele><time>2017-5-3T6:24:10Z</time></trkpt>
<trkpt lat="47.3187477327883243560791015625" lon="7.25401659496128559112548828125"><ele></ele><time>2017-5-3T6:24:13Z</time></trkpt>
<trkpt lat="47.3187081702053546905517578125" lon="7.25415556691586971282958984375"><ele></ele><time>2017-5-3T6:24:16Z</time></trkpt>
<trkpt lat="47.31862896122038364410400390625" lon="7.2543264739215373992919921875"><ele></ele><time>2017-5-3T6:24:19Z</time></trkpt>
<trkpt lat="47.31856542639434337615966796875" lon="7.254445664584636688232421875"><ele></ele><time>2017-5-3T6:24:22Z</time></trkpt>
<trkpt lat="47.318503819406032562255859375" lon="7.2545648552477359771728515625"><ele></ele><time>2017-5-3T6:24:25Z</time></trkpt>
<trkpt lat="47.318491078913211822509765625" lon="7.25459176115691661834716796875"><ele></ele><time>2017-5-3T6:24:28Z</time></trkpt>
<trkpt lat="47.3184419609606266021728515625" lon="7.25468446500599384307861328125"><ele></ele><time>2017-5-3T6:24:31Z</time></trkpt>
<trkpt lat="47.318394519388675689697265625" lon="7.25478320382535457611083984375"><ele></ele><time>2017-5-3T6:24:34Z</time></trkpt>
<trkpt lat="47.3183457367122173309326171875" lon="7.2548867203295230865478515625"><ele></ele><time>2017-5-3T6:24:37Z</time></trkpt>
<trkpt lat="47.3182827048003673553466796875" lon="7.254998199641704559326171875"><ele></ele><time>2017-5-3T6:24:40Z</time></trkpt>
<trkpt lat="47.3182153142988681793212890625" lon="7.25520313717424869537353515625"><ele></ele><time>2017-5-3T6:24:43Z</time></trkpt>
<trkpt lat="47.31824196875095367431640625" lon="7.25551561452448368072509765625"><ele></ele><time>2017-5-3T6:24:46Z</time></trkpt>
<trkpt lat="47.3183212615549564361572265625" lon="7.25570403970777988433837890625"><ele></ele><time>2017-5-3T6:24:49Z</time></trkpt>
<trkpt lat="47.3184007219970226287841796875" lon="7.25587452761828899383544921875"><ele></ele><time>2017-5-3T6:24:52Z</time></trkpt>
<trkpt lat="47.3184862174093723297119140625" lon="7.25611542351543903350830078125"><ele></ele><time>2017-5-3T6:24:55Z</time></trkpt>
<trkpt lat="47.3185837827622890472412109375" lon="7.25644717924296855926513671875"><ele></ele><time>2017-5-3T6:24:58Z</time></trkpt>
<trkpt lat="47.31862259097397327423095703125" lon="7.256558574736118316650390625"><ele></ele><time>2017-5-3T6:25:1Z</time></trkpt>
<trkpt lat="47.3186582140624523162841796875" lon="7.256661169230937957763671875"><ele></ele><time>2017-5-3T6:25:4Z</time></trkpt>
<trkpt lat="47.3187053203582763671875" lon="7.2567840479314327239990234375"><ele></ele><time>2017-5-3T6:25:7Z</time></trkpt>
<trkpt lat="47.3187549412250518798828125" lon="7.25689284503459930419921875"><ele></ele><time>2017-5-3T6:25:10Z</time></trkpt>
<trkpt lat="47.3187658376991748809814453125" lon="7.2569205053150653839111328125"><ele></ele><time>2017-5-3T6:25:13Z</time></trkpt>
<trkpt lat="47.31882266700267791748046875" lon="7.25702854804694652557373046875"><ele></ele><time>2017-5-3T6:25:16Z</time></trkpt>
<trkpt lat="47.3189033009111881256103515625" lon="7.25715226493775844573974609375"><ele></ele><time>2017-5-3T6:25:19Z</time></trkpt>
<trkpt lat="47.3189614713191986083984375" lon="7.25725854746997356414794921875"><ele></ele><time>2017-5-3T6:25:22Z</time></trkpt>
<trkpt lat="47.3190226592123508453369140625" lon="7.2573644109070301055908203125"><ele></ele><time>2017-5-3T6:25:25Z</time></trkpt>
<trkpt lat="47.3190846852958202362060546875" lon="7.25749365985393524169921875"><ele></ele><time>2017-5-3T6:25:28Z</time></trkpt>
<trkpt lat="47.3191249184310436248779296875" lon="7.257620394229888916015625"><ele></ele><time>2017-5-3T6:25:31Z</time></trkpt>
<trkpt lat="47.3191379941999912261962890625" lon="7.25765216164290904998779296875"><ele></ele><time>2017-5-3T6:25:34Z</time></trkpt>
<trkpt lat="47.31920530088245868682861328125" lon="7.2578576020896434783935546875"><ele></ele><time>2017-5-3T6:25:37Z</time></trkpt>
<trkpt lat="47.31927269138395786285400390625" lon="7.25822531618177890777587890625"><ele></ele><time>2017-5-3T6:25:40Z</time></trkpt>
<trkpt lat="47.3192580230534076690673828125" lon="7.25848297588527202606201171875"><ele></ele><time>2017-5-3T6:25:43Z</time></trkpt>
<trkpt lat="47.31920613907277584075927734375" lon="7.25864223204553127288818359375"><ele></ele><time>2017-5-3T6:25:46Z</time></trkpt>
<trkpt lat="47.3191872797906398773193359375" lon="7.258670143783092498779296875"><ele></ele><time>2017-5-3T6:25:49Z</time></trkpt>
<trkpt lat="47.3190595395863056182861328125" lon="7.25878086872398853302001953125"><ele></ele><time>2017-5-3T6:25:52Z</time></trkpt>
<trkpt lat="47.31887019239366054534912109375" lon="7.258884049952030181884765625"><ele></ele><time>2017-5-3T6:25:55Z</time></trkpt>
<trkpt lat="47.31874287128448486328125" lon="7.25895387120544910430908203125"><ele></ele><time>2017-5-3T6:25:58Z</time></trkpt>
<trkpt lat="47.3186099343001842498779296875" lon="7.25905495695769786834716796875"><ele></ele><time>2017-5-3T6:26:1Z</time></trkpt>
<trkpt lat="47.3186099343001842498779296875" lon="7.25905512459576129913330078125"><ele></ele><time>2017-5-3T6:26:4Z</time></trkpt>
<trkpt lat="47.3186106048524379730224609375" lon="7.25905604660511016845703125"><ele></ele><time>2017-5-3T6:26:7Z</time></trkpt>
<trkpt lat="47.31861236505210399627685546875" lon="7.25905680097639560699462890625"><ele></ele><time>2017-5-3T6:26:10Z</time></trkpt>
<trkpt lat="47.318612448871135711669921875" lon="7.25905763916671276092529296875"><ele></ele><time>2017-5-3T6:26:13Z</time></trkpt>
<trkpt lat="47.318534664809703826904296875" lon="7.25910876877605915069580078125"><ele></ele><time>2017-5-3T6:26:16Z</time></trkpt>
<trkpt lat="47.3184426315128803253173828125" lon="7.25917045958340167999267578125"><ele></ele><time>2017-5-3T6:26:19Z</time></trkpt>
<trkpt lat="47.31820383109152317047119140625" lon="7.25932334549725055694580078125"><ele></ele><time>2017-5-3T6:26:22Z</time></trkpt>
<trkpt lat="47.3180830478668212890625" lon="7.25941068492829799652099609375"><ele></ele><time>2017-5-3T6:26:25Z</time></trkpt>
<trkpt lat="47.3178927786648273468017578125" lon="7.25958712399005889892578125"><ele></ele><time>2017-5-3T6:26:28Z</time></trkpt>
<trkpt lat="47.317771576344966888427734375" lon="7.2597348131239414215087890625"><ele></ele><time>2017-5-3T6:26:31Z</time></trkpt>
<trkpt lat="47.31771969236433506011962890625" lon="7.25980597548186779022216796875"><ele></ele><time>2017-5-3T6:26:34Z</time></trkpt>
<trkpt lat="47.31766722165048122406005859375" lon="7.25987873040139675140380859375"><ele></ele><time>2017-5-3T6:26:37Z</time></trkpt>
<trkpt lat="47.31761642731726169586181640625" lon="7.259946204721927642822265625"><ele></ele><time>2017-5-3T6:26:40Z</time></trkpt>
<trkpt lat="47.317562364041805267333984375" lon="7.2600026987493038177490234375"><ele></ele><time>2017-5-3T6:26:43Z</time></trkpt>
<trkpt lat="47.3174371384084224700927734375" lon="7.26008609868586063385009765625"><ele></ele><time>2017-5-3T6:26:46Z</time></trkpt>
<trkpt lat="47.31737268157303333282470703125" lon="7.260114513337612152099609375"><ele></ele><time>2017-5-3T6:26:49Z</time></trkpt>
<trkpt lat="47.3172524012625217437744140625" lon="7.2601472027599811553955078125"><ele></ele><time>2017-5-3T6:26:52Z</time></trkpt>
<trkpt lat="47.31714284978806972503662109375" lon="7.26016581058502197265625"><ele></ele><time>2017-5-3T6:26:55Z</time></trkpt>
<trkpt lat="47.3169479705393314361572265625" lon="7.26018802262842655181884765625"><ele></ele><time>2017-5-3T6:26:58Z</time></trkpt>
<trkpt lat="47.3168762214481830596923828125" lon="7.260205037891864776611328125"><ele></ele><time>2017-5-3T6:27:1Z</time></trkpt>
<trkpt lat="47.31664680875837802886962890625" lon="7.26034292019903659820556640625"><ele></ele><time>2017-5-3T6:27:4Z</time></trkpt>
<trkpt lat="47.316402979195117950439453125" lon="7.2604821436107158660888671875"><ele></ele><time>2017-5-3T6:27:7Z</time></trkpt>
<trkpt lat="47.31625922955572605133056640625" lon="7.26056621409952640533447265625"><ele></ele><time>2017-5-3T6:27:10Z</time></trkpt>
<trkpt lat="47.3161959461867809295654296875" lon="7.26060259155929088592529296875"><ele></ele><time>2017-5-3T6:27:13Z</time></trkpt>
<trkpt lat="47.31613576412200927734375" lon="7.260643579065799713134765625"><ele></ele><time>2017-5-3T6:27:16Z</time></trkpt>
<trkpt lat="47.31607608497142791748046875" lon="7.26068817079067230224609375"><ele></ele><time>2017-5-3T6:27:19Z</time></trkpt>
<trkpt lat="47.31601439416408538818359375" lon="7.2607426531612873077392578125"><ele></ele><time>2017-5-3T6:27:22Z</time></trkpt>
<trkpt lat="47.3159520328044891357421875" lon="7.2607989795506000518798828125"><ele></ele><time>2017-5-3T6:27:25Z</time></trkpt>
<trkpt lat="47.31589260511100292205810546875" lon="7.2608509473502635955810546875"><ele></ele><time>2017-5-3T6:27:28Z</time></trkpt>
<trkpt lat="47.31572429649531841278076171875" lon="7.2610122151672840118408203125"><ele></ele><time>2017-5-3T6:27:31Z</time></trkpt>
<trkpt lat="47.31560594402253627777099609375" lon="7.26111925207078456878662109375"><ele></ele><time>2017-5-3T6:27:34Z</time></trkpt>
<trkpt lat="47.3155445046722888946533203125" lon="7.26117365062236785888671875"><ele></ele><time>2017-5-3T6:27:37Z</time></trkpt>
<trkpt lat="47.31548105366528034210205078125" lon="7.26123240776360034942626953125"><ele></ele><time>2017-5-3T6:27:40Z</time></trkpt>
<trkpt lat="47.31534811668097972869873046875" lon="7.261360399425029754638671875"><ele></ele><time>2017-5-3T6:27:43Z</time></trkpt>
<trkpt lat="47.3152253217995166778564453125" lon="7.26148252375423908233642578125"><ele></ele><time>2017-5-3T6:27:46Z</time></trkpt>
<trkpt lat="47.3151098191738128662109375" lon="7.26160590536892414093017578125"><ele></ele><time>2017-5-3T6:27:49Z</time></trkpt>
<trkpt lat="47.31499917805194854736328125" lon="7.26174521259963512420654296875"><ele></ele><time>2017-5-3T6:27:52Z</time></trkpt>
<trkpt lat="47.31489381752908229827880859375" lon="7.26189826615154743194580078125"><ele></ele><time>2017-5-3T6:27:55Z</time></trkpt>
<trkpt lat="47.31483958661556243896484375" lon="7.2619791515171527862548828125"><ele></ele><time>2017-5-3T6:27:58Z</time></trkpt>
<trkpt lat="47.31478133238852024078369140625" lon="7.26206389255821704864501953125"><ele></ele><time>2017-5-3T6:28:1Z</time></trkpt>
<trkpt lat="47.31472131796181201934814453125" lon="7.26215223781764507293701171875"><ele></ele><time>2017-5-3T6:28:4Z</time></trkpt>
<trkpt lat="47.31466432102024555206298828125" lon="7.26224192418158054351806640625"><ele></ele><time>2017-5-3T6:28:7Z</time></trkpt>
<trkpt lat="47.314558289945125579833984375" lon="7.26241040043532848358154296875"><ele></ele><time>2017-5-3T6:28:10Z</time></trkpt>
<trkpt lat="47.3145085014402866363525390625" lon="7.26249329745769500732421875"><ele></ele><time>2017-5-3T6:28:13Z</time></trkpt>
<trkpt lat="47.31440515257418155670166015625" lon="7.2626429982483386993408203125"><ele></ele><time>2017-5-3T6:28:16Z</time></trkpt>
<trkpt lat="47.3143495805561542510986328125" lon="7.26270326413214206695556640625"><ele></ele><time>2017-5-3T6:28:19Z</time></trkpt>
<trkpt lat="47.31429065577685832977294921875" lon="7.262762524187564849853515625"><ele></ele><time>2017-5-3T6:28:22Z</time></trkpt>
<trkpt lat="47.31422561220824718475341796875" lon="7.262825556099414825439453125"><ele></ele><time>2017-5-3T6:28:25Z</time></trkpt>
<trkpt lat="47.31415755115449428558349609375" lon="7.26288330741226673126220703125"><ele></ele><time>2017-5-3T6:28:28Z</time></trkpt>
<trkpt lat="47.31402377597987651824951171875" lon="7.26299009285867214202880859375"><ele></ele><time>2017-5-3T6:28:31Z</time></trkpt>
<trkpt lat="47.31388916261494159698486328125" lon="7.26311548613011837005615234375"><ele></ele><time>2017-5-3T6:28:34Z</time></trkpt>
<trkpt lat="47.31375320814549922943115234375" lon="7.26325613446533679962158203125"><ele></ele><time>2017-5-3T6:28:37Z</time></trkpt>
<trkpt lat="47.313612140715122222900390625" lon="7.2634023986756801605224609375"><ele></ele><time>2017-5-3T6:28:40Z</time></trkpt>
<trkpt lat="47.3134064488112926483154296875" lon="7.26361638866364955902099609375"><ele></ele><time>2017-5-3T6:28:43Z</time></trkpt>
<trkpt lat="47.3132830671966075897216796875" lon="7.2637725435197353363037109375"><ele></ele><time>2017-5-3T6:28:46Z</time></trkpt>
<trkpt lat="47.31315826065838336944580078125" lon="7.263943366706371307373046875"><ele></ele><time>2017-5-3T6:28:49Z</time></trkpt>
<trkpt lat="47.31297972612082958221435546875" lon="7.26417747326195240020751953125"><ele></ele><time>2017-5-3T6:28:52Z</time></trkpt>
<trkpt lat="47.31287662871181964874267578125" lon="7.26434393785893917083740234375"><ele></ele><time>2017-5-3T6:28:55Z</time></trkpt>
<trkpt lat="47.31283086352050304412841796875" lon="7.26442792452871799468994140625"><ele></ele><time>2017-5-3T6:28:58Z</time></trkpt>
<trkpt lat="47.312782667577266693115234375" lon="7.26452046073973178863525390625"><ele></ele><time>2017-5-3T6:29:1Z</time></trkpt>
<trkpt lat="47.31268920935690402984619140625" lon="7.26470050401985645294189453125"><ele></ele><time>2017-5-3T6:29:4Z</time></trkpt>
<trkpt lat="47.31254956685006618499755859375" lon="7.26497794501483440399169921875"><ele></ele><time>2017-5-3T6:29:7Z</time></trkpt>
<trkpt lat="47.31239366345107555389404296875" lon="7.26535965688526630401611328125"><ele></ele><time>2017-5-3T6:29:10Z</time></trkpt>
<trkpt lat="47.31209493242204189300537109375" lon="7.266120649874210357666015625"><ele></ele><time>2017-5-3T6:29:13Z</time></trkpt>
<trkpt lat="47.3119808547198772430419921875" lon="7.266376800835132598876953125"><ele></ele><time>2017-5-3T6:29:16Z</time></trkpt>
<trkpt lat="47.31171489693224430084228515625" lon="7.26709420792758464813232421875"><ele></ele><time>2017-5-3T6:29:19Z</time></trkpt>
<trkpt lat="47.311478443443775177001953125" lon="7.26775176823139190673828125"><ele></ele><time>2017-5-3T6:29:22Z</time></trkpt>
<trkpt lat="47.31146000325679779052734375" lon="7.2678236849606037139892578125"><ele></ele><time>2017-5-3T6:29:25Z</time></trkpt>
<trkpt lat="47.31138515286147594451904296875" lon="7.26811411790549755096435546875"><ele></ele><time>2017-5-3T6:29:28Z</time></trkpt>
<trkpt lat="47.3113706521689891815185546875" lon="7.2681948356330394744873046875"><ele></ele><time>2017-5-3T6:29:31Z</time></trkpt>
<trkpt lat="47.31122254393994808197021484375" lon="7.26890084333717823028564453125"><ele></ele><time>2017-5-3T6:29:34Z</time></trkpt>
<trkpt lat="47.3112006671726703643798828125" lon="7.26962738670408725738525390625"><ele></ele><time>2017-5-3T6:29:37Z</time></trkpt>
<trkpt lat="47.3114497773349285125732421875" lon="7.270034663379192352294921875"><ele></ele><time>2017-5-3T6:29:40Z</time></trkpt>
<trkpt lat="47.31157911010086536407470703125" lon="7.270088307559490203857421875"><ele></ele><time>2017-5-3T6:29:43Z</time></trkpt>
<trkpt lat="47.31164985336363315582275390625" lon="7.270221076905727386474609375"><ele></ele><time>2017-5-3T6:29:46Z</time></trkpt>
<trkpt lat="47.3116730712354183197021484375" lon="7.2703774832189083099365234375"><ele></ele><time>2017-5-3T6:29:49Z</time></trkpt>
<trkpt lat="47.31168170459568500518798828125" lon="7.2704549320042133331298828125"><ele></ele><time>2017-5-3T6:29:52Z</time></trkpt>
<trkpt lat="47.3117310740053653717041015625" lon="7.2708074748516082763671875"><ele></ele><time>2017-5-3T6:29:55Z</time></trkpt>
<trkpt lat="47.31176485307514667510986328125" lon="7.27092758752405643463134765625"><ele></ele><time>2017-5-3T6:29:58Z</time></trkpt>
<trkpt lat="47.31178991496562957763671875" lon="7.27113730274140834808349609375"><ele></ele><time>2017-5-3T6:30:1Z</time></trkpt>
<trkpt lat="47.31178580783307552337646484375" lon="7.27129169739782810211181640625"><ele></ele><time>2017-5-3T6:30:4Z</time></trkpt>
<trkpt lat="47.3117716424167156219482421875" lon="7.27136260829865932464599609375"><ele></ele><time>2017-5-3T6:30:7Z</time></trkpt>
<trkpt lat="47.31174565851688385009765625" lon="7.27146587334573268890380859375"><ele></ele><time>2017-5-3T6:30:10Z</time></trkpt>
<trkpt lat="47.31165672652423381805419921875" lon="7.27154214866459369659423828125"><ele></ele><time>2017-5-3T6:30:13Z</time></trkpt>
<trkpt lat="47.31117837131023406982421875" lon="7.27168380282819271087646484375"><ele></ele><time>2017-5-3T6:30:16Z</time></trkpt>
<trkpt lat="47.31076774187386035919189453125" lon="7.271961160004138946533203125"><ele></ele><time>2017-5-3T6:30:19Z</time></trkpt>
<trkpt lat="47.31054947711527347564697265625" lon="7.27209828794002532958984375"><ele></ele><time>2017-5-3T6:30:22Z</time></trkpt>
<trkpt lat="47.31026818044483661651611328125" lon="7.27215461432933807373046875"><ele></ele><time>2017-5-3T6:30:25Z</time></trkpt>
<trkpt lat="47.3101512528955936431884765625" lon="7.27214698679745197296142578125"><ele></ele><time>2017-5-3T6:30:28Z</time></trkpt>
<trkpt lat="47.310122586786746978759765625" lon="7.272154279053211212158203125"><ele></ele><time>2017-5-3T6:30:31Z</time></trkpt>
<trkpt lat="47.3100404441356658935546875" lon="7.27218923158943653106689453125"><ele></ele><time>2017-5-3T6:30:34Z</time></trkpt>
<trkpt lat="47.30998302809894084930419921875" lon="7.2722049057483673095703125"><ele></ele><time>2017-5-3T6:30:37Z</time></trkpt>
<trkpt lat="47.3098974488675594329833984375" lon="7.27223910391330718994140625"><ele></ele><time>2017-5-3T6:30:40Z</time></trkpt>
<trkpt lat="47.309737689793109893798828125" lon="7.27229786105453968048095703125"><ele></ele><time>2017-5-3T6:30:43Z</time></trkpt>
<trkpt lat="47.309218682348728179931640625" lon="7.27263330481946468353271484375"><ele></ele><time>2017-5-3T6:30:46Z</time></trkpt>
<trkpt lat="47.30917601846158504486083984375" lon="7.2726597078144550323486328125"><ele></ele><time>2017-5-3T6:30:49Z</time></trkpt>
<trkpt lat="47.30872909538447856903076171875" lon="7.2731170244514942169189453125"><ele></ele><time>2017-5-3T6:30:52Z</time></trkpt>
<trkpt lat="47.30850982479751110076904296875" lon="7.27356688119471073150634765625"><ele></ele><time>2017-5-3T6:30:55Z</time></trkpt>
<trkpt lat="47.3082539252936840057373046875" lon="7.2742401994764804840087890625"><ele></ele><time>2017-5-3T6:30:58Z</time></trkpt>
<trkpt lat="47.30804932303726673126220703125" lon="7.27502994239330291748046875"><ele></ele><time>2017-5-3T6:31:1Z</time></trkpt>
<trkpt lat="47.30791487731039524078369140625" lon="7.27565095759928226470947265625"><ele></ele><time>2017-5-3T6:31:4Z</time></trkpt>
<trkpt lat="47.3078381828963756561279296875" lon="7.27615538053214550018310546875"><ele></ele><time>2017-5-3T6:31:7Z</time></trkpt>
<trkpt lat="47.307887636125087738037109375" lon="7.276427038013935089111328125"><ele></ele><time>2017-5-3T6:31:10Z</time></trkpt>
<trkpt lat="47.308013699948787689208984375" lon="7.27654807269573211669921875"><ele></ele><time>2017-5-3T6:31:13Z</time></trkpt>
<trkpt lat="47.3082016222178936004638671875" lon="7.27692735381424427032470703125"><ele></ele><time>2017-5-3T6:31:16Z</time></trkpt>
<trkpt lat="47.3082421906292438507080078125" lon="7.2771178744733333587646484375"><ele></ele><time>2017-5-3T6:31:19Z</time></trkpt>
<trkpt lat="47.3083407618105411529541015625" lon="7.27765155024826526641845703125"><ele></ele><time>2017-5-3T6:31:22Z</time></trkpt>
<trkpt lat="47.308353669941425323486328125" lon="7.27771659381687641143798828125"><ele></ele><time>2017-5-3T6:31:25Z</time></trkpt>
<trkpt lat="47.308440506458282470703125" lon="7.278021611273288726806640625"><ele></ele><time>2017-5-3T6:31:28Z</time></trkpt>
<trkpt lat="47.30853497050702571868896484375" lon="7.2782484255731105804443359375"><ele></ele><time>2017-5-3T6:31:31Z</time></trkpt>
<trkpt lat="47.3087420873343944549560546875" lon="7.2786462306976318359375"><ele></ele><time>2017-5-3T6:31:34Z</time></trkpt>
<trkpt lat="47.3088527284562587738037109375" lon="7.27894236333668231964111328125"><ele></ele><time>2017-5-3T6:31:37Z</time></trkpt>
<trkpt lat="47.30858325026929378509521484375" lon="7.279524989426136016845703125"><ele></ele><time>2017-5-3T6:31:40Z</time></trkpt>
<trkpt lat="47.308340929448604583740234375" lon="7.27957217954099178314208984375"><ele></ele><time>2017-5-3T6:31:43Z</time></trkpt>
<trkpt lat="47.30818502604961395263671875" lon="7.27956689894199371337890625"><ele></ele><time>2017-5-3T6:31:46Z</time></trkpt>
<trkpt lat="47.307889647781848907470703125" lon="7.27967728860676288604736328125"><ele></ele><time>2017-5-3T6:31:49Z</time></trkpt>
<trkpt lat="47.3077205009758472442626953125" lon="7.2798245586454868316650390625"><ele></ele><time>2017-5-3T6:31:52Z</time></trkpt>
<trkpt lat="47.3076259531080722808837890625" lon="7.28001214563846588134765625"><ele></ele><time>2017-5-3T6:31:55Z</time></trkpt>
<trkpt lat="47.30760826729238033294677734375" lon="7.280068807303905487060546875"><ele></ele><time>2017-5-3T6:31:58Z</time></trkpt>
<trkpt lat="47.307578511536121368408203125" lon="7.28021557442843914031982421875"><ele></ele><time>2017-5-3T6:32:1Z</time></trkpt>
<trkpt lat="47.3075307346880435943603515625" lon="7.28057113476097583770751953125"><ele></ele><time>2017-5-3T6:32:4Z</time></trkpt>
<trkpt lat="47.3075084388256072998046875" lon="7.280715219676494598388671875"><ele></ele><time>2017-5-3T6:32:7Z</time></trkpt>
<trkpt lat="47.30747365392744541168212890625" lon="7.28105175308883190155029296875"><ele></ele><time>2017-5-3T6:32:10Z</time></trkpt>
<trkpt lat="47.3074093647301197052001953125" lon="7.2814710997045040130615234375"><ele></ele><time>2017-5-3T6:32:13Z</time></trkpt>
<trkpt lat="47.30732135474681854248046875" lon="7.28198935277760028839111328125"><ele></ele><time>2017-5-3T6:32:16Z</time></trkpt>
<trkpt lat="47.307195626199245452880859375" lon="7.2827146388590335845947265625"><ele></ele><time>2017-5-3T6:32:19Z</time></trkpt>
<trkpt lat="47.30710501782596111297607421875" lon="7.28327748365700244903564453125"><ele></ele><time>2017-5-3T6:32:22Z</time></trkpt>
<trkpt lat="47.30705170892179012298583984375" lon="7.2837244905531406402587890625"><ele></ele><time>2017-5-3T6:32:25Z</time></trkpt>
<trkpt lat="47.306978367269039154052734375" lon="7.28433142416179180145263671875"><ele></ele><time>2017-5-3T6:32:28Z</time></trkpt>
<trkpt lat="47.30696906335651874542236328125" lon="7.2843839786946773529052734375"><ele></ele><time>2017-5-3T6:32:31Z</time></trkpt>
<trkpt lat="47.30690586380660533905029296875" lon="7.28489904664456844329833984375"><ele></ele><time>2017-5-3T6:32:34Z</time></trkpt>
<trkpt lat="47.30685993097722530364990234375" lon="7.28569281287491321563720703125"><ele></ele><time>2017-5-3T6:32:37Z</time></trkpt>
<trkpt lat="47.30684794485569000244140625" lon="7.28573723696172237396240234375"><ele></ele><time>2017-5-3T6:32:40Z</time></trkpt>
<trkpt lat="47.30676353909075260162353515625" lon="7.28616789914667606353759765625"><ele></ele><time>2017-5-3T6:32:43Z</time></trkpt>
<trkpt lat="47.306797318160533905029296875" lon="7.286717332899570465087890625"><ele></ele><time>2017-5-3T6:32:46Z</time></trkpt>
<trkpt lat="47.306789942085742950439453125" lon="7.287194766104221343994140625"><ele></ele><time>2017-5-3T6:32:49Z</time></trkpt>
<trkpt lat="47.3066368885338306427001953125" lon="7.2878135181963443756103515625"><ele></ele><time>2017-5-3T6:32:52Z</time></trkpt>
<trkpt lat="47.30661065317690372467041015625" lon="7.288347780704498291015625"><ele></ele><time>2017-5-3T6:32:55Z</time></trkpt>
<trkpt lat="47.30662532150745391845703125" lon="7.2887003235518932342529296875"><ele></ele><time>2017-5-3T6:32:58Z</time></trkpt>
<trkpt lat="47.3066345416009426116943359375" lon="7.289042808115482330322265625"><ele></ele><time>2017-5-3T6:33:1Z</time></trkpt>
<trkpt lat="47.306561283767223358154296875" lon="7.28955821134150028228759765625"><ele></ele><time>2017-5-3T6:33:4Z</time></trkpt>
<trkpt lat="47.306521050631999969482421875" lon="7.28999105282127857208251953125"><ele></ele><time>2017-5-3T6:33:7Z</time></trkpt>
<trkpt lat="47.3065517283976078033447265625" lon="7.29051475413143634796142578125"><ele></ele><time>2017-5-3T6:33:10Z</time></trkpt>
<trkpt lat="47.3064883612096309661865234375" lon="7.2910918481647968292236328125"><ele></ele><time>2017-5-3T6:33:13Z</time></trkpt>
<trkpt lat="47.3065057955682277679443359375" lon="7.29164798744022846221923828125"><ele></ele><time>2017-5-3T6:33:16Z</time></trkpt>
<trkpt lat="47.30655533261597156524658203125" lon="7.29194520972669124603271484375"><ele></ele><time>2017-5-3T6:33:19Z</time></trkpt>
<trkpt lat="47.30660629458725452423095703125" lon="7.2925419174134731292724609375"><ele></ele><time>2017-5-3T6:33:22Z</time></trkpt>
<trkpt lat="47.3066338710486888885498046875" lon="7.29281298816204071044921875"><ele></ele><time>2017-5-3T6:33:25Z</time></trkpt>
<trkpt lat="47.30666111223399639129638671875" lon="7.2931484319269657135009765625"><ele></ele><time>2017-5-3T6:33:28Z</time></trkpt>
<trkpt lat="47.30655550025403499603271484375" lon="7.2934015654027462005615234375"><ele></ele><time>2017-5-3T6:33:31Z</time></trkpt>
<trkpt lat="47.306381575763225555419921875" lon="7.29404554702341556549072265625"><ele></ele><time>2017-5-3T6:33:34Z</time></trkpt>
<trkpt lat="47.3063354752957820892333984375" lon="7.29435802437365055084228515625"><ele></ele><time>2017-5-3T6:33:37Z</time></trkpt>
<trkpt lat="47.306304462254047393798828125" lon="7.2946766205132007598876953125"><ele></ele><time>2017-5-3T6:33:40Z</time></trkpt>
<trkpt lat="47.30631393380463123321533203125" lon="7.29522286914288997650146484375"><ele></ele><time>2017-5-3T6:33:43Z</time></trkpt>
<trkpt lat="47.3063113354146480560302734375" lon="7.29565638117492198944091796875"><ele></ele><time>2017-5-3T6:33:46Z</time></trkpt>
<trkpt lat="47.3063317872583866119384765625" lon="7.29611068032681941986083984375"><ele></ele><time>2017-5-3T6:33:49Z</time></trkpt>
<trkpt lat="47.3063602857291698455810546875" lon="7.2965803183615207672119140625"><ele></ele><time>2017-5-3T6:33:52Z</time></trkpt>
<trkpt lat="47.30645961128175258636474609375" lon="7.2968800552189350128173828125"><ele></ele><time>2017-5-3T6:33:55Z</time></trkpt>
<trkpt lat="47.30652700178325176239013671875" lon="7.296980805695056915283203125"><ele></ele><time>2017-5-3T6:33:58Z</time></trkpt>
<trkpt lat="47.3066808097064495086669921875" lon="7.297185994684696197509765625"><ele></ele><time>2017-5-3T6:34:1Z</time></trkpt>
<trkpt lat="47.3068534769117832183837890625" lon="7.29752990417182445526123046875"><ele></ele><time>2017-5-3T6:34:4Z</time></trkpt>
<trkpt lat="47.3066228069365024566650390625" lon="7.29797883890569210052490234375"><ele></ele><time>2017-5-3T6:34:7Z</time></trkpt>
<trkpt lat="47.30644636787474155426025390625" lon="7.29804304428398609161376953125"><ele></ele><time>2017-5-3T6:34:10Z</time></trkpt>
<trkpt lat="47.306210584938526153564453125" lon="7.29833238758146762847900390625"><ele></ele><time>2017-5-3T6:34:13Z</time></trkpt>
<trkpt lat="47.30614730156958103179931640625" lon="7.2985307872295379638671875"><ele></ele><time>2017-5-3T6:34:16Z</time></trkpt>
<trkpt lat="47.306126765906810760498046875" lon="7.298636734485626220703125"><ele></ele><time>2017-5-3T6:34:19Z</time></trkpt>
<trkpt lat="47.3060994409024715423583984375" lon="7.298840582370758056640625"><ele></ele><time>2017-5-3T6:34:22Z</time></trkpt>
<trkpt lat="47.30608678422868251800537109375" lon="7.29896237142384052276611328125"><ele></ele><time>2017-5-3T6:34:25Z</time></trkpt>
<trkpt lat="47.306072451174259185791015625" lon="7.29912498034536838531494140625"><ele></ele><time>2017-5-3T6:34:28Z</time></trkpt>
<trkpt lat="47.305994667112827301025390625" lon="7.299555726349353790283203125"><ele></ele><time>2017-5-3T6:34:31Z</time></trkpt>
<trkpt lat="47.30597748421132564544677734375" lon="7.2997761704027652740478515625"><ele></ele><time>2017-5-3T6:34:34Z</time></trkpt>
<trkpt lat="47.305951751768589019775390625" lon="7.30017825029790401458740234375"><ele></ele><time>2017-5-3T6:34:37Z</time></trkpt>
<trkpt lat="47.3059388436377048492431640625" lon="7.30048921890556812286376953125"><ele></ele><time>2017-5-3T6:34:40Z</time></trkpt>
<trkpt lat="47.305924259126186370849609375" lon="7.30124996043741703033447265625"><ele></ele><time>2017-5-3T6:34:43Z</time></trkpt>
<trkpt lat="47.3059232532978057861328125" lon="7.30137133039534091949462890625"><ele></ele><time>2017-5-3T6:34:46Z</time></trkpt>
<trkpt lat="47.30591319501399993896484375" lon="7.3017133958637714385986328125"><ele></ele><time>2017-5-3T6:34:49Z</time></trkpt>
<trkpt lat="47.30583608150482177734375" lon="7.30254831723868846893310546875"><ele></ele><time>2017-5-3T6:34:52Z</time></trkpt>
<trkpt lat="47.30580431409180164337158203125" lon="7.3033066280186176300048828125"><ele></ele><time>2017-5-3T6:34:55Z</time></trkpt>
<trkpt lat="47.305784113705158233642578125" lon="7.30362840928137302398681640625"><ele></ele><time>2017-5-3T6:34:58Z</time></trkpt>
<trkpt lat="47.30573960579931735992431640625" lon="7.30416334234178066253662109375"><ele></ele><time>2017-5-3T6:35:1Z</time></trkpt>
<trkpt lat="47.305701635777950286865234375" lon="7.30463214218616485595703125"><ele></ele><time>2017-5-3T6:35:4Z</time></trkpt>
<trkpt lat="47.305662743747234344482421875" lon="7.305100858211517333984375"><ele></ele><time>2017-5-3T6:35:7Z</time></trkpt>
<trkpt lat="47.3056592233479022979736328125" lon="7.30555188842117786407470703125"><ele></ele><time>2017-5-3T6:35:10Z</time></trkpt>
<trkpt lat="47.30566400103271007537841796875" lon="7.30564895085990428924560546875"><ele></ele><time>2017-5-3T6:35:13Z</time></trkpt>
<trkpt lat="47.30567825026810169219970703125" lon="7.30574299581348896026611328125"><ele></ele><time>2017-5-3T6:35:16Z</time></trkpt>
<trkpt lat="47.30575762689113616943359375" lon="7.30614532716572284698486328125"><ele></ele><time>2017-5-3T6:35:19Z</time></trkpt>
<trkpt lat="47.3058070801198482513427734375" lon="7.30637365020811557769775390625"><ele></ele><time>2017-5-3T6:35:22Z</time></trkpt>
<trkpt lat="47.30588159523904323577880859375" lon="7.30668445117771625518798828125"><ele></ele><time>2017-5-3T6:35:25Z</time></trkpt>
<trkpt lat="47.3059232532978057861328125" lon="7.30699625797569751739501953125"><ele></ele><time>2017-5-3T6:35:28Z</time></trkpt>
<trkpt lat="47.30583147145807743072509765625" lon="7.307149060070514678955078125"><ele></ele><time>2017-5-3T6:35:31Z</time></trkpt>
<trkpt lat="47.30569685809314250946044921875" lon="7.30732868425548076629638671875"><ele></ele><time>2017-5-3T6:35:34Z</time></trkpt>
<trkpt lat="47.3056421242654323577880859375" lon="7.30744586326181888580322265625"><ele></ele><time>2017-5-3T6:35:37Z</time></trkpt>
<trkpt lat="47.3055552877485752105712890625" lon="7.30758852325379848480224609375"><ele></ele><time>2017-5-3T6:35:40Z</time></trkpt>
<trkpt lat="47.30548446066677570343017578125" lon="7.30774476192891597747802734375"><ele></ele><time>2017-5-3T6:35:43Z</time></trkpt>
<trkpt lat="47.30541304685175418853759765625" lon="7.3079314269125461578369140625"><ele></ele><time>2017-5-3T6:35:46Z</time></trkpt>
<trkpt lat="47.30535336770117282867431640625" lon="7.308163605630397796630859375"><ele></ele><time>2017-5-3T6:35:49Z</time></trkpt>
<trkpt lat="47.30528329499065876007080078125" lon="7.30845965445041656494140625"><ele></ele><time>2017-5-3T6:35:52Z</time></trkpt>
<trkpt lat="47.3052719794213771820068359375" lon="7.30868705548346042633056640625"><ele></ele><time>2017-5-3T6:35:55Z</time></trkpt>
<trkpt lat="47.3053212650120258331298828125" lon="7.30886039324104785919189453125"><ele></ele><time>2017-5-3T6:35:58Z</time></trkpt>
<trkpt lat="47.30537013150751590728759765625" lon="7.309053428471088409423828125"><ele></ele><time>2017-5-3T6:36:1Z</time></trkpt>
<trkpt lat="47.305405922234058380126953125" lon="7.30920891277492046356201171875"><ele></ele><time>2017-5-3T6:36:4Z</time></trkpt>
<trkpt lat="47.3054485023021697998046875" lon="7.309472858905792236328125"><ele></ele><time>2017-5-3T6:36:7Z</time></trkpt>
<trkpt lat="47.30545730330049991607666015625" lon="7.30959967710077762603759765625"><ele></ele><time>2017-5-3T6:36:10Z</time></trkpt>
<trkpt lat="47.3054620809853076934814453125" lon="7.309757508337497711181640625"><ele></ele><time>2017-5-3T6:36:13Z</time></trkpt>
<trkpt lat="47.30546635575592517852783203125" lon="7.30994165875017642974853515625"><ele></ele><time>2017-5-3T6:36:16Z</time></trkpt>
<trkpt lat="47.30546970851719379425048828125" lon="7.310092449188232421875"><ele></ele><time>2017-5-3T6:36:19Z</time></trkpt>
<trkpt lat="47.30547121725976467132568359375" lon="7.31025279499590396881103515625"><ele></ele><time>2017-5-3T6:36:22Z</time></trkpt>
<trkpt lat="47.30546987615525722503662109375" lon="7.31042076833546161651611328125"><ele></ele><time>2017-5-3T6:36:25Z</time></trkpt>
<trkpt lat="47.305468954145908355712890625" lon="7.31059125624597072601318359375"><ele></ele><time>2017-5-3T6:36:28Z</time></trkpt>
<trkpt lat="47.30549150146543979644775390625" lon="7.31075285933911800384521484375"><ele></ele><time>2017-5-3T6:36:31Z</time></trkpt>
<trkpt lat="47.3055338300764560699462890625" lon="7.3108904063701629638671875"><ele></ele><time>2017-5-3T6:36:34Z</time></trkpt>
<trkpt lat="47.30556408874690532684326171875" lon="7.310959137976169586181640625"><ele></ele><time>2017-5-3T6:36:37Z</time></trkpt>
<trkpt lat="47.3056469857692718505859375" lon="7.311093918979167938232421875"><ele></ele><time>2017-5-3T6:36:40Z</time></trkpt>
<trkpt lat="47.30571513064205646514892578125" lon="7.31119944714009761810302734375"><ele></ele><time>2017-5-3T6:36:43Z</time></trkpt>
<trkpt lat="47.3057846166193485260009765625" lon="7.31136272661387920379638671875"><ele></ele><time>2017-5-3T6:36:46Z</time></trkpt>
<trkpt lat="47.305828034877777099609375" lon="7.31148342601954936981201171875"><ele></ele><time>2017-5-3T6:36:49Z</time></trkpt>
<trkpt lat="47.30588964186608791351318359375" lon="7.3116499744355678558349609375"><ele></ele><time>2017-5-3T6:36:52Z</time></trkpt>
<trkpt lat="47.3059445433318614959716796875" lon="7.31177746318280696868896484375"><ele></ele><time>2017-5-3T6:36:55Z</time></trkpt>
<trkpt lat="47.30596357025206089019775390625" lon="7.31191744096577167510986328125"><ele></ele><time>2017-5-3T6:36:58Z</time></trkpt>
<trkpt lat="47.3059894703328609466552734375" lon="7.31208331882953643798828125"><ele></ele><time>2017-5-3T6:37:1Z</time></trkpt>
<trkpt lat="47.305991314351558685302734375" lon="7.3122802935540676116943359375"><ele></ele><time>2017-5-3T6:37:4Z</time></trkpt>
<trkpt lat="47.30594513006508350372314453125" lon="7.31245337985455989837646484375"><ele></ele><time>2017-5-3T6:37:7Z</time></trkpt>
<trkpt lat="47.30592099018394947052001953125" lon="7.31248556636273860931396484375"><ele></ele><time>2017-5-3T6:37:10Z</time></trkpt>
<trkpt lat="47.3058748058974742889404296875" lon="7.31253066100180149078369140625"><ele></ele><time>2017-5-3T6:37:13Z</time></trkpt>
<trkpt lat="47.3057504184544086456298828125" lon="7.31266862712800502777099609375"><ele></ele><time>2017-5-3T6:37:16Z</time></trkpt>
<trkpt lat="47.3056518472731113433837890625" lon="7.31273953802883625030517578125"><ele></ele><time>2017-5-3T6:37:19Z</time></trkpt>
<trkpt lat="47.30554112233221530914306640625" lon="7.31284732930362224578857421875"><ele></ele><time>2017-5-3T6:37:22Z</time></trkpt>
<trkpt lat="47.3054647631943225860595703125" lon="7.3129790090024471282958984375"><ele></ele><time>2017-5-3T6:37:25Z</time></trkpt>
<trkpt lat="47.30542209930717945098876953125" lon="7.31311731040477752685546875"><ele></ele><time>2017-5-3T6:37:28Z</time></trkpt>
<trkpt lat="47.30539578013122081756591796875" lon="7.3133017122745513916015625"><ele></ele><time>2017-5-3T6:37:31Z</time></trkpt>
<trkpt lat="47.3053832910954952239990234375" lon="7.31344764120876789093017578125"><ele></ele><time>2017-5-3T6:37:34Z</time></trkpt>
<trkpt lat="47.30536979623138904571533203125" lon="7.31362600810825824737548828125"><ele></ele><time>2017-5-3T6:37:37Z</time></trkpt>
<trkpt lat="47.3053546249866485595703125" lon="7.31382801197469234466552734375"><ele></ele><time>2017-5-3T6:37:40Z</time></trkpt>
<trkpt lat="47.3053340055048465728759765625" lon="7.31403605081140995025634765625"><ele></ele><time>2017-5-3T6:37:43Z</time></trkpt>
<trkpt lat="47.30531908571720123291015625" lon="7.31423386372625827789306640625"><ele></ele><time>2017-5-3T6:37:46Z</time></trkpt>
<trkpt lat="47.30527156032621860504150390625" lon="7.3145065270364284515380859375"><ele></ele><time>2017-5-3T6:37:49Z</time></trkpt>
<trkpt lat="47.30523048900067806243896484375" lon="7.3146517015993595123291015625"><ele></ele><time>2017-5-3T6:37:52Z</time></trkpt>
<trkpt lat="47.3051901720464229583740234375" lon="7.31474700383841991424560546875"><ele></ele><time>2017-5-3T6:37:55Z</time></trkpt>
<trkpt lat="47.3051301576197147369384765625" lon="7.31500717811286449432373046875"><ele></ele><time>2017-5-3T6:37:58Z</time></trkpt>
<trkpt lat="47.305086739361286163330078125" lon="7.31533004902303218841552734375"><ele></ele><time>2017-5-3T6:38:1Z</time></trkpt>
<trkpt lat="47.30504759587347507476806640625" lon="7.315741516649723052978515625"><ele></ele><time>2017-5-3T6:38:4Z</time></trkpt>
<trkpt lat="47.30502882041037082672119140625" lon="7.31600747443735599517822265625"><ele></ele><time>2017-5-3T6:38:7Z</time></trkpt>
<trkpt lat="47.30501708574593067169189453125" lon="7.31634325347840785980224609375"><ele></ele><time>2017-5-3T6:38:10Z</time></trkpt>
<trkpt lat="47.30501591227948665618896484375" lon="7.316445596516132354736328125"><ele></ele><time>2017-5-3T6:38:13Z</time></trkpt>
<trkpt lat="47.3050024174153804779052734375" lon="7.31689411215484142303466796875"><ele></ele><time>2017-5-3T6:38:16Z</time></trkpt>
<trkpt lat="47.30495321564376354217529296875" lon="7.31735511682927608489990234375"><ele></ele><time>2017-5-3T6:38:19Z</time></trkpt>
<trkpt lat="47.30498758144676685333251953125" lon="7.3174824379384517669677734375"><ele></ele><time>2017-5-3T6:38:22Z</time></trkpt>
<trkpt lat="47.30505748651921749114990234375" lon="7.31757941655814647674560546875"><ele></ele><time>2017-5-3T6:38:25Z</time></trkpt>
<trkpt lat="47.3051827959716320037841796875" lon="7.3178549297153949737548828125"><ele></ele><time>2017-5-3T6:38:28Z</time></trkpt>
<trkpt lat="47.30534146539866924285888671875" lon="7.318331189453601837158203125"><ele></ele><time>2017-5-3T6:38:31Z</time></trkpt>
<trkpt lat="47.305367030203342437744140625" lon="7.31875263154506683349609375"><ele></ele><time>2017-5-3T6:38:34Z</time></trkpt>
<trkpt lat="47.30538320727646350860595703125" lon="7.318966872990131378173828125"><ele></ele><time>2017-5-3T6:38:37Z</time></trkpt>
<trkpt lat="47.3054878972470760345458984375" lon="7.3191893287003040313720703125"><ele></ele><time>2017-5-3T6:38:40Z</time></trkpt>
<trkpt lat="47.3056166432797908782958984375" lon="7.31937197037041187286376953125"><ele></ele><time>2017-5-3T6:38:43Z</time></trkpt>
<trkpt lat="47.30580498464405536651611328125" lon="7.31969450600445270538330078125"><ele></ele><time>2017-5-3T6:38:46Z</time></trkpt>
<trkpt lat="47.3057950101792812347412109375" lon="7.32010454870760440826416015625"><ele></ele><time>2017-5-3T6:38:49Z</time></trkpt>
<trkpt lat="47.3057698644697666168212890625" lon="7.32018618844449520111083984375"><ele></ele><time>2017-5-3T6:38:52Z</time></trkpt>
<trkpt lat="47.30557213537395000457763671875" lon="7.32052557170391082763671875"><ele></ele><time>2017-5-3T6:38:55Z</time></trkpt>
<trkpt lat="47.30538974516093730926513671875" lon="7.32069329358637332916259765625"><ele></ele><time>2017-5-3T6:38:58Z</time></trkpt>
<trkpt lat="47.30518673546612262725830078125" lon="7.3208749294281005859375"><ele></ele><time>2017-5-3T6:39:1Z</time></trkpt>
<trkpt lat="47.30501172132790088653564453125" lon="7.321035526692867279052734375"><ele></ele><time>2017-5-3T6:39:4Z</time></trkpt>
<trkpt lat="47.30489521287381649017333984375" lon="7.32127315364778041839599609375"><ele></ele><time>2017-5-3T6:39:7Z</time></trkpt>
<trkpt lat="47.304805107414722442626953125" lon="7.3214785940945148468017578125"><ele></ele><time>2017-5-3T6:39:10Z</time></trkpt>
<trkpt lat="47.30474182404577732086181640625" lon="7.32185100205242633819580078125"><ele></ele><time>2017-5-3T6:39:13Z</time></trkpt>
<trkpt lat="47.30478758923709392547607421875" lon="7.32206725515425205230712890625"><ele></ele><time>2017-5-3T6:39:16Z</time></trkpt>
<trkpt lat="47.304860763251781463623046875" lon="7.322312928736209869384765625"><ele></ele><time>2017-5-3T6:39:19Z</time></trkpt>
<trkpt lat="47.30497852899134159088134765625" lon="7.32269346714019775390625"><ele></ele><time>2017-5-3T6:39:22Z</time></trkpt>
<trkpt lat="47.30499948374927043914794921875" lon="7.3230312578380107879638671875"><ele></ele><time>2017-5-3T6:39:25Z</time></trkpt>
<trkpt lat="47.30485238134860992431640625" lon="7.32336997054517269134521484375"><ele></ele><time>2017-5-3T6:39:28Z</time></trkpt>
<trkpt lat="47.30456630699336528778076171875" lon="7.3237611539661884307861328125"><ele></ele><time>2017-5-3T6:39:31Z</time></trkpt>
<trkpt lat="47.30454434640705585479736328125" lon="7.324026860296726226806640625"><ele></ele><time>2017-5-3T6:39:34Z</time></trkpt>
<trkpt lat="47.30460050515830516815185546875" lon="7.324258871376514434814453125"><ele></ele><time>2017-5-3T6:39:37Z</time></trkpt>
<trkpt lat="47.304752804338932037353515625" lon="7.32468944974243640899658203125"><ele></ele><time>2017-5-3T6:39:40Z</time></trkpt>
<trkpt lat="47.3047321848571300506591796875" lon="7.3250962235033512115478515625"><ele></ele><time>2017-5-3T6:39:43Z</time></trkpt>
<trkpt lat="47.30464627034962177276611328125" lon="7.32543191872537136077880859375"><ele></ele><time>2017-5-3T6:39:46Z</time></trkpt>
<trkpt lat="47.3046057857573032379150390625" lon="7.32572109438478946685791015625"><ele></ele><time>2017-5-3T6:39:49Z</time></trkpt>
<trkpt lat="47.30460025370121002197265625" lon="7.3259216733276844024658203125"><ele></ele><time>2017-5-3T6:39:52Z</time></trkpt>
<trkpt lat="47.3046037741005420684814453125" lon="7.3261146247386932373046875"><ele></ele><time>2017-5-3T6:39:55Z</time></trkpt>
<trkpt lat="47.30460821650922298431396484375" lon="7.32633749954402446746826171875"><ele></ele><time>2017-5-3T6:39:58Z</time></trkpt>
<trkpt lat="47.30459111742675304412841796875" lon="7.3267824947834014892578125"><ele></ele><time>2017-5-3T6:40:1Z</time></trkpt>
<trkpt lat="47.3045843280851840972900390625" lon="7.32721441425383090972900390625"><ele></ele><time>2017-5-3T6:40:4Z</time></trkpt>
<trkpt lat="47.30458818376064300537109375" lon="7.32731265015900135040283203125"><ele></ele><time>2017-5-3T6:40:7Z</time></trkpt>
<trkpt lat="47.30459732003509998321533203125" lon="7.327628396451473236083984375"><ele></ele><time>2017-5-3T6:40:10Z</time></trkpt>
<trkpt lat="47.304614670574665069580078125" lon="7.32811488211154937744140625"><ele></ele><time>2017-5-3T6:40:13Z</time></trkpt>
<trkpt lat="47.30462866835296154022216796875" lon="7.32848091982305049896240234375"><ele></ele><time>2017-5-3T6:40:16Z</time></trkpt>
<trkpt lat="47.30460436083376407623291015625" lon="7.32886967249214649200439453125"><ele></ele><time>2017-5-3T6:40:19Z</time></trkpt>
<trkpt lat="47.30460016988217830657958984375" lon="7.32924166135489940643310546875"><ele></ele><time>2017-5-3T6:40:22Z</time></trkpt>
<trkpt lat="47.30458592064678668975830078125" lon="7.3296965472400188446044921875"><ele></ele><time>2017-5-3T6:40:25Z</time></trkpt>
<trkpt lat="47.304603941738605499267578125" lon="7.33019292354583740234375"><ele></ele><time>2017-5-3T6:40:28Z</time></trkpt>
<trkpt lat="47.304601930081844329833984375" lon="7.330515123903751373291015625"><ele></ele><time>2017-5-3T6:40:31Z</time></trkpt>
<trkpt lat="47.3045347072184085845947265625" lon="7.33098928816616535186767578125"><ele></ele><time>2017-5-3T6:40:34Z</time></trkpt>
<trkpt lat="47.30448416434228420257568359375" lon="7.3311194591224193572998046875"><ele></ele><time>2017-5-3T6:40:37Z</time></trkpt>
<trkpt lat="47.30439498089253902435302734375" lon="7.33130863867700099945068359375"><ele></ele><time>2017-5-3T6:40:40Z</time></trkpt>
<trkpt lat="47.304308228194713592529296875" lon="7.3318010754883289337158203125"><ele></ele><time>2017-5-3T6:40:43Z</time></trkpt>
<trkpt lat="47.30440218932926654815673828125" lon="7.33197650872170925140380859375"><ele></ele><time>2017-5-3T6:40:46Z</time></trkpt>
<trkpt lat="47.30452406220138072967529296875" lon="7.3320065997540950775146484375"><ele></ele><time>2017-5-3T6:40:49Z</time></trkpt>
<trkpt lat="47.304584495723247528076171875" lon="7.3319217748939990997314453125"><ele></ele><time>2017-5-3T6:40:52Z</time></trkpt>
<trkpt lat="47.3045890219509601593017578125" lon="7.331889756023883819580078125"><ele></ele><time>2017-5-3T6:40:55Z</time></trkpt>
<trkpt lat="47.30463570915162563323974609375" lon="7.3317175917327404022216796875"><ele></ele><time>2017-5-3T6:40:58Z</time></trkpt>
<trkpt lat="47.30466806329786777496337890625" lon="7.33158272691071033477783203125"><ele></ele><time>2017-5-3T6:41:1Z</time></trkpt>
<trkpt lat="47.30468650348484516143798828125" lon="7.33149840496480464935302734375"><ele></ele><time>2017-5-3T6:41:4Z</time></trkpt>
<trkpt lat="47.30470762588083744049072265625" lon="7.3313588462769985198974609375"><ele></ele><time>2017-5-3T6:41:7Z</time></trkpt>
<trkpt lat="47.3047103919088840484619140625" lon="7.3313367180526256561279296875"><ele></ele><time>2017-5-3T6:41:10Z</time></trkpt>
<trkpt lat="47.30472539551556110382080078125" lon="7.33122901059687137603759765625"><ele></ele><time>2017-5-3T6:41:13Z</time></trkpt>
<trkpt lat="47.30475372634828090667724609375" lon="7.3311073891818523406982421875"><ele></ele><time>2017-5-3T6:41:16Z</time></trkpt>
<trkpt lat="47.30479463003575801849365234375" lon="7.3309588618576526641845703125"><ele></ele><time>2017-5-3T6:41:19Z</time></trkpt>
<trkpt lat="47.30481592006981372833251953125" lon="7.3308334685862064361572265625"><ele></ele><time>2017-5-3T6:41:22Z</time></trkpt>
<trkpt lat="47.304835952818393707275390625" lon="7.3307365737855434417724609375"><ele></ele><time>2017-5-3T6:41:25Z</time></trkpt>
<trkpt lat="47.3048713244497776031494140625" lon="7.3305464722216129302978515625"><ele></ele><time>2017-5-3T6:41:28Z</time></trkpt>
<trkpt lat="47.3048931173980236053466796875" lon="7.33038981445133686065673828125"><ele></ele><time>2017-5-3T6:41:31Z</time></trkpt>
<trkpt lat="47.30490862391889095306396484375" lon="7.3302613198757171630859375"><ele></ele><time>2017-5-3T6:41:34Z</time></trkpt>
<trkpt lat="47.30493226088583469390869140625" lon="7.3300923407077789306640625"><ele></ele><time>2017-5-3T6:41:37Z</time></trkpt>
<trkpt lat="47.30494366027414798736572265625" lon="7.3299367725849151611328125"><ele></ele><time>2017-5-3T6:41:40Z</time></trkpt>
<trkpt lat="47.30496059171855449676513671875" lon="7.32978162355720996856689453125"><ele></ele><time>2017-5-3T6:41:43Z</time></trkpt>
<trkpt lat="47.3049665428698062896728515625" lon="7.329617924988269805908203125"><ele></ele><time>2017-5-3T6:41:46Z</time></trkpt>
<trkpt lat="47.30498691089451313018798828125" lon="7.3293961398303508758544921875"><ele></ele><time>2017-5-3T6:41:49Z</time></trkpt>
<trkpt lat="47.305002249777317047119140625" lon="7.32926127500832080841064453125"><ele></ele><time>2017-5-3T6:41:52Z</time></trkpt>
<trkpt lat="47.3050138168036937713623046875" lon="7.32918198220431804656982421875"><ele></ele><time>2017-5-3T6:41:55Z</time></trkpt>
<trkpt lat="47.3050473444163799285888671875" lon="7.328986264765262603759765625"><ele></ele><time>2017-5-3T6:41:58Z</time></trkpt>
<trkpt lat="47.30505748651921749114990234375" lon="7.3288814909756183624267578125"><ele></ele><time>2017-5-3T6:42:1Z</time></trkpt>
<trkpt lat="47.30506553314626216888427734375" lon="7.328773699700832366943359375"><ele></ele><time>2017-5-3T6:42:4Z</time></trkpt>
<trkpt lat="47.30509034357964992523193359375" lon="7.32856976799666881561279296875"><ele></ele><time>2017-5-3T6:42:7Z</time></trkpt>
<trkpt lat="47.30510358698666095733642578125" lon="7.3284794948995113372802734375"><ele></ele><time>2017-5-3T6:42:10Z</time></trkpt>
<trkpt lat="47.30510182678699493408203125" lon="7.32838100753724575042724609375"><ele></ele><time>2017-5-3T6:42:13Z</time></trkpt>
<trkpt lat="47.3051078617572784423828125" lon="7.32824052684009075164794921875"><ele></ele><time>2017-5-3T6:42:16Z</time></trkpt>
<trkpt lat="47.305109202861785888671875" lon="7.32815352268517017364501953125"><ele></ele><time>2017-5-3T6:42:19Z</time></trkpt>
<trkpt lat="47.30511213652789592742919921875" lon="7.32809015549719333648681640625"><ele></ele><time>2017-5-3T6:42:22Z</time></trkpt>
<trkpt lat="47.3051274754106998443603515625" lon="7.3279135487973690032958984375"><ele></ele><time>2017-5-3T6:42:25Z</time></trkpt>
<trkpt lat="47.305163182318210601806640625" lon="7.3276233673095703125"><ele></ele><time>2017-5-3T6:42:28Z</time></trkpt>
<trkpt lat="47.3051807843148708343505859375" lon="7.32746151275932788848876953125"><ele></ele><time>2017-5-3T6:42:31Z</time></trkpt>
<trkpt lat="47.30518757365643978118896484375" lon="7.327226735651493072509765625"><ele></ele><time>2017-5-3T6:42:34Z</time></trkpt>
<trkpt lat="47.305207438766956329345703125" lon="7.3268924653530120849609375"><ele></ele><time>2017-5-3T6:42:37Z</time></trkpt>
<trkpt lat="47.3052605800330638885498046875" lon="7.326509915292263031005859375"><ele></ele><time>2017-5-3T6:42:40Z</time></trkpt>
<trkpt lat="47.3054768331348896026611328125" lon="7.3258978687226772308349609375"><ele></ele><time>2017-5-3T6:42:43Z</time></trkpt>
<trkpt lat="47.30565209873020648956298828125" lon="7.32556334696710109710693359375"><ele></ele><time>2017-5-3T6:42:46Z</time></trkpt>
<trkpt lat="47.30585686862468719482421875" lon="7.32510116882622241973876953125"><ele></ele><time>2017-5-3T6:42:49Z</time></trkpt>
<trkpt lat="47.3060136102139949798583984375" lon="7.324593476951122283935546875"><ele></ele><time>2017-5-3T6:42:52Z</time></trkpt>
<trkpt lat="47.3061554320156574249267578125" lon="7.32425895519554615020751953125"><ele></ele><time>2017-5-3T6:42:55Z</time></trkpt>
<trkpt lat="47.30639389716088771820068359375" lon="7.32348865829408168792724609375"><ele></ele><time>2017-5-3T6:42:58Z</time></trkpt>
<trkpt lat="47.30640362016856670379638671875" lon="7.32342638075351715087890625"><ele></ele><time>2017-5-3T6:43:1Z</time></trkpt>
<trkpt lat="47.30648542754352092742919921875" lon="7.32271559536457061767578125"><ele></ele><time>2017-5-3T6:43:4Z</time></trkpt>
<trkpt lat="47.30657100677490234375" lon="7.3224716819822788238525390625"><ele></ele><time>2017-5-3T6:43:7Z</time></trkpt>
<trkpt lat="47.30690955184400081634521484375" lon="7.321808338165283203125"><ele></ele><time>2017-5-3T6:43:10Z</time></trkpt>
<trkpt lat="47.3069758526980876922607421875" lon="7.32167313806712627410888671875"><ele></ele><time>2017-5-3T6:43:13Z</time></trkpt>
<trkpt lat="47.3073681257665157318115234375" lon="7.3212035000324249267578125"><ele></ele><time>2017-5-3T6:43:16Z</time></trkpt>
<trkpt lat="47.30771589092910289764404296875" lon="7.32082723639905452728271484375"><ele></ele><time>2017-5-3T6:43:19Z</time></trkpt>
<trkpt lat="47.30775092728435993194580078125" lon="7.320596985518932342529296875"><ele></ele><time>2017-5-3T6:43:22Z</time></trkpt>
<trkpt lat="47.30774153955280780792236328125" lon="7.3204617016017436981201171875"><ele></ele><time>2017-5-3T6:43:25Z</time></trkpt>
<trkpt lat="47.30774723924696445465087890625" lon="7.32033857144415378570556640625"><ele></ele><time>2017-5-3T6:43:28Z</time></trkpt>
<trkpt lat="47.30776433832943439483642578125" lon="7.32019121758639812469482421875"><ele></ele><time>2017-5-3T6:43:31Z</time></trkpt>
<trkpt lat="47.30777825228869915008544921875" lon="7.31994495727121829986572265625"><ele></ele><time>2017-5-3T6:43:34Z</time></trkpt>
<trkpt lat="47.3077536933124065399169921875" lon="7.31978620402514934539794921875"><ele></ele><time>2017-5-3T6:43:37Z</time></trkpt>
<trkpt lat="47.3077329061925411224365234375" lon="7.3197133652865886688232421875"><ele></ele><time>2017-5-3T6:43:40Z</time></trkpt>
<trkpt lat="47.307728715240955352783203125" lon="7.3196919076144695281982421875"><ele></ele><time>2017-5-3T6:43:43Z</time></trkpt>
<trkpt lat="47.30772192589938640594482421875" lon="7.31961856596171855926513671875"><ele></ele><time>2017-5-3T6:43:46Z</time></trkpt>
<trkpt lat="47.30772159062325954437255859375" lon="7.3195675201714038848876953125"><ele></ele><time>2017-5-3T6:43:49Z</time></trkpt>
<trkpt lat="47.3077211715281009674072265625" lon="7.3195447213947772979736328125"><ele></ele><time>2017-5-3T6:43:52Z</time></trkpt>
<trkpt lat="47.30772628448903560638427734375" lon="7.31945335865020751953125"><ele></ele><time>2017-5-3T6:43:55Z</time></trkpt>
<trkpt lat="47.30774112045764923095703125" lon="7.319321930408477783203125"><ele></ele><time>2017-5-3T6:43:58Z</time></trkpt>
<trkpt lat="47.3077500052750110626220703125" lon="7.31918714940547943115234375"><ele></ele><time>2017-5-3T6:44:1Z</time></trkpt>
<trkpt lat="47.30778177268803119659423828125" lon="7.3190649412572383880615234375"><ele></ele><time>2017-5-3T6:44:4Z</time></trkpt>
<trkpt lat="47.3077939264476299285888671875" lon="7.3190133087337017059326171875"><ele></ele><time>2017-5-3T6:44:7Z</time></trkpt>
<trkpt lat="47.30779753066599369049072265625" lon="7.3190153203904628753662109375"><ele></ele><time>2017-5-3T6:44:10Z</time></trkpt>
<trkpt lat="47.3077969439327716827392578125" lon="7.31901506893336772918701171875"><ele></ele><time>2017-5-3T6:44:13Z</time></trkpt>
<trkpt lat="47.3077899031341075897216796875" lon="7.31901506893336772918701171875"><ele></ele><time>2017-5-3T6:44:16Z</time></trkpt>
<trkpt lat="47.30778814293444156646728515625" lon="7.3190307430922985076904296875"><ele></ele><time>2017-5-3T6:44:19Z</time></trkpt>
<trkpt lat="47.307786382734775543212890625" lon="7.3190300725400447845458984375"><ele></ele><time>2017-5-3T6:44:22Z</time></trkpt>
<trkpt lat="47.30778269469738006591796875" lon="7.31903384439647197723388671875"><ele></ele><time>2017-5-3T6:44:25Z</time></trkpt>
<trkpt lat="47.30778378434479236602783203125" lon="7.3190327547490596771240234375"><ele></ele><time>2017-5-3T6:44:28Z</time></trkpt>
<trkpt lat="47.30778546072542667388916015625" lon="7.3190314136445522308349609375"><ele></ele><time>2017-5-3T6:44:31Z</time></trkpt>
<trkpt lat="47.30778562836349010467529296875" lon="7.31903158128261566162109375"><ele></ele><time>2017-5-3T6:44:34Z</time></trkpt>
<trkpt lat="47.30778579600155353546142578125" lon="7.31903132982552051544189453125"><ele></ele><time>2017-5-3T6:44:37Z</time></trkpt>
<trkpt lat="47.30778562836349010467529296875" lon="7.31903132982552051544189453125"><ele></ele><time>2017-5-3T6:44:40Z</time></trkpt>
<trkpt lat="47.30778562836349010467529296875" lon="7.319031246006488800048828125"><ele></ele><time>2017-5-3T6:44:43Z</time></trkpt>
<trkpt lat="47.307785712182521820068359375" lon="7.3190307430922985076904296875"><ele></ele><time>2017-5-3T6:44:46Z</time></trkpt>
<trkpt lat="47.30778546072542667388916015625" lon="7.3190314136445522308349609375"><ele></ele><time>2017-5-3T6:44:49Z</time></trkpt>
<trkpt lat="47.307785712182521820068359375" lon="7.31903149746358394622802734375"><ele></ele><time>2017-5-3T6:44:52Z</time></trkpt>
<trkpt lat="47.307786047458648681640625" lon="7.31903149746358394622802734375"><ele></ele><time>2017-5-3T6:44:55Z</time></trkpt>
<trkpt lat="47.30778596363961696624755859375" lon="7.3190309107303619384765625"><ele></ele><time>2017-5-3T6:44:58Z</time></trkpt>
<trkpt lat="47.307786047458648681640625" lon="7.31903099454939365386962890625"><ele></ele><time>2017-5-3T6:45:1Z</time></trkpt>
<trkpt lat="47.3077858798205852508544921875" lon="7.3190310783684253692626953125"><ele></ele><time>2017-5-3T6:45:4Z</time></trkpt>
<trkpt lat="47.30778546072542667388916015625" lon="7.31903116218745708465576171875"><ele></ele><time>2017-5-3T6:45:7Z</time></trkpt>
<trkpt lat="47.3077855445444583892822265625" lon="7.3190317489206790924072265625"><ele></ele><time>2017-5-3T6:45:10Z</time></trkpt>
<trkpt lat="47.30778546072542667388916015625" lon="7.31903166510164737701416015625"><ele></ele><time>2017-5-3T6:45:13Z</time></trkpt>
<trkpt lat="47.3077855445444583892822265625" lon="7.3190317489206790924072265625"><ele></ele><time>2017-5-3T6:45:16Z</time></trkpt>
<trkpt lat="47.30778579600155353546142578125" lon="7.3190314136445522308349609375"><ele></ele><time>2017-5-3T6:45:19Z</time></trkpt>
<trkpt lat="47.30778579600155353546142578125" lon="7.31903149746358394622802734375"><ele></ele><time>2017-5-3T6:45:22Z</time></trkpt>
<trkpt lat="47.3077862150967121124267578125" lon="7.31903166510164737701416015625"><ele></ele><time>2017-5-3T6:45:25Z</time></trkpt>
<trkpt lat="47.307786047458648681640625" lon="7.319031246006488800048828125"><ele></ele><time>2017-5-3T6:45:28Z</time></trkpt>
<trkpt lat="47.3077862150967121124267578125" lon="7.31902931816875934600830078125"><ele></ele><time>2017-5-3T6:45:31Z</time></trkpt>
<trkpt lat="47.30778562836349010467529296875" lon="7.3190280608832836151123046875"><ele></ele><time>2017-5-3T6:45:34Z</time></trkpt>
<trkpt lat="47.3077848739922046661376953125" lon="7.31902847997844219207763671875"><ele></ele><time>2017-5-3T6:45:37Z</time></trkpt>
<trkpt lat="47.3077858798205852508544921875" lon="7.319027893245220184326171875"><ele></ele><time>2017-5-3T6:45:40Z</time></trkpt>
<trkpt lat="47.30778596363961696624755859375" lon="7.31902814470231533050537109375"><ele></ele><time>2017-5-3T6:45:43Z</time></trkpt>
<trkpt lat="47.30778613127768039703369140625" lon="7.31902814470231533050537109375"><ele></ele><time>2017-5-3T6:45:46Z</time></trkpt>
<trkpt lat="47.30778579600155353546142578125" lon="7.3190280608832836151123046875"><ele></ele><time>2017-5-3T6:45:49Z</time></trkpt>
<trkpt lat="47.30778629891574382781982421875" lon="7.31902965344488620758056640625"><ele></ele><time>2017-5-3T6:45:52Z</time></trkpt>
<trkpt lat="47.307789064943790435791015625" lon="7.3190106265246868133544921875"><ele></ele><time>2017-5-3T6:45:55Z</time></trkpt>
<trkpt lat="47.3078115284442901611328125" lon="7.31883401982486248016357421875"><ele></ele><time>2017-5-3T6:45:58Z</time></trkpt>
<trkpt lat="47.30782871134579181671142578125" lon="7.31854668818414211273193359375"><ele></ele><time>2017-5-3T6:46:1Z</time></trkpt>
<trkpt lat="47.30783156119287014007568359375" lon="7.31831870041787624359130859375"><ele></ele><time>2017-5-3T6:46:4Z</time></trkpt>
<trkpt lat="47.30782150290906429290771484375" lon="7.31820889748632907867431640625"><ele></ele><time>2017-5-3T6:46:7Z</time></trkpt>
<trkpt lat="47.30781898833811283111572265625" lon="7.3181432671844959259033203125"><ele></ele><time>2017-5-3T6:46:10Z</time></trkpt>
<trkpt lat="47.30780255980789661407470703125" lon="7.318034134805202484130859375"><ele></ele><time>2017-5-3T6:46:13Z</time></trkpt>
<trkpt lat="47.30780540965497493743896484375" lon="7.31794771738350391387939453125"><ele></ele><time>2017-5-3T6:46:16Z</time></trkpt>
<trkpt lat="47.30780675075948238372802734375" lon="7.31788870878517627716064453125"><ele></ele><time>2017-5-3T6:46:19Z</time></trkpt>
<trkpt lat="47.30780540965497493743896484375" lon="7.31779969297349452972412109375"><ele></ele><time>2017-5-3T6:46:22Z</time></trkpt>
<trkpt lat="47.30780306272208690643310546875" lon="7.3176256008446216583251953125"><ele></ele><time>2017-5-3T6:46:25Z</time></trkpt>
<trkpt lat="47.3078002966940402984619140625" lon="7.31753784231841564178466796875"><ele></ele><time>2017-5-3T6:46:28Z</time></trkpt>
<trkpt lat="47.3077674396336078643798828125" lon="7.31730264611542224884033203125"><ele></ele><time>2017-5-3T6:46:31Z</time></trkpt>
<trkpt lat="47.307773642241954803466796875" lon="7.31673401780426502227783203125"><ele></ele><time>2017-5-3T6:46:34Z</time></trkpt>
<trkpt lat="47.307803146541118621826171875" lon="7.31659571640193462371826171875"><ele></ele><time>2017-5-3T6:46:37Z</time></trkpt>
<trkpt lat="47.30785645544528961181640625" lon="7.31640075333416461944580078125"><ele></ele><time>2017-5-3T6:46:40Z</time></trkpt>
<trkpt lat="47.3079119436442852020263671875" lon="7.31611602008342742919921875"><ele></ele><time>2017-5-3T6:46:43Z</time></trkpt>
<trkpt lat="47.30797958560287952423095703125" lon="7.31566247530281543731689453125"><ele></ele><time>2017-5-3T6:46:46Z</time></trkpt>
<trkpt lat="47.30799115262925624847412109375" lon="7.31553473509848117828369140625"><ele></ele><time>2017-5-3T6:46:49Z</time></trkpt>
<trkpt lat="47.3079994507133960723876953125" lon="7.31538486666977405548095703125"><ele></ele><time>2017-5-3T6:46:52Z</time></trkpt>
<trkpt lat="47.30805217288434505462646484375" lon="7.3149913363158702850341796875"><ele></ele><time>2017-5-3T6:46:55Z</time></trkpt>
<trkpt lat="47.3080665059387683868408203125" lon="7.31491363607347011566162109375"><ele></ele><time>2017-5-3T6:46:58Z</time></trkpt>
<trkpt lat="47.3081077449023723602294921875" lon="7.3146617598831653594970703125"><ele></ele><time>2017-5-3T6:47:1Z</time></trkpt>
<trkpt lat="47.30812995694577693939208984375" lon="7.3143918626010417938232421875"><ele></ele><time>2017-5-3T6:47:4Z</time></trkpt>
<trkpt lat="47.30813364498317241668701171875" lon="7.3140958137810230255126953125"><ele></ele><time>2017-5-3T6:47:7Z</time></trkpt>
<trkpt lat="47.30814018286764621734619140625" lon="7.313930690288543701171875"><ele></ele><time>2017-5-3T6:47:10Z</time></trkpt>
<trkpt lat="47.30814772658050060272216796875" lon="7.31385902501642704010009765625"><ele></ele><time>2017-5-3T6:47:13Z</time></trkpt>
<trkpt lat="47.30815644375979900360107421875" lon="7.31378928758203983306884765625"><ele></ele><time>2017-5-3T6:47:16Z</time></trkpt>
<trkpt lat="47.308179326355457305908203125" lon="7.31363925151526927947998046875"><ele></ele><time>2017-5-3T6:47:19Z</time></trkpt>
<trkpt lat="47.30819650925695896148681640625" lon="7.3135617189109325408935546875"><ele></ele><time>2017-5-3T6:47:22Z</time></trkpt>
<trkpt lat="47.30825216509401798248291015625" lon="7.3132629878818988800048828125"><ele></ele><time>2017-5-3T6:47:25Z</time></trkpt>
<trkpt lat="47.3083184659481048583984375" lon="7.31284531764686107635498046875"><ele></ele><time>2017-5-3T6:47:28Z</time></trkpt>
<trkpt lat="47.30835241265594959259033203125" lon="7.3126608319580554962158203125"><ele></ele><time>2017-5-3T6:47:31Z</time></trkpt>
<trkpt lat="47.30837680399417877197265625" lon="7.31257617473602294921875"><ele></ele><time>2017-5-3T6:47:34Z</time></trkpt>
<trkpt lat="47.30841427110135555267333984375" lon="7.31242337264120578765869140625"><ele></ele><time>2017-5-3T6:47:37Z</time></trkpt>
<trkpt lat="47.30846104212105274200439453125" lon="7.3122357018291950225830078125"><ele></ele><time>2017-5-3T6:47:40Z</time></trkpt>
<trkpt lat="47.30848166160285472869873046875" lon="7.31210745871067047119140625"><ele></ele><time>2017-5-3T6:47:43Z</time></trkpt>
<trkpt lat="47.30847981758415699005126953125" lon="7.31203646399080753326416015625"><ele></ele><time>2017-5-3T6:47:46Z</time></trkpt>
<trkpt lat="47.3084792308509349822998046875" lon="7.3120063729584217071533203125"><ele></ele><time>2017-5-3T6:47:49Z</time></trkpt>
<trkpt lat="47.3084758780896663665771484375" lon="7.31195583008229732513427734375"><ele></ele><time>2017-5-3T6:47:52Z</time></trkpt>
<trkpt lat="47.30846942402422428131103515625" lon="7.3119359649717807769775390625"><ele></ele><time>2017-5-3T6:47:55Z</time></trkpt>
<trkpt lat="47.308461628854274749755859375" lon="7.31191475875675678253173828125"><ele></ele><time>2017-5-3T6:47:58Z</time></trkpt>
<trkpt lat="47.30844947509467601776123046875" lon="7.3118736036121845245361328125"><ele></ele><time>2017-5-3T6:48:1Z</time></trkpt>
<trkpt lat="47.30843841098248958587646484375" lon="7.31182985007762908935546875"><ele></ele><time>2017-5-3T6:48:4Z</time></trkpt>
<trkpt lat="47.3084284365177154541015625" lon="7.31176824308931827545166015625"><ele></ele><time>2017-5-3T6:48:7Z</time></trkpt>
<trkpt lat="47.3084094934165477752685546875" lon="7.311686687171459197998046875"><ele></ele><time>2017-5-3T6:48:10Z</time></trkpt>
<trkpt lat="47.30838778428733348846435546875" lon="7.3115933127701282501220703125"><ele></ele><time>2017-5-3T6:48:13Z</time></trkpt>
<trkpt lat="47.3083826713263988494873046875" lon="7.3115074820816516876220703125"><ele></ele><time>2017-5-3T6:48:16Z</time></trkpt>
<trkpt lat="47.308376468718051910400390625" lon="7.3114005289971828460693359375"><ele></ele><time>2017-5-3T6:48:19Z</time></trkpt>
<trkpt lat="47.3083752952516078948974609375" lon="7.31130271218717098236083984375"><ele></ele><time>2017-5-3T6:48:22Z</time></trkpt>
<trkpt lat="47.3083957470953464508056640625" lon="7.3108823597431182861328125"><ele></ele><time>2017-5-3T6:48:25Z</time></trkpt>
<trkpt lat="47.30843388475477695465087890625" lon="7.31060315854847431182861328125"><ele></ele><time>2017-5-3T6:48:28Z</time></trkpt>
<trkpt lat="47.3084591142833232879638671875" lon="7.31042244471609592437744140625"><ele></ele><time>2017-5-3T6:48:31Z</time></trkpt>
<trkpt lat="47.3085395805537700653076171875" lon="7.30999865569174289703369140625"><ele></ele><time>2017-5-3T6:48:34Z</time></trkpt>
<trkpt lat="47.30861208401620388031005859375" lon="7.309557683765888214111328125"><ele></ele><time>2017-5-3T6:48:37Z</time></trkpt>
<trkpt lat="47.308684252202510833740234375" lon="7.30920396745204925537109375"><ele></ele><time>2017-5-3T6:48:40Z</time></trkpt>
<trkpt lat="47.308715768158435821533203125" lon="7.309031970798969268798828125"><ele></ele><time>2017-5-3T6:48:43Z</time></trkpt>
<trkpt lat="47.30874367989599704742431640625" lon="7.30886978097259998321533203125"><ele></ele><time>2017-5-3T6:48:46Z</time></trkpt>
<trkpt lat="47.30878927744925022125244140625" lon="7.308598458766937255859375"><ele></ele><time>2017-5-3T6:48:49Z</time></trkpt>
<trkpt lat="47.30882733128964900970458984375" lon="7.307987250387668609619140625"><ele></ele><time>2017-5-3T6:48:52Z</time></trkpt>
<trkpt lat="47.30883738957345485687255859375" lon="7.30751241557300090789794921875"><ele></ele><time>2017-5-3T6:48:55Z</time></trkpt>
<trkpt lat="47.30885448865592479705810546875" lon="7.307241596281528472900390625"><ele></ele><time>2017-5-3T6:48:58Z</time></trkpt>
<trkpt lat="47.3088590987026691436767578125" lon="7.30704939924180507659912109375"><ele></ele><time>2017-5-3T6:49:1Z</time></trkpt>
<trkpt lat="47.3088520579040050506591796875" lon="7.306944541633129119873046875"><ele></ele><time>2017-5-3T6:49:4Z</time></trkpt>
<trkpt lat="47.3088416643440723419189453125" lon="7.3067240975797176361083984375"><ele></ele><time>2017-5-3T6:49:7Z</time></trkpt>
<trkpt lat="47.30885499157011508941650390625" lon="7.30640910565853118896484375"><ele></ele><time>2017-5-3T6:49:10Z</time></trkpt>
<trkpt lat="47.3088817298412322998046875" lon="7.30612889863550662994384765625"><ele></ele><time>2017-5-3T6:49:13Z</time></trkpt>
<trkpt lat="47.30890109203755855560302734375" lon="7.3059470951557159423828125"><ele></ele><time>2017-5-3T6:49:16Z</time></trkpt>
<trkpt lat="47.30892556719481945037841796875" lon="7.3056820593774318695068359375"><ele></ele><time>2017-5-3T6:49:19Z</time></trkpt>
<trkpt lat="47.3089358769357204437255859375" lon="7.30560243129730224609375"><ele></ele><time>2017-5-3T6:49:22Z</time></trkpt>
<trkpt lat="47.30895892716944217681884765625" lon="7.3054423369467258453369140625"><ele></ele><time>2017-5-3T6:49:25Z</time></trkpt>
<trkpt lat="47.30897736735641956329345703125" lon="7.3053652234375476837158203125"><ele></ele><time>2017-5-3T6:49:28Z</time></trkpt>
<trkpt lat="47.30912907980382442474365234375" lon="7.3046980239450931549072265625"><ele></ele><time>2017-5-3T6:49:31Z</time></trkpt>
<trkpt lat="47.30921256355941295623779296875" lon="7.30435512028634548187255859375"><ele></ele><time>2017-5-3T6:49:34Z</time></trkpt>
<trkpt lat="47.3092517070472240447998046875" lon="7.30398246087133884429931640625"><ele></ele><time>2017-5-3T6:49:37Z</time></trkpt>
<trkpt lat="47.30928749777376651763916015625" lon="7.30379738844931125640869140625"><ele></ele><time>2017-5-3T6:49:40Z</time></trkpt>
<trkpt lat="47.30930744670331478118896484375" lon="7.30363167822360992431640625"><ele></ele><time>2017-5-3T6:49:43Z</time></trkpt>
<trkpt lat="47.30930409394204616546630859375" lon="7.30347200296819210052490234375"><ele></ele><time>2017-5-3T6:49:46Z</time></trkpt>
<trkpt lat="47.3093083687126636505126953125" lon="7.303215600550174713134765625"><ele></ele><time>2017-5-3T6:49:49Z</time></trkpt>
<trkpt lat="47.30931230820715427398681640625" lon="7.3031279258430004119873046875"><ele></ele><time>2017-5-3T6:49:52Z</time></trkpt>
<trkpt lat="47.309334687888622283935546875" lon="7.3024748079478740692138671875"><ele></ele><time>2017-5-3T6:49:55Z</time></trkpt>
<trkpt lat="47.3093315027654170989990234375" lon="7.3023849539458751678466796875"><ele></ele><time>2017-5-3T6:49:58Z</time></trkpt>
<trkpt lat="47.3093335144221782684326171875" lon="7.301908694207668304443359375"><ele></ele><time>2017-5-3T6:50:1Z</time></trkpt>
<trkpt lat="47.30932756327092647552490234375" lon="7.3017613403499126434326171875"><ele></ele><time>2017-5-3T6:50:4Z</time></trkpt>
<trkpt lat="47.30937860906124114990234375" lon="7.301374264061450958251953125"><ele></ele><time>2017-5-3T6:50:7Z</time></trkpt>
<trkpt lat="47.3093781061470508575439453125" lon="7.3012812249362468719482421875"><ele></ele><time>2017-5-3T6:50:10Z</time></trkpt>
<trkpt lat="47.30936042033135890960693359375" lon="7.30109036900103092193603515625"><ele></ele><time>2017-5-3T6:50:13Z</time></trkpt>
<trkpt lat="47.30937014333903789520263671875" lon="7.300807647407054901123046875"><ele></ele><time>2017-5-3T6:50:16Z</time></trkpt>
<trkpt lat="47.30938187800347805023193359375" lon="7.30070681311190128326416015625"><ele></ele><time>2017-5-3T6:50:19Z</time></trkpt>
<trkpt lat="47.30939914472401142120361328125" lon="7.300519309937953948974609375"><ele></ele><time>2017-5-3T6:50:22Z</time></trkpt>
<trkpt lat="47.30941154994070529937744140625" lon="7.30034035630524158477783203125"><ele></ele><time>2017-5-3T6:50:25Z</time></trkpt>
<trkpt lat="47.30942420661449432373046875" lon="7.30016953311860561370849609375"><ele></ele><time>2017-5-3T6:50:28Z</time></trkpt>
<trkpt lat="47.30944759212434291839599609375" lon="7.29992218315601348876953125"><ele></ele><time>2017-5-3T6:50:31Z</time></trkpt>
<trkpt lat="47.30948748998343944549560546875" lon="7.29967634193599224090576171875"><ele></ele><time>2017-5-3T6:50:34Z</time></trkpt>
<trkpt lat="47.30959025211632251739501953125" lon="7.299215085804462432861328125"><ele></ele><time>2017-5-3T6:50:37Z</time></trkpt>
<trkpt lat="47.3095983825623989105224609375" lon="7.2990613617002964019775390625"><ele></ele><time>2017-5-3T6:50:40Z</time></trkpt>
<trkpt lat="47.3096000589430332183837890625" lon="7.29856557212769985198974609375"><ele></ele><time>2017-5-3T6:50:43Z</time></trkpt>
<trkpt lat="47.30961657129228115081787109375" lon="7.29842559434473514556884765625"><ele></ele><time>2017-5-3T6:50:46Z</time></trkpt>
<trkpt lat="47.30963115580379962921142578125" lon="7.2982865385711193084716796875"><ele></ele><time>2017-5-3T6:50:49Z</time></trkpt>
<trkpt lat="47.30970961041748523712158203125" lon="7.29744591750204563140869140625"><ele></ele><time>2017-5-3T6:50:52Z</time></trkpt>
<trkpt lat="47.3097489215433597564697265625" lon="7.29717467911541461944580078125"><ele></ele><time>2017-5-3T6:50:55Z</time></trkpt>
<trkpt lat="47.3097687028348445892333984375" lon="7.29668534360826015472412109375"><ele></ele><time>2017-5-3T6:50:58Z</time></trkpt>
<trkpt lat="47.3097831197082996368408203125" lon="7.296481244266033172607421875"><ele></ele><time>2017-5-3T6:51:1Z</time></trkpt>
<trkpt lat="47.30982477776706218719482421875" lon="7.29616147466003894805908203125"><ele></ele><time>2017-5-3T6:51:4Z</time></trkpt>
<trkpt lat="47.30986350215971469879150390625" lon="7.2957773320376873016357421875"><ele></ele><time>2017-5-3T6:51:7Z</time></trkpt>
<trkpt lat="47.3099143803119659423828125" lon="7.29492799378931522369384765625"><ele></ele><time>2017-5-3T6:51:10Z</time></trkpt>
<trkpt lat="47.30993759818375110626220703125" lon="7.29475356638431549072265625"><ele></ele><time>2017-5-3T6:51:13Z</time></trkpt>
<trkpt lat="47.3099645040929317474365234375" lon="7.29450252838432788848876953125"><ele></ele><time>2017-5-3T6:51:16Z</time></trkpt>
<trkpt lat="47.30997095815837383270263671875" lon="7.29433220811188220977783203125"><ele></ele><time>2017-5-3T6:51:19Z</time></trkpt>
<trkpt lat="47.30998906306922435760498046875" lon="7.2936342470347881317138671875"><ele></ele><time>2017-5-3T6:51:22Z</time></trkpt>
<trkpt lat="47.30999627150595188140869140625" lon="7.29348412714898586273193359375"><ele></ele><time>2017-5-3T6:51:25Z</time></trkpt>
<trkpt lat="47.310023345053195953369140625" lon="7.293054722249507904052734375"><ele></ele><time>2017-5-3T6:51:28Z</time></trkpt>
<trkpt lat="47.3099765740334987640380859375" lon="7.29222231544554233551025390625"><ele></ele><time>2017-5-3T6:51:31Z</time></trkpt>
<trkpt lat="47.3099626600742340087890625" lon="7.2920128516852855682373046875"><ele></ele><time>2017-5-3T6:51:34Z</time></trkpt>
<trkpt lat="47.30995922349393367767333984375" lon="7.2917070798575878143310546875"><ele></ele><time>2017-5-3T6:51:37Z</time></trkpt>
<trkpt lat="47.31002074666321277618408203125" lon="7.29086008854210376739501953125"><ele></ele><time>2017-5-3T6:51:40Z</time></trkpt>
<trkpt lat="47.31003080494701862335205078125" lon="7.2905828990042209625244140625"><ele></ele><time>2017-5-3T6:51:43Z</time></trkpt>
<trkpt lat="47.3100406117737293243408203125" lon="7.29039363563060760498046875"><ele></ele><time>2017-5-3T6:51:46Z</time></trkpt>
<trkpt lat="47.3101589642465114593505859375" lon="7.28989231400191783905029296875"><ele></ele><time>2017-5-3T6:51:49Z</time></trkpt>
<trkpt lat="47.3101767338812351226806640625" lon="7.2898261807858943939208984375"><ele></ele><time>2017-5-3T6:51:52Z</time></trkpt>
<trkpt lat="47.31027639470994472503662109375" lon="7.28944036178290843963623046875"><ele></ele><time>2017-5-3T6:51:55Z</time></trkpt>
<trkpt lat="47.31033883988857269287109375" lon="7.28922259993851184844970703125"><ele></ele><time>2017-5-3T6:51:58Z</time></trkpt>
<trkpt lat="47.31042073108255863189697265625" lon="7.28893426246941089630126953125"><ele></ele><time>2017-5-3T6:52:1Z</time></trkpt>
<trkpt lat="47.3105393350124359130859375" lon="7.28847677819430828094482421875"><ele></ele><time>2017-5-3T6:52:4Z</time></trkpt>
<trkpt lat="47.310625500977039337158203125" lon="7.2881826572120189666748046875"><ele></ele><time>2017-5-3T6:52:7Z</time></trkpt>
<trkpt lat="47.31065056286752223968505859375" lon="7.288126163184642791748046875"><ele></ele><time>2017-5-3T6:52:10Z</time></trkpt>
<trkpt lat="47.31072507798671722412109375" lon="7.28795190341770648956298828125"><ele></ele><time>2017-5-3T6:52:13Z</time></trkpt>
<trkpt lat="47.31074712239205837249755859375" lon="7.287891469895839691162109375"><ele></ele><time>2017-5-3T6:52:16Z</time></trkpt>
<trkpt lat="47.31082909740507602691650390625" lon="7.28764847852289676666259765625"><ele></ele><time>2017-5-3T6:52:19Z</time></trkpt>
<trkpt lat="47.31093487702310085296630859375" lon="7.28722871281206607818603515625"><ele></ele><time>2017-5-3T6:52:22Z</time></trkpt>
<trkpt lat="47.3111674748361110687255859375" lon="7.28641181252896785736083984375"><ele></ele><time>2017-5-3T6:52:25Z</time></trkpt>
<trkpt lat="47.31119471602141857147216796875" lon="7.28631257079541683197021484375"><ele></ele><time>2017-5-3T6:52:28Z</time></trkpt>
<trkpt lat="47.3112590052187442779541015625" lon="7.28600428439676761627197265625"><ele></ele><time>2017-5-3T6:52:31Z</time></trkpt>
<trkpt lat="47.3112978972494602203369140625" lon="7.28580663911998271942138671875"><ele></ele><time>2017-5-3T6:52:34Z</time></trkpt>
<trkpt lat="47.31136822141706943511962890625" lon="7.28551561944186687469482421875"><ele></ele><time>2017-5-3T6:52:37Z</time></trkpt>
<trkpt lat="47.3115010745823383331298828125" lon="7.28500382043421268463134765625"><ele></ele><time>2017-5-3T6:52:40Z</time></trkpt>
<trkpt lat="47.3115751706063747406005859375" lon="7.2846900857985019683837890625"><ele></ele><time>2017-5-3T6:52:43Z</time></trkpt>
<trkpt lat="47.31162403710186481475830078125" lon="7.28449185378849506378173828125"><ele></ele><time>2017-5-3T6:52:46Z</time></trkpt>
<trkpt lat="47.311672903597354888916015625" lon="7.284293286502361297607421875"><ele></ele><time>2017-5-3T6:52:49Z</time></trkpt>
<trkpt lat="47.311751358211040496826171875" lon="7.283982150256633758544921875"><ele></ele><time>2017-5-3T6:52:52Z</time></trkpt>
<trkpt lat="47.31188647449016571044921875" lon="7.2834609635174274444580078125"><ele></ele><time>2017-5-3T6:52:55Z</time></trkpt>
<trkpt lat="47.31196425855159759521484375" lon="7.2831590473651885986328125"><ele></ele><time>2017-5-3T6:52:58Z</time></trkpt>
<trkpt lat="47.3120150528848171234130859375" lon="7.28295729495584964752197265625"><ele></ele><time>2017-5-3T6:53:1Z</time></trkpt>
<trkpt lat="47.3120811022818088531494140625" lon="7.282348014414310455322265625"><ele></ele><time>2017-5-3T6:53:4Z</time></trkpt>
<trkpt lat="47.3120868019759654998779296875" lon="7.28225715458393096923828125"><ele></ele><time>2017-5-3T6:53:7Z</time></trkpt>
<trkpt lat="47.3121672682464122772216796875" lon="7.2818999178707599639892578125"><ele></ele><time>2017-5-3T6:53:10Z</time></trkpt>
<trkpt lat="47.3122705332934856414794921875" lon="7.28162490762770175933837890625"><ele></ele><time>2017-5-3T6:53:13Z</time></trkpt>
<trkpt lat="47.31231437064707279205322265625" lon="7.28154377080500125885009765625"><ele></ele><time>2017-5-3T6:53:16Z</time></trkpt>
<trkpt lat="47.31278744526207447052001953125" lon="7.28141787461936473846435546875"><ele></ele><time>2017-5-3T6:53:19Z</time></trkpt>
<trkpt lat="47.31330402195453643798828125" lon="7.28175868280231952667236328125"><ele></ele><time>2017-5-3T6:53:22Z</time></trkpt>
<trkpt lat="47.31352991424500942230224609375" lon="7.28190704248845577239990234375"><ele></ele><time>2017-5-3T6:53:25Z</time></trkpt>
<trkpt lat="47.3136636056005954742431640625" lon="7.2819941304624080657958984375"><ele></ele><time>2017-5-3T6:53:28Z</time></trkpt>
<trkpt lat="47.3137739114463329315185546875" lon="7.28206831030547618865966796875"><ele></ele><time>2017-5-3T6:53:31Z</time></trkpt>
<trkpt lat="47.3138238675892353057861328125" lon="7.28210854344069957733154296875"><ele></ele><time>2017-5-3T6:53:34Z</time></trkpt>
<trkpt lat="47.31385429389774799346923828125" lon="7.28212832473218441009521484375"><ele></ele><time>2017-5-3T6:53:37Z</time></trkpt>
<trkpt lat="47.313864268362522125244140625" lon="7.2820977307856082916259765625"><ele></ele><time>2017-5-3T6:53:40Z</time></trkpt>
<trkpt lat="47.31388480402529239654541015625" lon="7.28212698362767696380615234375"><ele></ele><time>2017-5-3T6:53:43Z</time></trkpt>
<trkpt lat="47.31390609405934810638427734375" lon="7.28211608715355396270751953125"><ele></ele><time>2017-5-3T6:53:46Z</time></trkpt>
<trkpt lat="47.31389838270843029022216796875" lon="7.28211055509746074676513671875"><ele></ele><time>2017-5-3T6:53:49Z</time></trkpt>
<trkpt lat="47.31389938853681087493896484375" lon="7.28210887871682643890380859375"><ele></ele><time>2017-5-3T6:53:52Z</time></trkpt>
<trkpt lat="47.31389871798455715179443359375" lon="7.28210921399295330047607421875"><ele></ele><time>2017-5-3T6:53:55Z</time></trkpt>
<trkpt lat="47.3138986341655254364013671875" lon="7.28211097419261932373046875"><ele></ele><time>2017-5-3T6:53:58Z</time></trkpt>
<trkpt lat="47.31389972381293773651123046875" lon="7.282109968364238739013671875"><ele></ele><time>2017-5-3T6:54:1Z</time></trkpt>
<trkpt lat="47.313994355499744415283203125" lon="7.28216017596423625946044921875"><ele></ele><time>2017-5-3T6:54:4Z</time></trkpt>
<trkpt lat="47.3141306452453136444091796875" lon="7.2822620160877704620361328125"><ele></ele><time>2017-5-3T6:54:7Z</time></trkpt>
<trkpt lat="47.31422712095081806182861328125" lon="7.282352708280086517333984375"><ele></ele><time>2017-5-3T6:54:10Z</time></trkpt>
<trkpt lat="47.31425964273512363433837890625" lon="7.28240408934652805328369140625"><ele></ele><time>2017-5-3T6:54:13Z</time></trkpt>
<trkpt lat="47.31436081230640411376953125" lon="7.28257843293249607086181640625"><ele></ele><time>2017-5-3T6:54:16Z</time></trkpt>
<trkpt lat="47.31443616561591625213623046875" lon="7.282761074602603912353515625"><ele></ele><time>2017-5-3T6:54:19Z</time></trkpt>
<trkpt lat="47.31449165381491184234619140625" lon="7.2828598134219646453857421875"><ele></ele><time>2017-5-3T6:54:22Z</time></trkpt>
<trkpt lat="47.3145564459264278411865234375" lon="7.28292041458189487457275390625"><ele></ele><time>2017-5-3T6:54:25Z</time></trkpt>
<trkpt lat="47.314625680446624755859375" lon="7.2829251922667026519775390625"><ele></ele><time>2017-5-3T6:54:28Z</time></trkpt>
<trkpt lat="47.3147150315344333648681640625" lon="7.28279896080493927001953125"><ele></ele><time>2017-5-3T6:54:31Z</time></trkpt>
<trkpt lat="47.31473942287266254425048828125" lon="7.28273383341729640960693359375"><ele></ele><time>2017-5-3T6:54:34Z</time></trkpt>
<trkpt lat="47.31475953944027423858642578125" lon="7.2826588153839111328125"><ele></ele><time>2017-5-3T6:54:37Z</time></trkpt>
<trkpt lat="47.3148025386035442352294921875" lon="7.28248271159827709197998046875"><ele></ele><time>2017-5-3T6:54:40Z</time></trkpt>
<trkpt lat="47.31485643424093723297119140625" lon="7.28227794170379638671875"><ele></ele><time>2017-5-3T6:54:43Z</time></trkpt>
<trkpt lat="47.31488510034978389739990234375" lon="7.2821667976677417755126953125"><ele></ele><time>2017-5-3T6:54:46Z</time></trkpt>
<trkpt lat="47.31494243256747722625732421875" lon="7.28193805553019046783447265625"><ele></ele><time>2017-5-3T6:54:49Z</time></trkpt>
<trkpt lat="47.31497227214276790618896484375" lon="7.28182238526642322540283203125"><ele></ele><time>2017-5-3T6:54:52Z</time></trkpt>
<trkpt lat="47.31499976478517055511474609375" lon="7.2817054577171802520751953125"><ele></ele><time>2017-5-3T6:54:55Z</time></trkpt>
<trkpt lat="47.31505324132740497589111328125" lon="7.28148258291184902191162109375"><ele></ele><time>2017-5-3T6:54:58Z</time></trkpt>
<trkpt lat="47.31510269455611705780029296875" lon="7.28126046247780323028564453125"><ele></ele><time>2017-5-3T6:55:1Z</time></trkpt>
<trkpt lat="47.31515332125127315521240234375" lon="7.28089769370853900909423828125"><ele></ele><time>2017-5-3T6:55:4Z</time></trkpt>
<trkpt lat="47.31517880223691463470458984375" lon="7.28065855801105499267578125"><ele></ele><time>2017-5-3T6:55:7Z</time></trkpt>
<trkpt lat="47.3151944763958454132080078125" lon="7.28042386472225189208984375"><ele></ele><time>2017-5-3T6:55:10Z</time></trkpt>
<trkpt lat="47.31520344503223896026611328125" lon="7.2801990620791912078857421875"><ele></ele><time>2017-5-3T6:55:13Z</time></trkpt>
<trkpt lat="47.31520168483257293701171875" lon="7.27997082285583019256591796875"><ele></ele><time>2017-5-3T6:55:16Z</time></trkpt>
<trkpt lat="47.3151948116719722747802734375" lon="7.27975306101143360137939453125"><ele></ele><time>2017-5-3T6:55:19Z</time></trkpt>
<trkpt lat="47.3151887767016887664794921875" lon="7.27945315651595592498779296875"><ele></ele><time>2017-5-3T6:55:22Z</time></trkpt>
<trkpt lat="47.31520813889801502227783203125" lon="7.27888318710029125213623046875"><ele></ele><time>2017-5-3T6:55:25Z</time></trkpt>
<trkpt lat="47.31519456021487712860107421875" lon="7.27816083468496799468994140625"><ele></ele><time>2017-5-3T6:55:28Z</time></trkpt>
<trkpt lat="47.3152474500238895416259765625" lon="7.2775761969387531280517578125"><ele></ele><time>2017-5-3T6:55:31Z</time></trkpt>
<trkpt lat="47.3153088055551052093505859375" lon="7.2772717662155628204345703125"><ele></ele><time>2017-5-3T6:55:34Z</time></trkpt>
<trkpt lat="47.31534962542355060577392578125" lon="7.2770618833601474761962890625"><ele></ele><time>2017-5-3T6:55:37Z</time></trkpt>
<trkpt lat="47.31538935564458370208740234375" lon="7.27686398662626743316650390625"><ele></ele><time>2017-5-3T6:55:40Z</time></trkpt>
<trkpt lat="47.31541852466762065887451171875" lon="7.27676155976951122283935546875"><ele></ele><time>2017-5-3T6:55:43Z</time></trkpt>
<trkpt lat="47.31544031761586666107177734375" lon="7.2766541875898838043212890625"><ele></ele><time>2017-5-3T6:55:46Z</time></trkpt>
<trkpt lat="47.3154740966856479644775390625" lon="7.27643248625099658966064453125"><ele></ele><time>2017-5-3T6:55:49Z</time></trkpt>
<trkpt lat="47.31549270451068878173828125" lon="7.27631606161594390869140625"><ele></ele><time>2017-5-3T6:55:52Z</time></trkpt>
<trkpt lat="47.31551089324057102203369140625" lon="7.276202403008937835693359375"><ele></ele><time>2017-5-3T6:55:55Z</time></trkpt>
<trkpt lat="47.31552899815142154693603515625" lon="7.27609067223966121673583984375"><ele></ele><time>2017-5-3T6:55:58Z</time></trkpt>
<trkpt lat="47.315550036728382110595703125" lon="7.27598355151712894439697265625"><ele></ele><time>2017-5-3T6:56:1Z</time></trkpt>
<trkpt lat="47.31556453742086887359619140625" lon="7.2758768498897552490234375"><ele></ele><time>2017-5-3T6:56:4Z</time></trkpt>
<trkpt lat="47.31558322906494140625" lon="7.27576981298625469207763671875"><ele></ele><time>2017-5-3T6:56:7Z</time></trkpt>
<trkpt lat="47.31561969034373760223388671875" lon="7.27555171586573123931884765625"><ele></ele><time>2017-5-3T6:56:10Z</time></trkpt>
<trkpt lat="47.3156346939504146575927734375" lon="7.275439985096454620361328125"><ele></ele><time>2017-5-3T6:56:13Z</time></trkpt>
<trkpt lat="47.31564869172871112823486328125" lon="7.2753321938216686248779296875"><ele></ele><time>2017-5-3T6:56:16Z</time></trkpt>
<trkpt lat="47.315684817731380462646484375" lon="7.27513094432651996612548828125"><ele></ele><time>2017-5-3T6:56:19Z</time></trkpt>
<trkpt lat="47.31572899036109447479248046875" lon="7.274921648204326629638671875"><ele></ele><time>2017-5-3T6:56:22Z</time></trkpt>
<trkpt lat="47.31578171253204345703125" lon="7.2746901400387287139892578125"><ele></ele><time>2017-5-3T6:56:25Z</time></trkpt>
<trkpt lat="47.3158201016485691070556640625" lon="7.2745754756033420562744140625"><ele></ele><time>2017-5-3T6:56:28Z</time></trkpt>
<trkpt lat="47.31589914299547672271728515625" lon="7.2743572108447551727294921875"><ele></ele><time>2017-5-3T6:56:31Z</time></trkpt>
<trkpt lat="47.31597508303821086883544921875" lon="7.27415026165544986724853515625"><ele></ele><time>2017-5-3T6:56:34Z</time></trkpt>
<trkpt lat="47.3160085268318653106689453125" lon="7.27405169047415256500244140625"><ele></ele><time>2017-5-3T6:56:37Z</time></trkpt>
<trkpt lat="47.3160420544445514678955078125" lon="7.27395010180771350860595703125"><ele></ele><time>2017-5-3T6:56:40Z</time></trkpt>
<trkpt lat="47.31607700698077678680419921875" lon="7.2738418914377689361572265625"><ele></ele><time>2017-5-3T6:56:43Z</time></trkpt>
<trkpt lat="47.3161094449460506439208984375" lon="7.2737278975546360015869140625"><ele></ele><time>2017-5-3T6:56:46Z</time></trkpt>
<trkpt lat="47.316140793263912200927734375" lon="7.27360778488218784332275390625"><ele></ele><time>2017-5-3T6:56:49Z</time></trkpt>
<trkpt lat="47.3161798529326915740966796875" lon="7.2734878398478031158447265625"><ele></ele><time>2017-5-3T6:56:52Z</time></trkpt>
<trkpt lat="47.31622335501015186309814453125" lon="7.27336521260440349578857421875"><ele></ele><time>2017-5-3T6:56:55Z</time></trkpt>
<trkpt lat="47.31626920402050018310546875" lon="7.2732447646558284759521484375"><ele></ele><time>2017-5-3T6:56:58Z</time></trkpt>
<trkpt lat="47.3163562081754207611083984375" lon="7.27300177328288555145263671875"><ele></ele><time>2017-5-3T6:57:1Z</time></trkpt>
<trkpt lat="47.3164313100278377532958984375" lon="7.27275299839675426483154296875"><ele></ele><time>2017-5-3T6:57:4Z</time></trkpt>
<trkpt lat="47.3165057413280010223388671875" lon="7.272503636777400970458984375"><ele></ele><time>2017-5-3T6:57:7Z</time></trkpt>
<trkpt lat="47.3165394365787506103515625" lon="7.27238737978041172027587890625"><ele></ele><time>2017-5-3T6:57:10Z</time></trkpt>
<trkpt lat="47.316572964191436767578125" lon="7.2722845338284969329833984375"><ele></ele><time>2017-5-3T6:57:13Z</time></trkpt>
<trkpt lat="47.31660791672766208648681640625" lon="7.27219660766422748565673828125"><ele></ele><time>2017-5-3T6:57:16Z</time></trkpt>
<trkpt lat="47.316637337207794189453125" lon="7.2721259482204914093017578125"><ele></ele><time>2017-5-3T6:57:19Z</time></trkpt>
<trkpt lat="47.3166789114475250244140625" lon="7.27208026684820652008056640625"><ele></ele><time>2017-5-3T6:57:22Z</time></trkpt>
<trkpt lat="47.31684990227222442626953125" lon="7.27204187773168087005615234375"><ele></ele><time>2017-5-3T6:57:25Z</time></trkpt>
<trkpt lat="47.31690731830894947052001953125" lon="7.27207071147859096527099609375"><ele></ele><time>2017-5-3T6:57:28Z</time></trkpt>
<trkpt lat="47.31694051064550876617431640625" lon="7.27209233678877353668212890625"><ele></ele><time>2017-5-3T6:57:31Z</time></trkpt>
<trkpt lat="47.31720420531928539276123046875" lon="7.27217883802950382232666015625"><ele></ele><time>2017-5-3T6:57:34Z</time></trkpt>
<trkpt lat="47.317251227796077728271484375" lon="7.27218277752399444580078125"><ele></ele><time>2017-5-3T6:57:37Z</time></trkpt>
<trkpt lat="47.31734133325517177581787109375" lon="7.27218990214169025421142578125"><ele></ele><time>2017-5-3T6:57:40Z</time></trkpt>
<trkpt lat="47.31740050949156284332275390625" lon="7.27218906395137310028076171875"><ele></ele><time>2017-5-3T6:57:43Z</time></trkpt>
<trkpt lat="47.31745616532862186431884765625" lon="7.27218671701848506927490234375"><ele></ele><time>2017-5-3T6:57:46Z</time></trkpt>
<trkpt lat="47.31758155860006809234619140625" lon="7.27213072590529918670654296875"><ele></ele><time>2017-5-3T6:57:49Z</time></trkpt>
<trkpt lat="47.31763713061809539794921875" lon="7.2720786742866039276123046875"><ele></ele><time>2017-5-3T6:57:52Z</time></trkpt>
<trkpt lat="47.31771416030824184417724609375" lon="7.27194213308393955230712890625"><ele></ele><time>2017-5-3T6:57:55Z</time></trkpt>
<trkpt lat="47.31774668209254741668701171875" lon="7.27186434902250766754150390625"><ele></ele><time>2017-5-3T6:57:58Z</time></trkpt>
<trkpt lat="47.31776009313762187957763671875" lon="7.271790169179439544677734375"><ele></ele><time>2017-5-3T6:58:1Z</time></trkpt>
<trkpt lat="47.31778088025748729705810546875" lon="7.271600067615509033203125"><ele></ele><time>2017-5-3T6:58:4Z</time></trkpt>
<trkpt lat="47.31779093854129314422607421875" lon="7.27150275371968746185302734375"><ele></ele><time>2017-5-3T6:58:7Z</time></trkpt>
<trkpt lat="47.31779429130256175994873046875" lon="7.271293960511684417724609375"><ele></ele><time>2017-5-3T6:58:10Z</time></trkpt>
<trkpt lat="47.3178161680698394775390625" lon="7.27094267494976520538330078125"><ele></ele><time>2017-5-3T6:58:13Z</time></trkpt>
<trkpt lat="47.31782848946750164031982421875" lon="7.27082147262990474700927734375"><ele></ele><time>2017-5-3T6:58:16Z</time></trkpt>
<trkpt lat="47.31783787719905376434326171875" lon="7.27070848457515239715576171875"><ele></ele><time>2017-5-3T6:58:19Z</time></trkpt>
<trkpt lat="47.317852042615413665771484375" lon="7.27047731168568134307861328125"><ele></ele><time>2017-5-3T6:58:22Z</time></trkpt>
<trkpt lat="47.31786637566983699798583984375" lon="7.27027061395347118377685546875"><ele></ele><time>2017-5-3T6:58:25Z</time></trkpt>
<trkpt lat="47.31786939315497875213623046875" lon="7.2701662592589855194091796875"><ele></ele><time>2017-5-3T6:58:28Z</time></trkpt>
<trkpt lat="47.31783083640038967132568359375" lon="7.2699637524783611297607421875"><ele></ele><time>2017-5-3T6:58:31Z</time></trkpt>
<trkpt lat="47.3177303373813629150390625" lon="7.26987515576183795928955078125"><ele></ele><time>2017-5-3T6:58:34Z</time></trkpt>
<trkpt lat="47.31760771013796329498291015625" lon="7.26992167532444000244140625"><ele></ele><time>2017-5-3T6:58:37Z</time></trkpt>
<trkpt lat="47.3173682391643524169921875" lon="7.27003877051174640655517578125"><ele></ele><time>2017-5-3T6:58:40Z</time></trkpt>
<trkpt lat="47.31727209873497486114501953125" lon="7.2700886428356170654296875"><ele></ele><time>2017-5-3T6:58:43Z</time></trkpt>
<trkpt lat="47.3171444423496723175048828125" lon="7.27013348601758480072021484375"><ele></ele><time>2017-5-3T6:58:46Z</time></trkpt>
<trkpt lat="47.3170535825192928314208984375" lon="7.27012594230473041534423828125"><ele></ele><time>2017-5-3T6:58:49Z</time></trkpt>
<trkpt lat="47.3170083202421665191650390625" lon="7.270110435783863067626953125"><ele></ele><time>2017-5-3T6:58:52Z</time></trkpt>
<trkpt lat="47.31696129776537418365478515625" lon="7.27008688263595104217529296875"><ele></ele><time>2017-5-3T6:58:55Z</time></trkpt>
<trkpt lat="47.3169167898595333099365234375" lon="7.27006056345999240875244140625"><ele></ele><time>2017-5-3T6:58:58Z</time></trkpt>
<trkpt lat="47.31687647290527820587158203125" lon="7.27002871222794055938720703125"><ele></ele><time>2017-5-3T6:59:1Z</time></trkpt>
<trkpt lat="47.31678796000778675079345703125" lon="7.269972302019596099853515625"><ele></ele><time>2017-5-3T6:59:4Z</time></trkpt>
<trkpt lat="47.31670279987156391143798828125" lon="7.269903235137462615966796875"><ele></ele><time>2017-5-3T6:59:7Z</time></trkpt>
<trkpt lat="47.31661864556372165679931640625" lon="7.2698309831321239471435546875"><ele></ele><time>2017-5-3T6:59:10Z</time></trkpt>
<trkpt lat="47.3165448009967803955078125" lon="7.26976216770708560943603515625"><ele></ele><time>2017-5-3T6:59:13Z</time></trkpt>
<trkpt lat="47.3164735548198223114013671875" lon="7.2696958668529987335205078125"><ele></ele><time>2017-5-3T6:59:16Z</time></trkpt>
<trkpt lat="47.316368110477924346923828125" lon="7.2695909254252910614013671875"><ele></ele><time>2017-5-3T6:59:19Z</time></trkpt>
<trkpt lat="47.31627834029495716094970703125" lon="7.26952093653380870819091796875"><ele></ele><time>2017-5-3T6:59:22Z</time></trkpt>
<trkpt lat="47.31620407663285732269287109375" lon="7.26947383023798465728759765625"><ele></ele><time>2017-5-3T6:59:25Z</time></trkpt>
<trkpt lat="47.316153533756732940673828125" lon="7.2694397158920764923095703125"><ele></ele><time>2017-5-3T6:59:28Z</time></trkpt>
<trkpt lat="47.31608941219747066497802734375" lon="7.26938967593014240264892578125"><ele></ele><time>2017-5-3T6:59:31Z</time></trkpt>
<trkpt lat="47.3160071857273578643798828125" lon="7.26933485828340053558349609375"><ele></ele><time>2017-5-3T6:59:34Z</time></trkpt>
<trkpt lat="47.3159069381654262542724609375" lon="7.2692828066647052764892578125"><ele></ele><time>2017-5-3T6:59:37Z</time></trkpt>
<trkpt lat="47.3157704807817935943603515625" lon="7.26921499706804752349853515625"><ele></ele><time>2017-5-3T6:59:40Z</time></trkpt>
<trkpt lat="47.31572764925658702850341796875" lon="7.269189096987247467041015625"><ele></ele><time>2017-5-3T6:59:43Z</time></trkpt>
<trkpt lat="47.315633185207843780517578125" lon="7.26913486607372760772705078125"><ele></ele><time>2017-5-3T6:59:46Z</time></trkpt>
<trkpt lat="47.3155300877988338470458984375" lon="7.26908977143466472625732421875"><ele></ele><time>2017-5-3T6:59:49Z</time></trkpt>
<trkpt lat="47.3154730908572673797607421875" lon="7.26906864903867244720458984375"><ele></ele><time>2017-5-3T6:59:52Z</time></trkpt>
<trkpt lat="47.3153580911457538604736328125" lon="7.2690323553979396820068359375"><ele></ele><time>2017-5-3T6:59:55Z</time></trkpt>
<trkpt lat="47.31523110531270503997802734375" lon="7.2689760290086269378662109375"><ele></ele><time>2017-5-3T6:59:58Z</time></trkpt>
<trkpt lat="47.315080650150775909423828125" lon="7.268911488354206085205078125"><ele></ele><time>2017-5-3T7:0:1Z</time></trkpt>
<trkpt lat="47.31499783694744110107421875" lon="7.26888458244502544403076171875"><ele></ele><time>2017-5-3T7:0:4Z</time></trkpt>
<trkpt lat="47.31491896323859691619873046875" lon="7.2688657231628894805908203125"><ele></ele><time>2017-5-3T7:0:7Z</time></trkpt>
<trkpt lat="47.31483313255012035369873046875" lon="7.26886195130646228790283203125"><ele></ele><time>2017-5-3T7:0:10Z</time></trkpt>
<trkpt lat="47.31474344618618488311767578125" lon="7.26886245422065258026123046875"><ele></ele><time>2017-5-3T7:0:13Z</time></trkpt>
<trkpt lat="47.3146550171077251434326171875" lon="7.26886915974318981170654296875"><ele></ele><time>2017-5-3T7:0:16Z</time></trkpt>
<trkpt lat="47.31450338847935199737548828125" lon="7.26889765821397304534912109375"><ele></ele><time>2017-5-3T7:0:19Z</time></trkpt>
<trkpt lat="47.31443750672042369842529296875" lon="7.26891852915287017822265625"><ele></ele><time>2017-5-3T7:0:22Z</time></trkpt>
<trkpt lat="47.31437732465565204620361328125" lon="7.26894392631947994232177734375"><ele></ele><time>2017-5-3T7:0:25Z</time></trkpt>
<trkpt lat="47.31432066299021244049072265625" lon="7.2689688205718994140625"><ele></ele><time>2017-5-3T7:0:28Z</time></trkpt>
<trkpt lat="47.314266599714756011962890625" lon="7.2689921222627162933349609375"><ele></ele><time>2017-5-3T7:0:31Z</time></trkpt>
<trkpt lat="47.31421136297285556793212890625" lon="7.26901902817189693450927734375"><ele></ele><time>2017-5-3T7:0:34Z</time></trkpt>
<trkpt lat="47.314164340496063232421875" lon="7.2690471075475215911865234375"><ele></ele><time>2017-5-3T7:0:37Z</time></trkpt>
<trkpt lat="47.314058057963848114013671875" lon="7.26911039091646671295166015625"><ele></ele><time>2017-5-3T7:0:40Z</time></trkpt>
<trkpt lat="47.31391564942896366119384765625" lon="7.269205860793590545654296875"><ele></ele><time>2017-5-3T7:0:43Z</time></trkpt>
<trkpt lat="47.31383786536753177642822265625" lon="7.26927417330443859100341796875"><ele></ele><time>2017-5-3T7:0:46Z</time></trkpt>
<trkpt lat="47.3137564770877361297607421875" lon="7.2693468444049358367919921875"><ele></ele><time>2017-5-3T7:0:49Z</time></trkpt>
<trkpt lat="47.313621528446674346923828125" lon="7.26946829818189144134521484375"><ele></ele><time>2017-5-3T7:0:52Z</time></trkpt>
<trkpt lat="47.31351030059158802032470703125" lon="7.26958732120692729949951171875"><ele></ele><time>2017-5-3T7:0:55Z</time></trkpt>
<trkpt lat="47.3134389705955982208251953125" lon="7.26965303532779216766357421875"><ele></ele><time>2017-5-3T7:0:58Z</time></trkpt>
<trkpt lat="47.3133373819291591644287109375" lon="7.2697310708463191986083984375"><ele></ele><time>2017-5-3T7:1:1Z</time></trkpt>
<trkpt lat="47.31323051266372203826904296875" lon="7.26982486434280872344970703125"><ele></ele><time>2017-5-3T7:1:4Z</time></trkpt>
<trkpt lat="47.31306270696222782135009765625" lon="7.26996433921158313751220703125"><ele></ele><time>2017-5-3T7:1:7Z</time></trkpt>
<trkpt lat="47.3129399120807647705078125" lon="7.2700484097003936767578125"><ele></ele><time>2017-5-3T7:1:10Z</time></trkpt>
<trkpt lat="47.31287864036858081817626953125" lon="7.2700921632349491119384765625"><ele></ele><time>2017-5-3T7:1:13Z</time></trkpt>
<trkpt lat="47.31281477026641368865966796875" lon="7.2701323963701725006103515625"><ele></ele><time>2017-5-3T7:1:16Z</time></trkpt>
<trkpt lat="47.3126983456313610076904296875" lon="7.27020808495581150054931640625"><ele></ele><time>2017-5-3T7:1:19Z</time></trkpt>
<trkpt lat="47.31259164400398731231689453125" lon="7.270276062190532684326171875"><ele></ele><time>2017-5-3T7:1:22Z</time></trkpt>
<trkpt lat="47.31249072588980197906494140625" lon="7.27035359479486942291259765625"><ele></ele><time>2017-5-3T7:1:25Z</time></trkpt>
<trkpt lat="47.3123925738036632537841796875" lon="7.27043800055980682373046875"><ele></ele><time>2017-5-3T7:1:28Z</time></trkpt>
<trkpt lat="47.31228872202336788177490234375" lon="7.2705236636102199554443359375"><ele></ele><time>2017-5-3T7:1:31Z</time></trkpt>
<trkpt lat="47.31214086525142192840576171875" lon="7.2706524096429347991943359375"><ele></ele><time>2017-5-3T7:1:34Z</time></trkpt>
<trkpt lat="47.31201119720935821533203125" lon="7.27073262445628643035888671875"><ele></ele><time>2017-5-3T7:1:37Z</time></trkpt>
<trkpt lat="47.3118658550083637237548828125" lon="7.27069557644426822662353515625"><ele></ele><time>2017-5-3T7:1:40Z</time></trkpt>
<trkpt lat="47.3117863945662975311279296875" lon="7.270579151809215545654296875"><ele></ele><time>2017-5-3T7:1:43Z</time></trkpt>
<trkpt lat="47.31174297630786895751953125" lon="7.2704264335334300994873046875"><ele></ele><time>2017-5-3T7:1:46Z</time></trkpt>
<trkpt lat="47.3117438144981861114501953125" lon="7.27020003832876682281494140625"><ele></ele><time>2017-5-3T7:1:49Z</time></trkpt>
<trkpt lat="47.31178329326212406158447265625" lon="7.27010414935648441314697265625"><ele></ele><time>2017-5-3T7:1:52Z</time></trkpt>
<trkpt lat="47.31184531934559345245361328125" lon="7.27005838416516780853271484375"><ele></ele><time>2017-5-3T7:1:55Z</time></trkpt>
<trkpt lat="47.3118772543966770172119140625" lon="7.27004899643361568450927734375"><ele></ele><time>2017-5-3T7:1:58Z</time></trkpt>
<trkpt lat="47.3119419626891613006591796875" lon="7.2700267843902111053466796875"><ele></ele><time>2017-5-3T7:2:1Z</time></trkpt>
<trkpt lat="47.31201178394258022308349609375" lon="7.269991077482700347900390625"><ele></ele><time>2017-5-3T7:2:4Z</time></trkpt>
<trkpt lat="47.31208269484341144561767578125" lon="7.26994489319622516632080078125"><ele></ele><time>2017-5-3T7:2:7Z</time></trkpt>
<trkpt lat="47.31224463321268558502197265625" lon="7.2697882354259490966796875"><ele></ele><time>2017-5-3T7:2:10Z</time></trkpt>
<trkpt lat="47.31230556964874267578125" lon="7.26967868395149707794189453125"><ele></ele><time>2017-5-3T7:2:13Z</time></trkpt>
<trkpt lat="47.3124385066330432891845703125" lon="7.2694108821451663970947265625"><ele></ele><time>2017-5-3T7:2:16Z</time></trkpt>
<trkpt lat="47.312544286251068115234375" lon="7.2692234627902507781982421875"><ele></ele><time>2017-5-3T7:2:19Z</time></trkpt>
<trkpt lat="47.3126889578998088836669921875" lon="7.268938980996608734130859375"><ele></ele><time>2017-5-3T7:2:22Z</time></trkpt>
<trkpt lat="47.3127667419612407684326171875" lon="7.2688177786767482757568359375"><ele></ele><time>2017-5-3T7:2:25Z</time></trkpt>
<trkpt lat="47.3129658959805965423583984375" lon="7.2685488872230052947998046875"><ele></ele><time>2017-5-3T7:2:28Z</time></trkpt>
<trkpt lat="47.31312205083668231964111328125" lon="7.26834260858595371246337890625"><ele></ele><time>2017-5-3T7:2:31Z</time></trkpt>
<trkpt lat="47.313225902616977691650390625" lon="7.26817731745541095733642578125"><ele></ele><time>2017-5-3T7:2:34Z</time></trkpt>
<trkpt lat="47.31332673691213130950927734375" lon="7.26799584925174713134765625"><ele></ele><time>2017-5-3T7:2:37Z</time></trkpt>
<trkpt lat="47.31356780044734477996826171875" lon="7.26754398085176944732666015625"><ele></ele><time>2017-5-3T7:2:40Z</time></trkpt>
<trkpt lat="47.31361473910510540008544921875" lon="7.26744323037564754486083984375"><ele></ele><time>2017-5-3T7:2:43Z</time></trkpt>
<trkpt lat="47.31376544572412967681884765625" lon="7.26710577495396137237548828125"><ele></ele><time>2017-5-3T7:2:46Z</time></trkpt>
<trkpt lat="47.31388379819691181182861328125" lon="7.26678374223411083221435546875"><ele></ele><time>2017-5-3T7:2:49Z</time></trkpt>
<trkpt lat="47.31396610848605632781982421875" lon="7.26660604588687419891357421875"><ele></ele><time>2017-5-3T7:2:52Z</time></trkpt>
<trkpt lat="47.31407507322728633880615234375" lon="7.2664540819823741912841796875"><ele></ele><time>2017-5-3T7:2:55Z</time></trkpt>
<trkpt lat="47.3141923360526561737060546875" lon="7.26631955243647098541259765625"><ele></ele><time>2017-5-3T7:2:58Z</time></trkpt>
<trkpt lat="47.3143730498850345611572265625" lon="7.26613531820476055145263671875"><ele></ele><time>2017-5-3T7:3:1Z</time></trkpt>
<trkpt lat="47.31461704708635807037353515625" lon="7.26591487415134906768798828125"><ele></ele><time>2017-5-3T7:3:4Z</time></trkpt>
<trkpt lat="47.31474193744361400604248046875" lon="7.26578847505152225494384765625"><ele></ele><time>2017-5-3T7:3:7Z</time></trkpt>
<trkpt lat="47.31487588025629520416259765625" lon="7.26565654389560222625732421875"><ele></ele><time>2017-5-3T7:3:10Z</time></trkpt>
<trkpt lat="47.31501527130603790283203125" lon="7.26553718559443950653076171875"><ele></ele><time>2017-5-3T7:3:13Z</time></trkpt>
<trkpt lat="47.31528676114976406097412109375" lon="7.26534792222082614898681640625"><ele></ele><time>2017-5-3T7:3:16Z</time></trkpt>
<trkpt lat="47.3154160939157009124755859375" lon="7.265277095139026641845703125"><ele></ele><time>2017-5-3T7:3:19Z</time></trkpt>
<trkpt lat="47.3155565746128559112548828125" lon="7.26521884091198444366455078125"><ele></ele><time>2017-5-3T7:3:22Z</time></trkpt>
<trkpt lat="47.31570200063288211822509765625" lon="7.2651837207376956939697265625"><ele></ele><time>2017-5-3T7:3:25Z</time></trkpt>
<trkpt lat="47.31577592901885509490966796875" lon="7.265177182853221893310546875"><ele></ele><time>2017-5-3T7:3:28Z</time></trkpt>
<trkpt lat="47.31585538946092128753662109375" lon="7.2651766799390316009521484375"><ele></ele><time>2017-5-3T7:3:31Z</time></trkpt>
<trkpt lat="47.316014729440212249755859375" lon="7.2651962935924530029296875"><ele></ele><time>2017-5-3T7:3:34Z</time></trkpt>
<trkpt lat="47.31609846465289592742919921875" lon="7.265215404331684112548828125"><ele></ele><time>2017-5-3T7:3:37Z</time></trkpt>
<trkpt lat="47.316188402473926544189453125" lon="7.26523107849061489105224609375"><ele></ele><time>2017-5-3T7:3:40Z</time></trkpt>
<trkpt lat="47.3163712956011295318603515625" lon="7.2652615047991275787353515625"><ele></ele><time>2017-5-3T7:3:43Z</time></trkpt>
<trkpt lat="47.31656416319310665130615234375" lon="7.26529888808727264404296875"><ele></ele><time>2017-5-3T7:3:46Z</time></trkpt>
<trkpt lat="47.3167394287884235382080078125" lon="7.2653438150882720947265625"><ele></ele><time>2017-5-3T7:3:49Z</time></trkpt>
<trkpt lat="47.31682769022881984710693359375" lon="7.2653748281300067901611328125"><ele></ele><time>2017-5-3T7:3:52Z</time></trkpt>
<trkpt lat="47.31691888533532619476318359375" lon="7.26542235352098941802978515625"><ele></ele><time>2017-5-3T7:3:55Z</time></trkpt>
<trkpt lat="47.31710177846252918243408203125" lon="7.2655173204839229583740234375"><ele></ele><time>2017-5-3T7:3:58Z</time></trkpt>
<trkpt lat="47.3172862641513347625732421875" lon="7.26560139097273349761962890625"><ele></ele><time>2017-5-3T7:4:1Z</time></trkpt>
<trkpt lat="47.317483909428119659423828125" lon="7.2656779177486896514892578125"><ele></ele><time>2017-5-3T7:4:4Z</time></trkpt>
<trkpt lat="47.31768901459872722625732421875" lon="7.26575595326721668243408203125"><ele></ele><time>2017-5-3T7:4:7Z</time></trkpt>
<trkpt lat="47.3178927786648273468017578125" lon="7.26584580726921558380126953125"><ele></ele><time>2017-5-3T7:4:10Z</time></trkpt>
<trkpt lat="47.31810140423476696014404296875" lon="7.26596231572329998016357421875"><ele></ele><time>2017-5-3T7:4:13Z</time></trkpt>
<trkpt lat="47.3182974569499492645263671875" lon="7.26607547141611576080322265625"><ele></ele><time>2017-5-3T7:4:16Z</time></trkpt>
<trkpt lat="47.31849401257932186126708984375" lon="7.26620757021009922027587890625"><ele></ele><time>2017-5-3T7:4:19Z</time></trkpt>
<trkpt lat="47.31869786046445369720458984375" lon="7.26634721271693706512451171875"><ele></ele><time>2017-5-3T7:4:22Z</time></trkpt>
<trkpt lat="47.31879576109349727630615234375" lon="7.2664218954741954803466796875"><ele></ele><time>2017-5-3T7:4:25Z</time></trkpt>
<trkpt lat="47.31888838112354278564453125" lon="7.26649691350758075714111328125"><ele></ele><time>2017-5-3T7:4:28Z</time></trkpt>
<trkpt lat="47.318975217640399932861328125" lon="7.2665710933506488800048828125"><ele></ele><time>2017-5-3T7:4:31Z</time></trkpt>
<trkpt lat="47.3190685920417308807373046875" lon="7.26664359681308269500732421875"><ele></ele><time>2017-5-3T7:4:34Z</time></trkpt>
<trkpt lat="47.3191611282527446746826171875" lon="7.26671568118035793304443359375"><ele></ele><time>2017-5-3T7:4:37Z</time></trkpt>
<trkpt lat="47.31925274245440959930419921875" lon="7.26678759790956974029541015625"><ele></ele><time>2017-5-3T7:4:40Z</time></trkpt>
<trkpt lat="47.31942205689847469329833984375" lon="7.26692472584545612335205078125"><ele></ele><time>2017-5-3T7:4:43Z</time></trkpt>
<trkpt lat="47.3195222206413745880126953125" lon="7.26699446327984333038330078125"><ele></ele><time>2017-5-3T7:4:46Z</time></trkpt>
<trkpt lat="47.31962087564170360565185546875" lon="7.26705883629620075225830078125"><ele></ele><time>2017-5-3T7:4:49Z</time></trkpt>
<trkpt lat="47.31983327306807041168212890625" lon="7.26716562174260616302490234375"><ele></ele><time>2017-5-3T7:4:52Z</time></trkpt>
<trkpt lat="47.3200512863695621490478515625" lon="7.2672463394701480865478515625"><ele></ele><time>2017-5-3T7:4:55Z</time></trkpt>
<trkpt lat="47.320146001875400543212890625" lon="7.2672751732170581817626953125"><ele></ele><time>2017-5-3T7:4:58Z</time></trkpt>
<trkpt lat="47.3203476704657077789306640625" lon="7.2673311643302440643310546875"><ele></ele><time>2017-5-3T7:5:1Z</time></trkpt>
<trkpt lat="47.320532910525798797607421875" lon="7.2673807851970195770263671875"><ele></ele><time>2017-5-3T7:5:4Z</time></trkpt>
<trkpt lat="47.32072125189006328582763671875" lon="7.26741506718099117279052734375"><ele></ele><time>2017-5-3T7:5:7Z</time></trkpt>
<trkpt lat="47.32081177644431591033935546875" lon="7.2674153186380863189697265625"><ele></ele><time>2017-5-3T7:5:10Z</time></trkpt>
<trkpt lat="47.32090665958821773529052734375" lon="7.26740417070686817169189453125"><ele></ele><time>2017-5-3T7:5:13Z</time></trkpt>
<trkpt lat="47.32100137509405612945556640625" lon="7.26739159785211086273193359375"><ele></ele><time>2017-5-3T7:5:16Z</time></trkpt>
<trkpt lat="47.32117119245231151580810546875" lon="7.26737081073224544525146484375"><ele></ele><time>2017-5-3T7:5:19Z</time></trkpt>
<trkpt lat="47.321391887962818145751953125" lon="7.267689742147922515869140625"><ele></ele><time>2017-5-3T7:5:22Z</time></trkpt>
<trkpt lat="47.321363724768161773681640625" lon="7.267921082675457000732421875"><ele></ele><time>2017-5-3T7:5:25Z</time></trkpt>
<trkpt lat="47.3212757147848606109619140625" lon="7.26828661747276782989501953125"><ele></ele><time>2017-5-3T7:5:28Z</time></trkpt>
<trkpt lat="47.32124025933444499969482421875" lon="7.26840748451650142669677734375"><ele></ele><time>2017-5-3T7:5:31Z</time></trkpt>
<trkpt lat="47.3210329748690128326416015625" lon="7.2690772823989391326904296875"><ele></ele><time>2017-5-3T7:5:34Z</time></trkpt>
<trkpt lat="47.32095477171242237091064453125" lon="7.26936645805835723876953125"><ele></ele><time>2017-5-3T7:5:37Z</time></trkpt>
<trkpt lat="47.3208650015294551849365234375" lon="7.26967130787670612335205078125"><ele></ele><time>2017-5-3T7:5:40Z</time></trkpt>
<trkpt lat="47.320765592157840728759765625" lon="7.26997875608503818511962890625"><ele></ele><time>2017-5-3T7:5:43Z</time></trkpt>
<trkpt lat="47.3207154683768749237060546875" lon="7.27013331837952136993408203125"><ele></ele><time>2017-5-3T7:5:46Z</time></trkpt>
<trkpt lat="47.32064866460859775543212890625" lon="7.2704569436609745025634765625"><ele></ele><time>2017-5-3T7:5:49Z</time></trkpt>
<trkpt lat="47.3206051625311374664306640625" lon="7.27077193558216094970703125"><ele></ele><time>2017-5-3T7:5:52Z</time></trkpt>
<trkpt lat="47.320584543049335479736328125" lon="7.271090783178806304931640625"><ele></ele><time>2017-5-3T7:5:55Z</time></trkpt>
<trkpt lat="47.3205803520977497100830078125" lon="7.27141591720283031463623046875"><ele></ele><time>2017-5-3T7:5:58Z</time></trkpt>
<trkpt lat="47.3205877281725406646728515625" lon="7.27173174731433391571044921875"><ele></ele><time>2017-5-3T7:6:1Z</time></trkpt>
<trkpt lat="47.32061379589140415191650390625" lon="7.2720307298004627227783203125"><ele></ele><time>2017-5-3T7:6:4Z</time></trkpt>
<trkpt lat="47.32063424773514270782470703125" lon="7.27217934094369411468505859375"><ele></ele><time>2017-5-3T7:6:7Z</time></trkpt>
<trkpt lat="47.32067498378455638885498046875" lon="7.27248854935169219970703125"><ele></ele><time>2017-5-3T7:6:10Z</time></trkpt>
<trkpt lat="47.320701219141483306884765625" lon="7.27264805696904659271240234375"><ele></ele><time>2017-5-3T7:6:13Z</time></trkpt>
<trkpt lat="47.32072837650775909423828125" lon="7.27296866476535797119140625"><ele></ele><time>2017-5-3T7:6:16Z</time></trkpt>
<trkpt lat="47.32073449529707431793212890625" lon="7.273130603134632110595703125"><ele></ele><time>2017-5-3T7:6:19Z</time></trkpt>
<trkpt lat="47.320757210254669189453125" lon="7.27345556952059268951416015625"><ele></ele><time>2017-5-3T7:6:22Z</time></trkpt>
<trkpt lat="47.32081345282495021820068359375" lon="7.27379989810287952423095703125"><ele></ele><time>2017-5-3T7:6:25Z</time></trkpt>
<trkpt lat="47.320905067026615142822265625" lon="7.27432720363140106201171875"><ele></ele><time>2017-5-3T7:6:28Z</time></trkpt>
<trkpt lat="47.3209686018526554107666015625" lon="7.2746579535305500030517578125"><ele></ele><time>2017-5-3T7:6:31Z</time></trkpt>
<trkpt lat="47.3209893889725208282470703125" lon="7.27481964044272899627685546875"><ele></ele><time>2017-5-3T7:6:34Z</time></trkpt>
<trkpt lat="47.32101076282560825347900390625" lon="7.2749875299632549285888671875"><ele></ele><time>2017-5-3T7:6:37Z</time></trkpt>
<trkpt lat="47.321030460298061370849609375" lon="7.275326661765575408935546875"><ele></ele><time>2017-5-3T7:6:40Z</time></trkpt>
<trkpt lat="47.32103004120290279388427734375" lon="7.27566084824502468109130859375"><ele></ele><time>2017-5-3T7:6:43Z</time></trkpt>
<trkpt lat="47.3210396803915500640869140625" lon="7.275999896228313446044921875"><ele></ele><time>2017-5-3T7:6:46Z</time></trkpt>
<trkpt lat="47.32105250470340251922607421875" lon="7.2763323225080966949462890625"><ele></ele><time>2017-5-3T7:6:49Z</time></trkpt>
<trkpt lat="47.32104328460991382598876953125" lon="7.27648965083062648773193359375"><ele></ele><time>2017-5-3T7:6:52Z</time></trkpt>
<trkpt lat="47.3210239224135875701904296875" lon="7.276644967496395111083984375"><ele></ele><time>2017-5-3T7:6:55Z</time></trkpt>
<trkpt lat="47.32095527462661266326904296875" lon="7.2769398428499698638916015625"><ele></ele><time>2017-5-3T7:6:58Z</time></trkpt>
<trkpt lat="47.32091755606234073638916015625" lon="7.2770823352038860321044921875"><ele></ele><time>2017-5-3T7:7:1Z</time></trkpt>
<trkpt lat="47.32087112031877040863037109375" lon="7.27721057832241058349609375"><ele></ele><time>2017-5-3T7:7:4Z</time></trkpt>
<trkpt lat="47.32081445865333080291748046875" lon="7.27733236737549304962158203125"><ele></ele><time>2017-5-3T7:7:7Z</time></trkpt>
<trkpt lat="47.32074321247637271881103515625" lon="7.27757829241454601287841796875"><ele></ele><time>2017-5-3T7:7:10Z</time></trkpt>
<trkpt lat="47.3207660950720310211181640625" lon="7.2778192721307277679443359375"><ele></ele><time>2017-5-3T7:7:13Z</time></trkpt>
<trkpt lat="47.3208479024469852447509765625" lon="7.27804751135408878326416015625"><ele></ele><time>2017-5-3T7:7:16Z</time></trkpt>
<trkpt lat="47.3209712840616703033447265625" lon="7.278222776949405670166015625"><ele></ele><time>2017-5-3T7:7:19Z</time></trkpt>
<trkpt lat="47.32115107588469982147216796875" lon="7.2783178277313709259033203125"><ele></ele><time>2017-5-3T7:7:22Z</time></trkpt>
<trkpt lat="47.32123531401157379150390625" lon="7.27836434729397296905517578125"><ele></ele><time>2017-5-3T7:7:25Z</time></trkpt>
<trkpt lat="47.32133028097450733184814453125" lon="7.27842285297811031341552734375"><ele></ele><time>2017-5-3T7:7:28Z</time></trkpt>
<trkpt lat="47.3214185424149036407470703125" lon="7.278497703373432159423828125"><ele></ele><time>2017-5-3T7:7:31Z</time></trkpt>
<trkpt lat="47.32154234312474727630615234375" lon="7.27871655486524105072021484375"><ele></ele><time>2017-5-3T7:7:34Z</time></trkpt>
<trkpt lat="47.32162632979452610015869140625" lon="7.27899558842182159423828125"><ele></ele><time>2017-5-3T7:7:37Z</time></trkpt>
<trkpt lat="47.32166471891105175018310546875" lon="7.27913917042315006256103515625"><ele></ele><time>2017-5-3T7:7:40Z</time></trkpt>
<trkpt lat="47.3216995038092136383056640625" lon="7.2792730294167995452880859375"><ele></ele><time>2017-5-3T7:7:43Z</time></trkpt>
<trkpt lat="47.3218517191708087921142578125" lon="7.27967477403581142425537109375"><ele></ele><time>2017-5-3T7:7:46Z</time></trkpt>
<trkpt lat="47.321918271481990814208984375" lon="7.27980217896401882171630859375"><ele></ele><time>2017-5-3T7:7:49Z</time></trkpt>
<trkpt lat="47.32206185348331928253173828125" lon="7.28003821335732936859130859375"><ele></ele><time>2017-5-3T7:7:52Z</time></trkpt>
<trkpt lat="47.322203926742076873779296875" lon="7.28024843148887157440185546875"><ele></ele><time>2017-5-3T7:7:55Z</time></trkpt>
<trkpt lat="47.32232236303389072418212890625" lon="7.28042495436966419219970703125"><ele></ele><time>2017-5-3T7:7:58Z</time></trkpt>
<trkpt lat="47.3224260471761226654052734375" lon="7.28057281114161014556884765625"><ele></ele><time>2017-5-3T7:8:1Z</time></trkpt>
<trkpt lat="47.32248044572770595550537109375" lon="7.28064623661339282989501953125"><ele></ele><time>2017-5-3T7:8:4Z</time></trkpt>
<trkpt lat="47.32257516123354434967041015625" lon="7.2807650081813335418701171875"><ele></ele><time>2017-5-3T7:8:7Z</time></trkpt>
<trkpt lat="47.322637774050235748291015625" lon="7.28079593740403652191162109375"><ele></ele><time>2017-5-3T7:8:10Z</time></trkpt>
<trkpt lat="47.32267674989998340606689453125" lon="7.28071890771389007568359375"><ele></ele><time>2017-5-3T7:8:13Z</time></trkpt>
<trkpt lat="47.32268563471734523773193359375" lon="7.28066719137132167816162109375"><ele></ele><time>2017-5-3T7:8:16Z</time></trkpt>
<trkpt lat="47.3226959444582462310791015625" lon="7.28060516528785228729248046875"><ele></ele><time>2017-5-3T7:8:19Z</time></trkpt>
<trkpt lat="47.32269351370632648468017578125" lon="7.28060700930655002593994140625"><ele></ele><time>2017-5-3T7:8:22Z</time></trkpt>
<trkpt lat="47.32305251061916351318359375" lon="7.2802805341780185699462890625"><ele></ele><time>2017-5-3T7:8:25Z</time></trkpt>
<trkpt lat="47.3231683485209941864013671875" lon="7.2802275605499744415283203125"><ele></ele><time>2017-5-3T7:8:28Z</time></trkpt>
<trkpt lat="47.32330036349594593048095703125" lon="7.2801973856985569000244140625"><ele></ele><time>2017-5-3T7:8:31Z</time></trkpt>
<trkpt lat="47.32337211258709430694580078125" lon="7.28018246591091156005859375"><ele></ele><time>2017-5-3T7:8:34Z</time></trkpt>
<trkpt lat="47.323444448411464691162109375" lon="7.2801655344665050506591796875"><ele></ele><time>2017-5-3T7:8:37Z</time></trkpt>
<trkpt lat="47.32351259328424930572509765625" lon="7.2801482677459716796875"><ele></ele><time>2017-5-3T7:8:40Z</time></trkpt>
<trkpt lat="47.3235804028809070587158203125" lon="7.28012706153094768524169921875"><ele></ele><time>2017-5-3T7:8:43Z</time></trkpt>
<trkpt lat="47.3236528225243091583251953125" lon="7.28009873069822788238525390625"><ele></ele><time>2017-5-3T7:8:46Z</time></trkpt>
<trkpt lat="47.3237309418618679046630859375" lon="7.28006235323846340179443359375"><ele></ele><time>2017-5-3T7:8:49Z</time></trkpt>
<trkpt lat="47.32380981557071208953857421875" lon="7.28001876734197139739990234375"><ele></ele><time>2017-5-3T7:8:52Z</time></trkpt>
<trkpt lat="47.32388055883347988128662109375" lon="7.27997467853128910064697265625"><ele></ele><time>2017-5-3T7:8:55Z</time></trkpt>
<trkpt lat="47.32405456714332103729248046875" lon="7.2798679769039154052734375"><ele></ele><time>2017-5-3T7:8:58Z</time></trkpt>
<trkpt lat="47.324159927666187286376953125" lon="7.27983101271092891693115234375"><ele></ele><time>2017-5-3T7:9:1Z</time></trkpt>
<trkpt lat="47.324213571846485137939453125" lon="7.27982564829289913177490234375"><ele></ele><time>2017-5-3T7:9:4Z</time></trkpt>
<trkpt lat="47.32426729984581470489501953125" lon="7.279822714626789093017578125"><ele></ele><time>2017-5-3T7:9:7Z</time></trkpt>
<trkpt lat="47.32432228513062000274658203125" lon="7.279825396835803985595703125"><ele></ele><time>2017-5-3T7:9:10Z</time></trkpt>
<trkpt lat="47.32437224127352237701416015625" lon="7.27983243763446807861328125"><ele></ele><time>2017-5-3T7:9:13Z</time></trkpt>
<trkpt lat="47.32449763454496860504150390625" lon="7.27986864745616912841796875"><ele></ele><time>2017-5-3T7:9:16Z</time></trkpt>
<trkpt lat="47.32464767061173915863037109375" lon="7.27990326471626758575439453125"><ele></ele><time>2017-5-3T7:9:19Z</time></trkpt>
<trkpt lat="47.32469737529754638671875" lon="7.2799127362668514251708984375"><ele></ele><time>2017-5-3T7:9:22Z</time></trkpt>
<trkpt lat="47.32479192316532135009765625" lon="7.27997300215065479278564453125"><ele></ele><time>2017-5-3T7:9:25Z</time></trkpt>
<trkpt lat="47.32488202862441539764404296875" lon="7.28007308207452297210693359375"><ele></ele><time>2017-5-3T7:9:28Z</time></trkpt>
<trkpt lat="47.32492896728217601776123046875" lon="7.28012655861675739288330078125"><ele></ele><time>2017-5-3T7:9:31Z</time></trkpt>
<trkpt lat="47.32497473247349262237548828125" lon="7.28017249144613742828369140625"><ele></ele><time>2017-5-3T7:9:34Z</time></trkpt>
<trkpt lat="47.325020246207714080810546875" lon="7.2802124731242656707763671875"><ele></ele><time>2017-5-3T7:9:37Z</time></trkpt>
<trkpt lat="47.3250629939138889312744140625" lon="7.2802523709833621978759765625"><ele></ele><time>2017-5-3T7:9:40Z</time></trkpt>
<trkpt lat="47.3251055739820003509521484375" lon="7.2802885808050632476806640625"><ele></ele><time>2017-5-3T7:9:43Z</time></trkpt>
<trkpt lat="47.325148992240428924560546875" lon="7.28031791746616363525390625"><ele></ele><time>2017-5-3T7:9:46Z</time></trkpt>
<trkpt lat="47.32519417069852352142333984375" lon="7.2803418897092342376708984375"><ele></ele><time>2017-5-3T7:9:49Z</time></trkpt>
<trkpt lat="47.325289137661457061767578125" lon="7.28037985973060131072998046875"><ele></ele><time>2017-5-3T7:9:52Z</time></trkpt>
<trkpt lat="47.32545417733490467071533203125" lon="7.28046619333326816558837890625"><ele></ele><time>2017-5-3T7:9:55Z</time></trkpt>
<trkpt lat="47.32556716538965702056884765625" lon="7.280538193881511688232421875"><ele></ele><time>2017-5-3T7:9:58Z</time></trkpt>
<trkpt lat="47.3256742022931575775146484375" lon="7.28059678338468074798583984375"><ele></ele><time>2017-5-3T7:10:1Z</time></trkpt>
<trkpt lat="47.3257881961762905120849609375" lon="7.2806486673653125762939453125"><ele></ele><time>2017-5-3T7:10:4Z</time></trkpt>
<trkpt lat="47.3259038664400577545166015625" lon="7.28070524521172046661376953125"><ele></ele><time>2017-5-3T7:10:7Z</time></trkpt>
<trkpt lat="47.3260195367038249969482421875" lon="7.28076458908617496490478515625"><ele></ele><time>2017-5-3T7:10:10Z</time></trkpt>
<trkpt lat="47.32612439431250095367431640625" lon="7.2808515094220638275146484375"><ele></ele><time>2017-5-3T7:10:13Z</time></trkpt>
<trkpt lat="47.3261818103492259979248046875" lon="7.28089786134660243988037109375"><ele></ele><time>2017-5-3T7:10:16Z</time></trkpt>
<trkpt lat="47.3262490332126617431640625" lon="7.28093214333057403564453125"><ele></ele><time>2017-5-3T7:10:19Z</time></trkpt>
<trkpt lat="47.32639647088944911956787109375" lon="7.2809685207903385162353515625"><ele></ele><time>2017-5-3T7:10:22Z</time></trkpt>
<trkpt lat="47.3264728300273418426513671875" lon="7.28097698651254177093505859375"><ele></ele><time>2017-5-3T7:10:25Z</time></trkpt>
<trkpt lat="47.326549775898456573486328125" lon="7.28098100982606410980224609375"><ele></ele><time>2017-5-3T7:10:28Z</time></trkpt>
<trkpt lat="47.3266971297562122344970703125" lon="7.28098486550152301788330078125"><ele></ele><time>2017-5-3T7:10:31Z</time></trkpt>
<trkpt lat="47.32675974257290363311767578125" lon="7.28098134510219097137451171875"><ele></ele><time>2017-5-3T7:10:34Z</time></trkpt>
<trkpt lat="47.32681590132415294647216796875" lon="7.28096374310553073883056640625"><ele></ele><time>2017-5-3T7:10:37Z</time></trkpt>
<trkpt lat="47.326868288218975067138671875" lon="7.28093105368316173553466796875"><ele></ele><time>2017-5-3T7:10:40Z</time></trkpt>
<trkpt lat="47.3269190825521945953369140625" lon="7.28089014999568462371826171875"><ele></ele><time>2017-5-3T7:10:43Z</time></trkpt>
<trkpt lat="47.32696811668574810028076171875" lon="7.2808468155562877655029296875"><ele></ele><time>2017-5-3T7:10:46Z</time></trkpt>
<trkpt lat="47.32701790519058704376220703125" lon="7.28080146946012973785400390625"><ele></ele><time>2017-5-3T7:10:49Z</time></trkpt>
<trkpt lat="47.32712217606604099273681640625" lon="7.2807039879262447357177734375"><ele></ele><time>2017-5-3T7:10:52Z</time></trkpt>
<trkpt lat="47.32748293317854404449462890625" lon="7.28040601126849651336669921875"><ele></ele><time>2017-5-3T7:10:55Z</time></trkpt>
<trkpt lat="47.32768527232110500335693359375" lon="7.280235774815082550048828125"><ele></ele><time>2017-5-3T7:10:58Z</time></trkpt>
<trkpt lat="47.3277542553842067718505859375" lon="7.28015740402042865753173828125"><ele></ele><time>2017-5-3T7:11:1Z</time></trkpt>
<trkpt lat="47.32787721790373325347900390625" lon="7.28005447424948215484619140625"><ele></ele><time>2017-5-3T7:11:4Z</time></trkpt>
<trkpt lat="47.327980734407901763916015625" lon="7.28002027608454227447509765625"><ele></ele><time>2017-5-3T7:11:7Z</time></trkpt>
<trkpt lat="47.32815046794712543487548828125" lon="7.28008682839572429656982421875"><ele></ele><time>2017-5-3T7:11:10Z</time></trkpt>
<trkpt lat="47.3282045312225818634033203125" lon="7.28012555278837680816650390625"><ele></ele><time>2017-5-3T7:11:13Z</time></trkpt>
<trkpt lat="47.32832129113376140594482421875" lon="7.28023074567317962646484375"><ele></ele><time>2017-5-3T7:11:16Z</time></trkpt>
<trkpt lat="47.32843562029302120208740234375" lon="7.2803613357245922088623046875"><ele></ele><time>2017-5-3T7:11:19Z</time></trkpt>
<trkpt lat="47.32848892919719219207763671875" lon="7.28041389025747776031494140625"><ele></ele><time>2017-5-3T7:11:22Z</time></trkpt>
<trkpt lat="47.3285421542823314666748046875" lon="7.28046468459069728851318359375"><ele></ele><time>2017-5-3T7:11:25Z</time></trkpt>
<trkpt lat="47.3286021687090396881103515625" lon="7.2805148921906948089599609375"><ele></ele><time>2017-5-3T7:11:28Z</time></trkpt>
<trkpt lat="47.3286715708673000335693359375" lon="7.28056157939136028289794921875"><ele></ele><time>2017-5-3T7:11:31Z</time></trkpt>
<trkpt lat="47.32875145040452480316162109375" lon="7.28060583584010601043701171875"><ele></ele><time>2017-5-3T7:11:34Z</time></trkpt>
<trkpt lat="47.32883493416011333465576171875" lon="7.28064590133726596832275390625"><ele></ele><time>2017-5-3T7:11:37Z</time></trkpt>
<trkpt lat="47.3289178311824798583984375" lon="7.2806847095489501953125"><ele></ele><time>2017-5-3T7:11:40Z</time></trkpt>
<trkpt lat="47.32907281257212162017822265625" lon="7.28077028878033161163330078125"><ele></ele><time>2017-5-3T7:11:43Z</time></trkpt>
<trkpt lat="47.32914447784423828125" lon="7.2808139584958553314208984375"><ele></ele><time>2017-5-3T7:11:46Z</time></trkpt>
<trkpt lat="47.32920977286994457244873046875" lon="7.280862070620059967041015625"><ele></ele><time>2017-5-3T7:11:49Z</time></trkpt>
<trkpt lat="47.32926391996443271636962890625" lon="7.28091529570519924163818359375"><ele></ele><time>2017-5-3T7:11:52Z</time></trkpt>
<trkpt lat="47.329309768974781036376953125" lon="7.28097463957965373992919921875"><ele></ele><time>2017-5-3T7:11:55Z</time></trkpt>
<trkpt lat="47.3293523490428924560546875" lon="7.28103482164442539215087890625"><ele></ele><time>2017-5-3T7:11:58Z</time></trkpt>
<trkpt lat="47.32939702458679676055908203125" lon="7.2810925729572772979736328125"><ele></ele><time>2017-5-3T7:12:1Z</time></trkpt>
<trkpt lat="47.3294437117874622344970703125" lon="7.28114445693790912628173828125"><ele></ele><time>2017-5-3T7:12:4Z</time></trkpt>
<trkpt lat="47.32949492521584033966064453125" lon="7.2811904735863208770751953125"><ele></ele><time>2017-5-3T7:12:7Z</time></trkpt>
<trkpt lat="47.3295533470809459686279296875" lon="7.28122475557029247283935546875"><ele></ele><time>2017-5-3T7:12:10Z</time></trkpt>
<trkpt lat="47.32968628406524658203125" lon="7.2812680900096893310546875"><ele></ele><time>2017-5-3T7:12:13Z</time></trkpt>
<trkpt lat="47.32993899844586849212646484375" lon="7.28131896816194057464599609375"><ele></ele><time>2017-5-3T7:12:16Z</time></trkpt>
<trkpt lat="47.33011468313634395599365234375" lon="7.28133455850183963775634765625"><ele></ele><time>2017-5-3T7:12:19Z</time></trkpt>
<trkpt lat="47.33019984327256679534912109375" lon="7.28132399730384349822998046875"><ele></ele><time>2017-5-3T7:12:22Z</time></trkpt>
<trkpt lat="47.33034753240644931793212890625" lon="7.2812846861779689788818359375"><ele></ele><time>2017-5-3T7:12:25Z</time></trkpt>
<trkpt lat="47.33044945634901523590087890625" lon="7.28125409223139286041259765625"><ele></ele><time>2017-5-3T7:12:28Z</time></trkpt>
<trkpt lat="47.33048298396170139312744140625" lon="7.28124001063406467437744140625"><ele></ele><time>2017-5-3T7:12:31Z</time></trkpt>
<trkpt lat="47.33050393871963024139404296875" lon="7.28122073225677013397216796875"><ele></ele><time>2017-5-3T7:12:34Z</time></trkpt>
<trkpt lat="47.33051282353699207305908203125" lon="7.28120380081236362457275390625"><ele></ele><time>2017-5-3T7:12:37Z</time></trkpt>
<trkpt lat="47.330514751374721527099609375" lon="7.281185947358608245849609375"><ele></ele><time>2017-5-3T7:12:40Z</time></trkpt>
<trkpt lat="47.33051366172730922698974609375" lon="7.2811700217425823211669921875"><ele></ele><time>2017-5-3T7:12:43Z</time></trkpt>
<trkpt lat="47.33050595037639141082763671875" lon="7.2811542637646198272705078125"><ele></ele><time>2017-5-3T7:12:46Z</time></trkpt>
<trkpt lat="47.3304842412471771240234375" lon="7.2811257652938365936279296875"><ele></ele><time>2017-5-3T7:12:49Z</time></trkpt>
<trkpt lat="47.330413497984409332275390625" lon="7.28087271563708782196044921875"><ele></ele><time>2017-5-3T7:12:52Z</time></trkpt>
<trkpt lat="47.330434955656528472900390625" lon="7.28051497600972652435302734375"><ele></ele><time>2017-5-3T7:12:55Z</time></trkpt>
<trkpt lat="47.33044861815869808197021484375" lon="7.280261926352977752685546875"><ele></ele><time>2017-5-3T7:12:58Z</time></trkpt>
<trkpt lat="47.33045867644250392913818359375" lon="7.279957830905914306640625"><ele></ele><time>2017-5-3T7:13:1Z</time></trkpt>
<trkpt lat="47.33048013411462306976318359375" lon="7.27969271130859851837158203125"><ele></ele><time>2017-5-3T7:13:4Z</time></trkpt>
<trkpt lat="47.33049639500677585601806640625" lon="7.27951920591294765472412109375"><ele></ele><time>2017-5-3T7:13:7Z</time></trkpt>
<trkpt lat="47.33050628565251827239990234375" lon="7.27942616678774356842041015625"><ele></ele><time>2017-5-3T7:13:10Z</time></trkpt>
<trkpt lat="47.330519445240497589111328125" lon="7.2793635539710521697998046875"><ele></ele><time>2017-5-3T7:13:13Z</time></trkpt>
<trkpt lat="47.33052321709692478179931640625" lon="7.27921284735202789306640625"><ele></ele><time>2017-5-3T7:13:16Z</time></trkpt>
<trkpt lat="47.33053612522780895233154296875" lon="7.27916046045720577239990234375"><ele></ele><time>2017-5-3T7:13:19Z</time></trkpt>
<trkpt lat="47.3305943794548511505126953125" lon="7.27897253818809986114501953125"><ele></ele><time>2017-5-3T7:13:22Z</time></trkpt>
<trkpt lat="47.33072337694466114044189453125" lon="7.27916347794234752655029296875"><ele></ele><time>2017-5-3T7:13:25Z</time></trkpt>
<trkpt lat="47.3307378776371479034423828125" lon="7.2792190499603748321533203125"><ele></ele><time>2017-5-3T7:13:28Z</time></trkpt>
<trkpt lat="47.33097977936267852783203125" lon="7.279385514557361602783203125"><ele></ele><time>2017-5-3T7:13:31Z</time></trkpt>
<trkpt lat="47.33104775659739971160888671875" lon="7.27941401302814483642578125"><ele></ele><time>2017-5-3T7:13:34Z</time></trkpt>
<trkpt lat="47.33118765056133270263671875" lon="7.27949037216603755950927734375"><ele></ele><time>2017-5-3T7:13:37Z</time></trkpt>
<trkpt lat="47.33133156783878803253173828125" lon="7.27956555783748626708984375"><ele></ele><time>2017-5-3T7:13:40Z</time></trkpt>
<trkpt lat="47.3314603976905345916748046875" lon="7.2796243987977504730224609375"><ele></ele><time>2017-5-3T7:13:43Z</time></trkpt>
<trkpt lat="47.331511862576007843017578125" lon="7.279651723802089691162109375"><ele></ele><time>2017-5-3T7:13:46Z</time></trkpt>
<trkpt lat="47.33155486173927783966064453125" lon="7.2796793840825557708740234375"><ele></ele><time>2017-5-3T7:13:49Z</time></trkpt>
<trkpt lat="47.331601046025753021240234375" lon="7.2797015123069286346435546875"><ele></ele><time>2017-5-3T7:13:52Z</time></trkpt>
<trkpt lat="47.3316528461873531341552734375" lon="7.2797115705907344818115234375"><ele></ele><time>2017-5-3T7:13:55Z</time></trkpt>
<trkpt lat="47.33170573599636554718017578125" lon="7.279708385467529296875"><ele></ele><time>2017-5-3T7:13:58Z</time></trkpt>
<trkpt lat="47.33175870962440967559814453125" lon="7.27969338186085224151611328125"><ele></ele><time>2017-5-3T7:14:1Z</time></trkpt>
<trkpt lat="47.3318147845566272735595703125" lon="7.27967326529324054718017578125"><ele></ele><time>2017-5-3T7:14:4Z</time></trkpt>
<trkpt lat="47.33186759054660797119140625" lon="7.2796592675149440765380859375"><ele></ele><time>2017-5-3T7:14:7Z</time></trkpt>
<trkpt lat="47.33191193081438541412353515625" lon="7.27965541183948516845703125"><ele></ele><time>2017-5-3T7:14:10Z</time></trkpt>
<trkpt lat="47.33199943788349628448486328125" lon="7.279715426266193389892578125"><ele></ele><time>2017-5-3T7:14:13Z</time></trkpt>
<trkpt lat="47.3320551775395870208740234375" lon="7.27974752895534038543701171875"><ele></ele><time>2017-5-3T7:14:16Z</time></trkpt>
<trkpt lat="47.33210404403507709503173828125" lon="7.27976328693330287933349609375"><ele></ele><time>2017-5-3T7:14:19Z</time></trkpt>
<trkpt lat="47.33229448087513446807861328125" lon="7.279781810939311981201171875"><ele></ele><time>2017-5-3T7:14:22Z</time></trkpt>
<trkpt lat="47.3324216343462467193603515625" lon="7.27978013455867767333984375"><ele></ele><time>2017-5-3T7:14:25Z</time></trkpt>
<trkpt lat="47.3324977420270442962646484375" lon="7.27976647205650806427001953125"><ele></ele><time>2017-5-3T7:14:28Z</time></trkpt>
<trkpt lat="47.33253546059131622314453125" lon="7.2797544859349727630615234375"><ele></ele><time>2017-5-3T7:14:31Z</time></trkpt>
<trkpt lat="47.3325808905065059661865234375" lon="7.2797414101660251617431640625"><ele></ele><time>2017-5-3T7:14:34Z</time></trkpt>
<trkpt lat="47.33263042755424976348876953125" lon="7.27973177097737789154052734375"><ele></ele><time>2017-5-3T7:14:37Z</time></trkpt>
<trkpt lat="47.33267585746943950653076171875" lon="7.2797283343970775604248046875"><ele></ele><time>2017-5-3T7:14:40Z</time></trkpt>
<trkpt lat="47.33272128738462924957275390625" lon="7.2797285020351409912109375"><ele></ele><time>2017-5-3T7:14:43Z</time></trkpt>
<trkpt lat="47.33281985856592655181884765625" lon="7.2797182761132717132568359375"><ele></ele><time>2017-5-3T7:14:46Z</time></trkpt>
<trkpt lat="47.332925386726856231689453125" lon="7.27970092557370662689208984375"><ele></ele><time>2017-5-3T7:14:49Z</time></trkpt>
<trkpt lat="47.333032004535198211669921875" lon="7.27968717925250530242919921875"><ele></ele><time>2017-5-3T7:14:52Z</time></trkpt>
<trkpt lat="47.33312244527041912078857421875" lon="7.279657088220119476318359375"><ele></ele><time>2017-5-3T7:14:55Z</time></trkpt>
<trkpt lat="47.333186902105808258056640625" lon="7.27961207740008831024169921875"><ele></ele><time>2017-5-3T7:14:58Z</time></trkpt>
<trkpt lat="47.33324096538126468658447265625" lon="7.279542423784732818603515625"><ele></ele><time>2017-5-3T7:15:1Z</time></trkpt>
<trkpt lat="47.3332611657679080963134765625" lon="7.27951099164783954620361328125"><ele></ele><time>2017-5-3T7:15:4Z</time></trkpt>
<trkpt lat="47.33326845802366733551025390625" lon="7.279478050768375396728515625"><ele></ele><time>2017-5-3T7:15:7Z</time></trkpt>
<trkpt lat="47.333272062242031097412109375" lon="7.27944477461278438568115234375"><ele></ele><time>2017-5-3T7:15:10Z</time></trkpt>
<trkpt lat="47.3332764208316802978515625" lon="7.27937939576804637908935546875"><ele></ele><time>2017-5-3T7:15:13Z</time></trkpt>
<trkpt lat="47.3332863114774227142333984375" lon="7.27931343019008636474609375"><ele></ele><time>2017-5-3T7:15:16Z</time></trkpt>
<trkpt lat="47.33331992290914058685302734375" lon="7.279098518192768096923828125"><ele></ele><time>2017-5-3T7:15:19Z</time></trkpt>
<trkpt lat="47.333335764706134796142578125" lon="7.2789867036044597625732421875"><ele></ele><time>2017-5-3T7:15:22Z</time></trkpt>
<trkpt lat="47.3333567194640636444091796875" lon="7.27878998033702373504638671875"><ele></ele><time>2017-5-3T7:15:25Z</time></trkpt>
<trkpt lat="47.3333754949271678924560546875" lon="7.27850113995373249053955078125"><ele></ele><time>2017-5-3T7:15:28Z</time></trkpt>
<trkpt lat="47.33338546939194202423095703125" lon="7.2783560492098331451416015625"><ele></ele><time>2017-5-3T7:15:31Z</time></trkpt>
<trkpt lat="47.3334070108830928802490234375" lon="7.2780673764646053314208984375"><ele></ele><time>2017-5-3T7:15:34Z</time></trkpt>
<trkpt lat="47.33342436142265796661376953125" lon="7.277795635163784027099609375"><ele></ele><time>2017-5-3T7:15:37Z</time></trkpt>
<trkpt lat="47.333460152149200439453125" lon="7.27729565463960170745849609375"><ele></ele><time>2017-5-3T7:15:40Z</time></trkpt>
<trkpt lat="47.3334881477057933807373046875" lon="7.277164645493030548095703125"><ele></ele><time>2017-5-3T7:15:43Z</time></trkpt>
<trkpt lat="47.3335508443415164947509765625" lon="7.2770095802843570709228515625"><ele></ele><time>2017-5-3T7:15:46Z</time></trkpt>
<trkpt lat="47.33355059288442134857177734375" lon="7.27701066993176937103271484375"><ele></ele><time>2017-5-3T7:15:49Z</time></trkpt>
<trkpt lat="47.33355059288442134857177734375" lon="7.277011089026927947998046875"><ele></ele><time>2017-5-3T7:15:52Z</time></trkpt>
<trkpt lat="47.3335505090653896331787109375" lon="7.2770115919411182403564453125"><ele></ele><time>2017-5-3T7:15:55Z</time></trkpt>
<trkpt lat="47.3335498385131359100341796875" lon="7.27700815536081790924072265625"><ele></ele><time>2017-5-3T7:15:58Z</time></trkpt>
<trkpt lat="47.33355059288442134857177734375" lon="7.27700798772275447845458984375"><ele></ele><time>2017-5-3T7:16:1Z</time></trkpt>
<trkpt lat="47.33355067670345306396484375" lon="7.27700798772275447845458984375"><ele></ele><time>2017-5-3T7:16:4Z</time></trkpt>
<trkpt lat="47.33355067670345306396484375" lon="7.277007736265659332275390625"><ele></ele><time>2017-5-3T7:16:7Z</time></trkpt>
<trkpt lat="47.33355067670345306396484375" lon="7.2770072333514690399169921875"><ele></ele><time>2017-5-3T7:16:10Z</time></trkpt>
<trkpt lat="47.33358244411647319793701171875" lon="7.2769780643284320831298828125"><ele></ele><time>2017-5-3T7:16:13Z</time></trkpt>
<trkpt lat="47.333583533763885498046875" lon="7.27697378955781459808349609375"><ele></ele><time>2017-5-3T7:16:16Z</time></trkpt>
<trkpt lat="47.3335847072303295135498046875" lon="7.27697378955781459808349609375"><ele></ele><time>2017-5-3T7:16:19Z</time></trkpt>
<trkpt lat="47.333586215972900390625" lon="7.276976220309734344482421875"><ele></ele><time>2017-5-3T7:16:22Z</time></trkpt>
<trkpt lat="47.33359166420996189117431640625" lon="7.2769887931644916534423828125"><ele></ele><time>2017-5-3T7:16:25Z</time></trkpt>
<trkpt lat="47.33361077494919300079345703125" lon="7.277030535042285919189453125"><ele></ele><time>2017-5-3T7:16:28Z</time></trkpt>
<trkpt lat="47.33361077494919300079345703125" lon="7.27703095413744449615478515625"><ele></ele><time>2017-5-3T7:16:31Z</time></trkpt>
<trkpt lat="47.3336135409772396087646484375" lon="7.2770327143371105194091796875"><ele></ele><time>2017-5-3T7:16:34Z</time></trkpt>
<trkpt lat="47.33364187180995941162109375" lon="7.277027852833271026611328125"><ele></ele><time>2017-5-3T7:16:37Z</time></trkpt>
<trkpt lat="47.33368202112615108489990234375" lon="7.27705056779086589813232421875"><ele></ele><time>2017-5-3T7:16:40Z</time></trkpt>
<trkpt lat="47.3337726294994354248046875" lon="7.27714712731540203094482421875"><ele></ele><time>2017-5-3T7:16:43Z</time></trkpt>
<trkpt lat="47.33398846350610256195068359375" lon="7.27739539928734302520751953125"><ele></ele><time>2017-5-3T7:16:46Z</time></trkpt>
<trkpt lat="47.33417588286101818084716796875" lon="7.27761165238916873931884765625"><ele></ele><time>2017-5-3T7:16:49Z</time></trkpt>
<trkpt lat="47.33428023755550384521484375" lon="7.2777409851551055908203125"><ele></ele><time>2017-5-3T7:16:52Z</time></trkpt>
<trkpt lat="47.33432189561426639556884765625" lon="7.27779923938214778900146484375"><ele></ele><time>2017-5-3T7:16:55Z</time></trkpt>
<trkpt lat="47.33433648012578487396240234375" lon="7.27782019414007663726806640625"><ele></ele><time>2017-5-3T7:16:58Z</time></trkpt>
<trkpt lat="47.33435575850307941436767578125" lon="7.2778444178402423858642578125"><ele></ele><time>2017-5-3T7:17:1Z</time></trkpt>
<trkpt lat="47.33438350260257720947265625" lon="7.27788641117513179779052734375"><ele></ele><time>2017-5-3T7:17:4Z</time></trkpt>
<trkpt lat="47.334401607513427734375" lon="7.27790300734341144561767578125"><ele></ele><time>2017-5-3T7:17:7Z</time></trkpt>
<trkpt lat="47.33440152369439601898193359375" lon="7.27790334261953830718994140625"><ele></ele><time>2017-5-3T7:17:10Z</time></trkpt>
<trkpt lat="47.33440185897052288055419921875" lon="7.27790384553372859954833984375"><ele></ele><time>2017-5-3T7:17:13Z</time></trkpt>
<trkpt lat="47.3344017751514911651611328125" lon="7.27790367789566516876220703125"><ele></ele><time>2017-5-3T7:17:16Z</time></trkpt>
<trkpt lat="47.33440219424664974212646484375" lon="7.27790283970534801483154296875"><ele></ele><time>2017-5-3T7:17:19Z</time></trkpt>
<trkpt lat="47.3344021104276180267333984375" lon="7.27790216915309429168701171875"><ele></ele><time>2017-5-3T7:17:22Z</time></trkpt>
<trkpt lat="47.33440169133245944976806640625" lon="7.2779027558863162994384765625"><ele></ele><time>2017-5-3T7:17:25Z</time></trkpt>
<trkpt lat="47.33440169133245944976806640625" lon="7.2779034264385700225830078125"><ele></ele><time>2017-5-3T7:17:28Z</time></trkpt>
<trkpt lat="47.33440169133245944976806640625" lon="7.2779034264385700225830078125"><ele></ele><time>2017-5-3T7:17:31Z</time></trkpt>
<trkpt lat="47.33440169133245944976806640625" lon="7.27790334261953830718994140625"><ele></ele><time>2017-5-3T7:17:34Z</time></trkpt>
<trkpt lat="47.334401272237300872802734375" lon="7.27790468372404575347900390625"><ele></ele><time>2017-5-3T7:17:37Z</time></trkpt>
<trkpt lat="47.33441577292978763580322265625" lon="7.2779027558863162994384765625"><ele></ele><time>2017-5-3T7:17:40Z</time></trkpt>
<trkpt lat="47.33446556143462657928466796875" lon="7.27786235511302947998046875"><ele></ele><time>2017-5-3T7:17:43Z</time></trkpt>
<trkpt lat="47.33450344763696193695068359375" lon="7.277777530252933502197265625"><ele></ele><time>2017-5-3T7:17:46Z</time></trkpt>
<trkpt lat="47.33452054671943187713623046875" lon="7.27772195823490619659423828125"><ele></ele><time>2017-5-3T7:17:49Z</time></trkpt>
<trkpt lat="47.33459715731441974639892578125" lon="7.27745457552373409271240234375"><ele></ele><time>2017-5-3T7:17:52Z</time></trkpt>
<trkpt lat="47.33464627526700496673583984375" lon="7.27721435017883777618408203125"><ele></ele><time>2017-5-3T7:17:55Z</time></trkpt>
<trkpt lat="47.33467360027134418487548828125" lon="7.277033887803554534912109375"><ele></ele><time>2017-5-3T7:17:58Z</time></trkpt>
<trkpt lat="47.33473026193678379058837890625" lon="7.2764325700700283050537109375"><ele></ele><time>2017-5-3T7:18:1Z</time></trkpt>
<trkpt lat="47.33473897911608219146728515625" lon="7.276222519576549530029296875"><ele></ele><time>2017-5-3T7:18:4Z</time></trkpt>
<trkpt lat="47.3347558267414569854736328125" lon="7.27579839527606964111328125"><ele></ele><time>2017-5-3T7:18:7Z</time></trkpt>
<trkpt lat="47.33476026915013790130615234375" lon="7.27548700757324695587158203125"><ele></ele><time>2017-5-3T7:18:10Z</time></trkpt>
<trkpt lat="47.33474157750606536865234375" lon="7.2748844325542449951171875"><ele></ele><time>2017-5-3T7:18:13Z</time></trkpt>
<trkpt lat="47.33468416146934032440185546875" lon="7.274403981864452362060546875"><ele></ele><time>2017-5-3T7:18:16Z</time></trkpt>
<trkpt lat="47.33461928553879261016845703125" lon="7.27393769659101963043212890625"><ele></ele><time>2017-5-3T7:18:19Z</time></trkpt>
<trkpt lat="47.3345861770212650299072265625" lon="7.27346998639404773712158203125"><ele></ele><time>2017-5-3T7:18:22Z</time></trkpt>
<trkpt lat="47.33457796275615692138671875" lon="7.273283489048480987548828125"><ele></ele><time>2017-5-3T7:18:25Z</time></trkpt>
<trkpt lat="47.33454854227602481842041015625" lon="7.27254889905452728271484375"><ele></ele><time>2017-5-3T7:18:28Z</time></trkpt>
<trkpt lat="47.3345456086099147796630859375" lon="7.272369861602783203125"><ele></ele><time>2017-5-3T7:18:31Z</time></trkpt>
<trkpt lat="47.334547452628612518310546875" lon="7.27176125161349773406982421875"><ele></ele><time>2017-5-3T7:18:34Z</time></trkpt>
<trkpt lat="47.334567569196224212646484375" lon="7.2711553238332271575927734375"><ele></ele><time>2017-5-3T7:18:37Z</time></trkpt>
<trkpt lat="47.33460436575114727020263671875" lon="7.270652912557125091552734375"><ele></ele><time>2017-5-3T7:18:40Z</time></trkpt>
<trkpt lat="47.33478851616382598876953125" lon="7.270499356091022491455078125"><ele></ele><time>2017-5-3T7:18:43Z</time></trkpt>
<trkpt lat="47.33535856939852237701416015625" lon="7.2704321332275867462158203125"><ele></ele><time>2017-5-3T7:18:46Z</time></trkpt>
<trkpt lat="47.33569434843957424163818359375" lon="7.27040824480354785919189453125"><ele></ele><time>2017-5-3T7:18:49Z</time></trkpt>
<trkpt lat="47.33598955906927585601806640625" lon="7.27066841907799243927001953125"><ele></ele><time>2017-5-3T7:18:52Z</time></trkpt>
<trkpt lat="47.3360406048595905303955078125" lon="7.27074469439685344696044921875"><ele></ele><time>2017-5-3T7:18:55Z</time></trkpt>
<trkpt lat="47.3361517488956451416015625" lon="7.27088450454175472259521484375"><ele></ele><time>2017-5-3T7:18:58Z</time></trkpt>
<trkpt lat="47.336363978683948516845703125" lon="7.27094954811036586761474609375"><ele></ele><time>2017-5-3T7:19:1Z</time></trkpt>
<trkpt lat="47.3364365659654140472412109375" lon="7.27094301022589206695556640625"><ele></ele><time>2017-5-3T7:19:4Z</time></trkpt>
<trkpt lat="47.33672113157808780670166015625" lon="7.270923815667629241943359375"><ele></ele><time>2017-5-3T7:19:7Z</time></trkpt>
<trkpt lat="47.3369515500962734222412109375" lon="7.27075056172907352447509765625"><ele></ele><time>2017-5-3T7:19:10Z</time></trkpt>
<trkpt lat="47.33740509487688541412353515625" lon="7.270243205130100250244140625"><ele></ele><time>2017-5-3T7:19:13Z</time></trkpt>
<trkpt lat="47.33745421282947063446044921875" lon="7.270192913711071014404296875"><ele></ele><time>2017-5-3T7:19:16Z</time></trkpt>
<trkpt lat="47.33754926361143589019775390625" lon="7.270090319216251373291015625"><ele></ele><time>2017-5-3T7:19:19Z</time></trkpt>
<trkpt lat="47.3377059213817119598388671875" lon="7.269726209342479705810546875"><ele></ele><time>2017-5-3T7:19:22Z</time></trkpt>
<trkpt lat="47.33776065520942211151123046875" lon="7.26929948665201663970947265625"><ele></ele><time>2017-5-3T7:19:25Z</time></trkpt>
<trkpt lat="47.33777674846351146697998046875" lon="7.26921717636287212371826171875"><ele></ele><time>2017-5-3T7:19:28Z</time></trkpt>
<trkpt lat="47.33779904432594776153564453125" lon="7.26913771592080593109130859375"><ele></ele><time>2017-5-3T7:19:31Z</time></trkpt>
<trkpt lat="47.3379781655967235565185546875" lon="7.26859775371849536895751953125"><ele></ele><time>2017-5-3T7:19:34Z</time></trkpt>
<trkpt lat="47.3381679318845272064208984375" lon="7.2678959369659423828125"><ele></ele><time>2017-5-3T7:19:37Z</time></trkpt>
<trkpt lat="47.3383774794638156890869140625" lon="7.2671403922140598297119140625"><ele></ele><time>2017-5-3T7:19:40Z</time></trkpt>
<trkpt lat="47.33854486607015132904052734375" lon="7.26652105338871479034423828125"><ele></ele><time>2017-5-3T7:19:43Z</time></trkpt>
<trkpt lat="47.33875927515327930450439453125" lon="7.26572510786354541778564453125"><ele></ele><time>2017-5-3T7:19:46Z</time></trkpt>
<trkpt lat="47.338916771113872528076171875" lon="7.26517106406390666961669921875"><ele></ele><time>2017-5-3T7:19:49Z</time></trkpt>
<trkpt lat="47.33928046189248561859130859375" lon="7.26495984010398387908935546875"><ele></ele><time>2017-5-3T7:19:52Z</time></trkpt>
<trkpt lat="47.339760996401309967041015625" lon="7.26497165858745574951171875"><ele></ele><time>2017-5-3T7:19:55Z</time></trkpt>
<trkpt lat="47.33999711461365222930908203125" lon="7.26448827423155307769775390625"><ele></ele><time>2017-5-3T7:19:58Z</time></trkpt>
<trkpt lat="47.34006366692483425140380859375" lon="7.26404353044927120208740234375"><ele></ele><time>2017-5-3T7:20:1Z</time></trkpt>
<trkpt lat="47.34019543044269084930419921875" lon="7.2631980478763580322265625"><ele></ele><time>2017-5-3T7:20:4Z</time></trkpt>
<trkpt lat="47.34031914733350276947021484375" lon="7.26240352727472782135009765625"><ele></ele><time>2017-5-3T7:20:7Z</time></trkpt>
<trkpt lat="47.3404504917562007904052734375" lon="7.26158025674521923065185546875"><ele></ele><time>2017-5-3T7:20:10Z</time></trkpt>
<trkpt lat="47.3405017890036106109619140625" lon="7.26123869419097900390625"><ele></ele><time>2017-5-3T7:20:13Z</time></trkpt>
<trkpt lat="47.34063480980694293975830078125" lon="7.26043595932424068450927734375"><ele></ele><time>2017-5-3T7:20:16Z</time></trkpt>
<trkpt lat="47.34070823527872562408447265625" lon="7.26000462658703327178955078125"><ele></ele><time>2017-5-3T7:20:19Z</time></trkpt>
<trkpt lat="47.34084569849073886871337890625" lon="7.2591826133430004119873046875"><ele></ele><time>2017-5-3T7:20:22Z</time></trkpt>
<trkpt lat="47.34090236015617847442626953125" lon="7.25880752317607402801513671875"><ele></ele><time>2017-5-3T7:20:25Z</time></trkpt>
<trkpt lat="47.3410093970596790313720703125" lon="7.2579779662191867828369140625"><ele></ele><time>2017-5-3T7:20:28Z</time></trkpt>
<trkpt lat="47.341061867773532867431640625" lon="7.25754420273005962371826171875"><ele></ele><time>2017-5-3T7:20:31Z</time></trkpt>
<trkpt lat="47.34112381003797054290771484375" lon="7.257235161960124969482421875"><ele></ele><time>2017-5-3T7:20:34Z</time></trkpt>
<trkpt lat="47.3412303440272808074951171875" lon="7.2565667890012264251708984375"><ele></ele><time>2017-5-3T7:20:37Z</time></trkpt>
<trkpt lat="47.34119488857686519622802734375" lon="7.25650526583194732666015625"><ele></ele><time>2017-5-3T7:20:40Z</time></trkpt>
<trkpt lat="47.34106027521193027496337890625" lon="7.25626026280224323272705078125"><ele></ele><time>2017-5-3T7:20:43Z</time></trkpt>
<trkpt lat="47.3408229835331439971923828125" lon="7.2554679214954376220703125"><ele></ele><time>2017-5-3T7:20:46Z</time></trkpt>
<trkpt lat="47.3406017012894153594970703125" lon="7.25469703786075115203857421875"><ele></ele><time>2017-5-3T7:20:49Z</time></trkpt>
<trkpt lat="47.34034714289009571075439453125" lon="7.253950797021389007568359375"><ele></ele><time>2017-5-3T7:20:52Z</time></trkpt>
<trkpt lat="47.3403147049248218536376953125" lon="7.25389170460402965545654296875"><ele></ele><time>2017-5-3T7:20:55Z</time></trkpt>
<trkpt lat="47.3402528464794158935546875" lon="7.2537729330360889434814453125"><ele></ele><time>2017-5-3T7:20:58Z</time></trkpt>
<trkpt lat="47.3403160460293292999267578125" lon="7.25340102799236774444580078125"><ele></ele><time>2017-5-3T7:21:1Z</time></trkpt>
<trkpt lat="47.3406068980693817138671875" lon="7.2531010396778583526611328125"><ele></ele><time>2017-5-3T7:21:4Z</time></trkpt>
<trkpt lat="47.340571694076061248779296875" lon="7.25286223925650119781494140625"><ele></ele><time>2017-5-3T7:21:7Z</time></trkpt>
<trkpt lat="47.3403519205749034881591796875" lon="7.25249377079308032989501953125"><ele></ele><time>2017-5-3T7:21:10Z</time></trkpt>
<trkpt lat="47.3402543552219867706298828125" lon="7.25234004668891429901123046875"><ele></ele><time>2017-5-3T7:21:13Z</time></trkpt>
<trkpt lat="47.339811287820339202880859375" lon="7.2518045268952846527099609375"><ele></ele><time>2017-5-3T7:21:16Z</time></trkpt>
<trkpt lat="47.33972906135022640228271484375" lon="7.25169899873435497283935546875"><ele></ele><time>2017-5-3T7:21:19Z</time></trkpt>
<trkpt lat="47.33945019543170928955078125" lon="7.25096424110233783721923828125"><ele></ele><time>2017-5-3T7:21:22Z</time></trkpt>
<trkpt lat="47.33918608166277408599853515625" lon="7.25023920647799968719482421875"><ele></ele><time>2017-5-3T7:21:25Z</time></trkpt>
<trkpt lat="47.33903923071920871734619140625" lon="7.24974878132343292236328125"><ele></ele><time>2017-5-3T7:21:28Z</time></trkpt>
<trkpt lat="47.339016012847423553466796875" lon="7.24944611079990863800048828125"><ele></ele><time>2017-5-3T7:21:31Z</time></trkpt>
<trkpt lat="47.33900335617363452911376953125" lon="7.24913723766803741455078125"><ele></ele><time>2017-5-3T7:21:34Z</time></trkpt>
<trkpt lat="47.33892993070185184478759765625" lon="7.24875745363533496856689453125"><ele></ele><time>2017-5-3T7:21:37Z</time></trkpt>
<trkpt lat="47.3388347961008548736572265625" lon="7.2483102791011333465576171875"><ele></ele><time>2017-5-3T7:21:40Z</time></trkpt>
<trkpt lat="47.33884309418499469757080078125" lon="7.24786712788045406341552734375"><ele></ele><time>2017-5-3T7:21:43Z</time></trkpt>
<trkpt lat="47.3388227261602878570556640625" lon="7.24781717173755168914794921875"><ele></ele><time>2017-5-3T7:21:46Z</time></trkpt>
<trkpt lat="47.3385323770344257354736328125" lon="7.24740092642605304718017578125"><ele></ele><time>2017-5-3T7:21:49Z</time></trkpt>
<trkpt lat="47.33828050084412097930908203125" lon="7.246973700821399688720703125"><ele></ele><time>2017-5-3T7:21:52Z</time></trkpt>
<trkpt lat="47.33789409510791301727294921875" lon="7.24637129344046115875244140625"><ele></ele><time>2017-5-3T7:21:55Z</time></trkpt>
<trkpt lat="47.33774992637336254119873046875" lon="7.24616023711860179901123046875"><ele></ele><time>2017-5-3T7:21:58Z</time></trkpt>
<trkpt lat="47.33771321363747119903564453125" lon="7.2461138851940631866455078125"><ele></ele><time>2017-5-3T7:22:1Z</time></trkpt>
<trkpt lat="47.33793474733829498291015625" lon="7.245891429483890533447265625"><ele></ele><time>2017-5-3T7:22:4Z</time></trkpt>
<trkpt lat="47.33821461908519268035888671875" lon="7.24593828432261943817138671875"><ele></ele><time>2017-5-3T7:22:7Z</time></trkpt>
<trkpt lat="47.33856908977031707763671875" lon="7.24574902094900608062744140625"><ele></ele><time>2017-5-3T7:22:10Z</time></trkpt>
<trkpt lat="47.33862516470253467559814453125" lon="7.24562278948724269866943359375"><ele></ele><time>2017-5-3T7:22:13Z</time></trkpt>
<trkpt lat="47.33864377252757549285888671875" lon="7.24555506370961666107177734375"><ele></ele><time>2017-5-3T7:22:16Z</time></trkpt>
<trkpt lat="47.3384602926671504974365234375" lon="7.24474151618778705596923828125"><ele></ele><time>2017-5-3T7:22:19Z</time></trkpt>
<trkpt lat="47.3382836021482944488525390625" lon="7.2440941818058490753173828125"><ele></ele><time>2017-5-3T7:22:22Z</time></trkpt>
<trkpt lat="47.338135577738285064697265625" lon="7.24353351630270481109619140625"><ele></ele><time>2017-5-3T7:22:25Z</time></trkpt>
<trkpt lat="47.33807598240673542022705078125" lon="7.2433304227888584136962890625"><ele></ele><time>2017-5-3T7:22:28Z</time></trkpt>
<trkpt lat="47.33808537013828754425048828125" lon="7.243110649287700653076171875"><ele></ele><time>2017-5-3T7:22:31Z</time></trkpt>
<trkpt lat="47.3382051475346088409423828125" lon="7.24304325878620147705078125"><ele></ele><time>2017-5-3T7:22:34Z</time></trkpt>
<trkpt lat="47.33872557990252971649169921875" lon="7.2428311966359615325927734375"><ele></ele><time>2017-5-3T7:22:37Z</time></trkpt>
<trkpt lat="47.33892372809350490570068359375" lon="7.2427788935601711273193359375"><ele></ele><time>2017-5-3T7:22:40Z</time></trkpt>
<trkpt lat="47.33899698592722415924072265625" lon="7.24252182058990001678466796875"><ele></ele><time>2017-5-3T7:22:43Z</time></trkpt>
<trkpt lat="47.33899480663239955902099609375" lon="7.24244453944265842437744140625"><ele></ele><time>2017-5-3T7:22:46Z</time></trkpt>
<trkpt lat="47.3387573473155498504638671875" lon="7.2420654259622097015380859375"><ele></ele><time>2017-5-3T7:22:49Z</time></trkpt>
<trkpt lat="47.33856380917131900787353515625" lon="7.24170148372650146484375"><ele></ele><time>2017-5-3T7:22:52Z</time></trkpt>
<trkpt lat="47.33823741786181926727294921875" lon="7.24100201390683650970458984375"><ele></ele><time>2017-5-3T7:22:55Z</time></trkpt>
<trkpt lat="47.33802116475999355316162109375" lon="7.24054486490786075592041015625"><ele></ele><time>2017-5-3T7:22:58Z</time></trkpt>
<trkpt lat="47.33777624554932117462158203125" lon="7.2400162182748317718505859375"><ele></ele><time>2017-5-3T7:23:1Z</time></trkpt>
<trkpt lat="47.33762956224381923675537109375" lon="7.23968320526182651519775390625"><ele></ele><time>2017-5-3T7:23:4Z</time></trkpt>
<trkpt lat="47.337599806487560272216796875" lon="7.23961564712226390838623046875"><ele></ele><time>2017-5-3T7:23:7Z</time></trkpt>
<trkpt lat="47.337294034659862518310546875" lon="7.23895498551428318023681640625"><ele></ele><time>2017-5-3T7:23:10Z</time></trkpt>
<trkpt lat="47.33700041659176349639892578125" lon="7.2382161207497119903564453125"><ele></ele><time>2017-5-3T7:23:13Z</time></trkpt>
<trkpt lat="47.33690989203751087188720703125" lon="7.23794396035373210906982421875"><ele></ele><time>2017-5-3T7:23:16Z</time></trkpt>
<trkpt lat="47.33667369000613689422607421875" lon="7.23715757019817829132080078125"><ele></ele><time>2017-5-3T7:23:19Z</time></trkpt>
<trkpt lat="47.33644452877342700958251953125" lon="7.23635525442659854888916015625"><ele></ele><time>2017-5-3T7:23:22Z</time></trkpt>
<trkpt lat="47.3364047147333621978759765625" lon="7.2362031228840351104736328125"><ele></ele><time>2017-5-3T7:23:25Z</time></trkpt>
<trkpt lat="47.3361579515039920806884765625" lon="7.23543039523065090179443359375"><ele></ele><time>2017-5-3T7:23:28Z</time></trkpt>
<trkpt lat="47.33603515662252902984619140625" lon="7.2350719012320041656494140625"><ele></ele><time>2017-5-3T7:23:31Z</time></trkpt>
<trkpt lat="47.3357780836522579193115234375" lon="7.23434150218963623046875"><ele></ele><time>2017-5-3T7:23:34Z</time></trkpt>
<trkpt lat="47.3356761597096920013427734375" lon="7.23404469899833202362060546875"><ele></ele><time>2017-5-3T7:23:37Z</time></trkpt>
<trkpt lat="47.3355420492589473724365234375" lon="7.2336711175739765167236328125"><ele></ele><time>2017-5-3T7:23:40Z</time></trkpt>
<trkpt lat="47.3354407958686351776123046875" lon="7.2333499230444431304931640625"><ele></ele><time>2017-5-3T7:23:43Z</time></trkpt>
<trkpt lat="47.335407435894012451171875" lon="7.233070470392704010009765625"><ele></ele><time>2017-5-3T7:23:46Z</time></trkpt>
<trkpt lat="47.33533325605094432830810546875" lon="7.2322723455727100372314453125"><ele></ele><time>2017-5-3T7:23:49Z</time></trkpt>
<trkpt lat="47.3353247903287410736083984375" lon="7.232187688350677490234375"><ele></ele><time>2017-5-3T7:23:52Z</time></trkpt>
<trkpt lat="47.335277684032917022705078125" lon="7.2316725365817546844482421875"><ele></ele><time>2017-5-3T7:23:55Z</time></trkpt>
<trkpt lat="47.33519813977181911468505859375" lon="7.23084482364356517791748046875"><ele></ele><time>2017-5-3T7:23:58Z</time></trkpt>
<trkpt lat="47.33512236736714839935302734375" lon="7.230029515922069549560546875"><ele></ele><time>2017-5-3T7:24:1Z</time></trkpt>
<trkpt lat="47.335046343505382537841796875" lon="7.229231894016265869140625"><ele></ele><time>2017-5-3T7:24:4Z</time></trkpt>
<trkpt lat="47.33496998436748981475830078125" lon="7.22841038368642330169677734375"><ele></ele><time>2017-5-3T7:24:7Z</time></trkpt>
<trkpt lat="47.33493947423994541168212890625" lon="7.22808097489178180694580078125"><ele></ele><time>2017-5-3T7:24:10Z</time></trkpt>
<trkpt lat="47.33486085198819637298583984375" lon="7.22725233994424343109130859375"><ele></ele><time>2017-5-3T7:24:13Z</time></trkpt>
<trkpt lat="47.33479321002960205078125" lon="7.22641088068485260009765625"><ele></ele><time>2017-5-3T7:24:16Z</time></trkpt>
<trkpt lat="47.33477049507200717926025390625" lon="7.22616353072226047515869140625"><ele></ele><time>2017-5-3T7:24:19Z</time></trkpt>
<trkpt lat="47.33472271822392940521240234375" lon="7.22548292018473148345947265625"><ele></ele><time>2017-5-3T7:24:22Z</time></trkpt>
<trkpt lat="47.33471743762493133544921875" lon="7.22541770897805690765380859375"><ele></ele><time>2017-5-3T7:24:25Z</time></trkpt>
<trkpt lat="47.33463336713612079620361328125" lon="7.22460214979946613311767578125"><ele></ele><time>2017-5-3T7:24:28Z</time></trkpt>
<trkpt lat="47.3345513083040714263916015625" lon="7.22378902137279510498046875"><ele></ele><time>2017-5-3T7:24:31Z</time></trkpt>
<trkpt lat="47.33447561971843242645263671875" lon="7.22298838198184967041015625"><ele></ele><time>2017-5-3T7:24:34Z</time></trkpt>
<trkpt lat="47.33444175682961940765380859375" lon="7.2222207672894001007080078125"><ele></ele><time>2017-5-3T7:24:37Z</time></trkpt>
<trkpt lat="47.33454954810440540313720703125" lon="7.22192823886871337890625"><ele></ele><time>2017-5-3T7:24:40Z</time></trkpt>
<trkpt lat="47.334469668567180633544921875" lon="7.22193184308707714080810546875"><ele></ele><time>2017-5-3T7:24:43Z</time></trkpt>
<trkpt lat="47.3341925628483295440673828125" lon="7.22199403680860996246337890625"><ele></ele><time>2017-5-3T7:24:46Z</time></trkpt>
<trkpt lat="47.3336738906800746917724609375" lon="7.222128398716449737548828125"><ele></ele><time>2017-5-3T7:24:49Z</time></trkpt>
<trkpt lat="47.333208024501800537109375" lon="7.2222125530242919921875"><ele></ele><time>2017-5-3T7:24:52Z</time></trkpt>
<trkpt lat="47.3331180028617382049560546875" lon="7.22223392687737941741943359375"><ele></ele><time>2017-5-3T7:24:55Z</time></trkpt>
<trkpt lat="47.332973666489124298095703125" lon="7.22226820886135101318359375"><ele></ele><time>2017-5-3T7:24:58Z</time></trkpt>
<trkpt lat="47.3329250514507293701171875" lon="7.22227466292679309844970703125"><ele></ele><time>2017-5-3T7:25:1Z</time></trkpt>
<trkpt lat="47.33281843364238739013671875" lon="7.22204533405601978302001953125"><ele></ele><time>2017-5-3T7:25:4Z</time></trkpt>
<trkpt lat="47.33279890380799770355224609375" lon="7.22119054757058620452880859375"><ele></ele><time>2017-5-3T7:25:7Z</time></trkpt>
<trkpt lat="47.33278465457260608673095703125" lon="7.22034984268248081207275390625"><ele></ele><time>2017-5-3T7:25:10Z</time></trkpt>
<trkpt lat="47.33277283608913421630859375" lon="7.21950997598469257354736328125"><ele></ele><time>2017-5-3T7:25:13Z</time></trkpt>
<trkpt lat="47.33277576975524425506591796875" lon="7.21930629573762416839599609375"><ele></ele><time>2017-5-3T7:25:16Z</time></trkpt>
<trkpt lat="47.3327706567943096160888671875" lon="7.21894805319607257843017578125"><ele></ele><time>2017-5-3T7:25:19Z</time></trkpt>
<trkpt lat="47.332801334559917449951171875" lon="7.21825160086154937744140625"><ele></ele><time>2017-5-3T7:25:22Z</time></trkpt>
<trkpt lat="47.3328494466841220855712890625" lon="7.217784225940704345703125"><ele></ele><time>2017-5-3T7:25:25Z</time></trkpt>
<trkpt lat="47.332958243787288665771484375" lon="7.2171507216989994049072265625"><ele></ele><time>2017-5-3T7:25:28Z</time></trkpt>
<trkpt lat="47.33305119909346103668212890625" lon="7.21670002676546573638916015625"><ele></ele><time>2017-5-3T7:25:31Z</time></trkpt>
<trkpt lat="47.33320467174053192138671875" lon="7.215882204473018646240234375"><ele></ele><time>2017-5-3T7:25:34Z</time></trkpt>
<trkpt lat="47.33321883715689182281494140625" lon="7.21576309762895107269287109375"><ele></ele><time>2017-5-3T7:25:37Z</time></trkpt>
<trkpt lat="47.33326099812984466552734375" lon="7.21559680067002773284912109375"><ele></ele><time>2017-5-3T7:25:40Z</time></trkpt>
<trkpt lat="47.33331330120563507080078125" lon="7.21478627063333988189697265625"><ele></ele><time>2017-5-3T7:25:43Z</time></trkpt>
<trkpt lat="47.333314307034015655517578125" lon="7.2147256694734096527099609375"><ele></ele><time>2017-5-3T7:25:46Z</time></trkpt>
<trkpt lat="47.33334909193217754364013671875" lon="7.2138807736337184906005859375"><ele></ele><time>2017-5-3T7:25:49Z</time></trkpt>
<trkpt lat="47.33334791846573352813720703125" lon="7.2138174064457416534423828125"><ele></ele><time>2017-5-3T7:25:52Z</time></trkpt>
<trkpt lat="47.33336803503334522247314453125" lon="7.213378362357616424560546875"><ele></ele><time>2017-5-3T7:25:55Z</time></trkpt>
<trkpt lat="47.33338010497391223907470703125" lon="7.21304132603108882904052734375"><ele></ele><time>2017-5-3T7:25:58Z</time></trkpt>
<trkpt lat="47.33339804224669933319091796875" lon="7.21219425089657306671142578125"><ele></ele><time>2017-5-3T7:26:1Z</time></trkpt>
<trkpt lat="47.3334150575101375579833984375" lon="7.21175403334200382232666015625"><ele></ele><time>2017-5-3T7:26:4Z</time></trkpt>
<trkpt lat="47.333422601222991943359375" lon="7.2113992273807525634765625"><ele></ele><time>2017-5-3T7:26:7Z</time></trkpt>
<trkpt lat="47.33343307860195636749267578125" lon="7.21114953048527240753173828125"><ele></ele><time>2017-5-3T7:26:10Z</time></trkpt>
<trkpt lat="47.33345470391213893890380859375" lon="7.21050512976944446563720703125"><ele></ele><time>2017-5-3T7:26:13Z</time></trkpt>
<trkpt lat="47.3334723897278308868408203125" lon="7.21018594689667224884033203125"><ele></ele><time>2017-5-3T7:26:16Z</time></trkpt>
<trkpt lat="47.3334827832877635955810546875" lon="7.210066504776477813720703125"><ele></ele><time>2017-5-3T7:26:19Z</time></trkpt>
<trkpt lat="47.3336143791675567626953125" lon="7.209977321326732635498046875"><ele></ele><time>2017-5-3T7:26:22Z</time></trkpt>
<trkpt lat="47.33384429477155208587646484375" lon="7.209921665489673614501953125"><ele></ele><time>2017-5-3T7:26:25Z</time></trkpt>
<trkpt lat="47.3341285251080989837646484375" lon="7.20979727804660797119140625"><ele></ele><time>2017-5-3T7:26:28Z</time></trkpt>
<trkpt lat="47.33427579514682292938232421875" lon="7.20975461415946483612060546875"><ele></ele><time>2017-5-3T7:26:31Z</time></trkpt>
<trkpt lat="47.33437336049973964691162109375" lon="7.2093344293534755706787109375"><ele></ele><time>2017-5-3T7:26:34Z</time></trkpt>
<trkpt lat="47.33436799608170986175537109375" lon="7.209181375801563262939453125"><ele></ele><time>2017-5-3T7:26:37Z</time></trkpt>
<trkpt lat="47.33441510237753391265869140625" lon="7.20873537473380565643310546875"><ele></ele><time>2017-5-3T7:26:40Z</time></trkpt>
<trkpt lat="47.3344296030700206756591796875" lon="7.2085140086710453033447265625"><ele></ele><time>2017-5-3T7:26:43Z</time></trkpt>
<trkpt lat="47.33438291586935520172119140625" lon="7.20787170343101024627685546875"><ele></ele><time>2017-5-3T7:26:46Z</time></trkpt>
<trkpt lat="47.33438760973513126373291015625" lon="7.2078256867825984954833984375"><ele></ele><time>2017-5-3T7:26:49Z</time></trkpt>
<trkpt lat="47.33444879762828350067138671875" lon="7.20714189112186431884765625"><ele></ele><time>2017-5-3T7:26:52Z</time></trkpt>
<trkpt lat="47.33443806879222393035888671875" lon="7.2071103751659393310546875"><ele></ele><time>2017-5-3T7:26:55Z</time></trkpt>
<trkpt lat="47.334385849535465240478515625" lon="7.2070934437215328216552734375"><ele></ele><time>2017-5-3T7:26:58Z</time></trkpt>
</trkseg></trk></gpx>